[[{"header":{"parameterUnit":"m.s-1","parameterCategory":1,"la1":30.6,"la2":29.2853,"lo1":-89.7004,"lo2":-87.6739,"dy":0.0162,"dx":0.0183,"nx":112,"ny":82,"refTime":"2023-08-14T12:00:00:Z","depth":0,"parameterNumber":2,"parameterNumberName":"U-component_of_WINDS"},"data":[0.0,0.0,0.0,0.0,0.0,0.0,0.0,0.0,0.0,0.0,0.0,0.0,0.0,0.0,0.0,0.0,0.0,0.0,0.0,0.0,0.0,0.0,0.0,0.0,0.0,0.0,0.0,0.0,0.0,0.0,0.0,0.0,0.0,0.0,0.0,0.0,0.0,0.0,0.0,0.0,0.0,0.0,0.0,0.0,0.0,0.0,0.0,0.0,0.0,0.0,0.0,0.0,0.0,0.0,0.0,0.0,0.0,0.0,0.0,0.0,0.0,0.0,0.0,0.0,0.0,0.0,0.0,0.0,0.0,0.0,0.0,0.0,0.0,0.0,0.0,0.0,0.0,0.0,0.0,0.0,0.0,0.0,0.0,0.0,0.0,0.0,0.0,0.0,0.0,0.0,-4.6777,-4.8047,-5.0117,-5.1406,-5.1406,-5.1406,-4.9941,-4.6523,0.0,0.0,0.0,0.0,0.0,0.0,0.0,0.0,0.0,0.0,0.0,0.0,0.0,0.0,0.0,0.0,0.0,0.0,0.0,0.0,0.0,0.0,0.0,0.0,0.0,0.0,0.0,0.0,0.0,0.0,0.0,0.0,0.0,0.0,0.0,0.0,0.0,0.0,0.0,0.0,0.0,0.0,0.0,0.0,0.0,0.0,0.0,0.0,0.0,0.0,0.0,0.0,0.0,0.0,0.0,0.0,0.0,0.0,0.0,0.0,0.0,0.0,0.0,0.0,0.0,0.0,0.0,0.0,0.0,0.0,0.0,0.0,0.0,0.0,0.0,0.0,0.0,0.0,0.0,0.0,0.0,0.0,0.0,0.0,0.0,0.0,0.0,0.0,0.0,0.0,0.0,0.0,0.0,0.0,0.0,0.0,0.0,0.0,0.0,0.0,0.0,0.0,0.0,0.0,-4.7461,-5.0508,-5.1172,-5.1406,-5.1406,-5.1406,-4.9941,-4.6523,0.0,0.0,0.0,0.0,0.0,0.0,0.0,0.0,0.0,0.0,0.0,0.0,0.0,0.0,0.0,0.0,0.0,0.0,0.0,0.0,0.0,0.0,0.0,0.0,0.0,0.0,0.0,0.0,0.0,0.0,0.0,0.0,0.0,0.0,0.0,0.0,0.0,0.0,0.0,0.0,0.0,0.0,0.0,0.0,0.0,0.0,0.0,0.0,0.0,0.0,0.0,0.0,0.0,0.0,0.0,0.0,0.0,0.0,0.0,0.0,0.0,0.0,0.0,0.0,0.0,0.0,0.0,0.0,0.0,0.0,0.0,0.0,0.0,0.0,0.0,0.0,0.0,0.0,0.0,0.0,0.0,0.0,0.0,0.0,0.0,0.0,0.0,0.0,0.0,0.0,0.0,0.0,0.0,0.0,0.0,0.0,0.0,0.0,0.0,0.0,0.0,0.0,0.0,-4.5801,-4.7617,-5.1035,-5.1406,-5.1406,-5.1406,-5.1406,-4.9941,-4.6523,-4.6308,0.0,0.0,0.0,0.0,0.0,0.0,0.0,0.0,0.0,0.0,0.0,0.0,0.0,0.0,0.0,0.0,0.0,0.0,0.0,0.0,0.0,0.0,0.0,0.0,0.0,0.0,0.0,0.0,0.0,0.0,0.0,0.0,0.0,0.0,0.0,0.0,0.0,0.0,0.0,0.0,0.0,0.0,0.0,0.0,0.0,0.0,0.0,0.0,0.0,0.0,0.0,0.0,0.0,0.0,0.0,0.0,0.0,0.0,0.0,0.0,0.0,0.0,0.0,0.0,0.0,0.0,0.0,0.0,0.0,0.0,0.0,0.0,0.0,0.0,0.0,0.0,0.0,0.0,0.0,0.0,0.0,0.0,0.0,0.0,0.0,0.0,0.0,0.0,0.0,0.0,0.0,0.0,0.0,0.0,0.0,0.0,0.0,0.0,0.0,0.0,0.0,0.0,-4.6992,-4.8496,-5.1113,-5.1406,-5.1406,-5.1406,-5.1406,-4.9941,-4.6523,-4.6308,0.0,0.0,0.0,0.0,0.0,0.0,0.0,0.0,0.0,0.0,0.0,0.0,0.0,0.0,0.0,0.0,0.0,0.0,0.0,0.0,0.0,0.0,0.0,0.0,0.0,0.0,0.0,0.0,0.0,0.0,0.0,0.0,0.0,0.0,0.0,0.0,0.0,0.0,0.0,0.0,0.0,0.0,0.0,0.0,0.0,0.0,0.0,0.0,0.0,0.0,0.0,0.0,0.0,0.0,0.0,0.0,0.0,0.0,0.0,0.0,0.0,0.0,0.0,0.0,0.0,0.0,0.0,0.0,0.0,0.0,0.0,0.0,0.0,0.0,0.0,0.0,0.0,0.0,0.0,0.0,0.0,0.0,0.0,0.0,0.0,0.0,0.0,0.0,0.0,0.0,0.0,0.0,0.0,0.0,0.0,0.0,0.0,0.0,0.0,0.0,0.0,0.0,-4.9082,-5.1133,-5.1367,-5.1406,-5.1406,-5.1406,-5.1406,-4.9941,-4.6523,-4.6308,0.0,0.0,0.0,0.0,0.0,0.0,0.0,0.0,0.0,0.0,0.0,0.0,0.0,0.0,0.0,0.0,0.0,0.0,0.0,0.0,0.0,0.0,0.0,0.0,0.0,0.0,0.0,0.0,0.0,0.0,0.0,0.0,0.0,0.0,0.0,0.0,0.0,0.0,0.0,0.0,0.0,0.0,0.0,0.0,0.0,0.0,0.0,0.0,0.0,0.0,0.0,0.0,0.0,0.0,0.0,0.0,0.0,0.0,0.0,0.0,0.0,0.0,0.0,0.0,0.0,0.0,0.0,0.0,0.0,0.0,0.0,0.0,0.0,0.0,0.0,0.0,0.0,0.0,0.0,0.0,0.0,0.0,0.0,0.0,0.0,0.0,0.0,0.0,0.0,0.0,0.0,0.0,0.0,0.0,0.0,0.0,0.0,0.0,0.0,0.0,0.0,0.0,-4.8379,-5.0234,0.0,-5.1406,-5.1406,-5.1406,-5.1406,-4.9941,-4.6523,0.0,0.0,0.0,0.0,0.0,0.0,0.0,0.0,0.0,0.0,0.0,0.0,0.0,0.0,0.0,0.0,0.0,0.0,0.0,0.0,0.0,0.0,0.0,0.0,0.0,0.0,0.0,0.0,0.0,0.0,0.0,0.0,0.0,0.0,0.0,0.0,0.0,0.0,0.0,0.0,0.0,0.0,0.0,0.0,0.0,0.0,0.0,0.0,0.0,0.0,0.0,0.0,0.0,0.0,0.0,0.0,0.0,0.0,0.0,0.0,0.0,0.0,0.0,0.0,0.0,0.0,0.0,0.0,0.0,0.0,0.0,0.0,0.0,0.0,0.0,0.0,0.0,0.0,0.0,0.0,0.0,0.0,0.0,0.0,0.0,0.0,0.0,0.0,0.0,0.0,0.0,0.0,0.0,0.0,0.0,0.0,0.0,0.0,0.0,0.0,0.0,0.0,-4.6152,-4.8281,-5.0137,0.0,-5.1406,-5.1406,-5.1406,-5.1406,-4.9941,-4.6523,0.0,0.0,0.0,0.0,0.0,0.0,0.0,0.0,0.0,0.0,0.0,0.0,0.0,0.0,0.0,0.0,0.0,0.0,0.0,0.0,0.0,0.0,0.0,0.0,0.0,0.0,0.0,0.0,0.0,0.0,0.0,0.0,0.0,0.0,0.0,0.0,0.0,0.0,0.0,0.0,0.0,0.0,0.0,0.0,0.0,0.0,0.0,0.0,0.0,0.0,0.0,0.0,0.0,0.0,0.0,0.0,0.0,0.0,0.0,0.0,0.0,0.0,0.0,0.0,0.0,0.0,0.0,0.0,0.0,0.0,0.0,0.0,0.0,0.0,0.0,0.0,0.0,0.0,0.0,0.0,0.0,0.0,0.0,0.0,0.0,0.0,0.0,0.0,0.0,0.0,0.0,0.0,0.0,0.0,0.0,0.0,0.0,0.0,0.0,0.0,0.0,0.0,-4.6308,-4.9297,-5.1406,-5.1406,-5.1406,-5.1406,-5.1406,-5.1406,-4.9941,0.0,0.0,0.0,0.0,0.0,0.0,0.0,0.0,0.0,0.0,0.0,0.0,0.0,0.0,0.0,0.0,0.0,0.0,0.0,0.0,0.0,0.0,0.0,0.0,0.0,0.0,0.0,0.0,0.0,0.0,0.0,0.0,0.0,0.0,0.0,0.0,0.0,0.0,0.0,0.0,0.0,0.0,0.0,0.0,0.0,0.0,0.0,0.0,0.0,0.0,0.0,0.0,0.0,0.0,0.0,0.0,0.0,0.0,0.0,0.0,0.0,0.0,0.0,0.0,0.0,0.0,0.0,0.0,0.0,0.0,0.0,0.0,0.0,0.0,0.0,0.0,0.0,0.0,0.0,0.0,0.0,0.0,0.0,0.0,0.0,0.0,0.0,0.0,0.0,0.0,0.0,0.0,0.0,0.0,0.0,0.0,0.0,0.0,0.0,0.0,0.0,0.0,0.0,-4.6308,-4.9297,-5.1406,-5.1406,-5.1406,-5.1406,-5.1406,-5.1406,-4.9941,-4.6523,0.0,0.0,0.0,0.0,0.0,0.0,0.0,0.0,0.0,0.0,0.0,0.0,0.0,0.0,0.0,0.0,0.0,0.0,0.0,0.0,0.0,0.0,0.0,0.0,0.0,0.0,0.0,0.0,0.0,0.0,0.0,0.0,0.0,0.0,0.0,0.0,0.0,0.0,0.0,0.0,0.0,0.0,0.0,0.0,0.0,0.0,0.0,0.0,0.0,0.0,0.0,0.0,0.0,0.0,0.0,0.0,0.0,0.0,0.0,0.0,0.0,0.0,0.0,0.0,0.0,0.0,0.0,0.0,0.0,0.0,0.0,0.0,0.0,0.0,0.0,0.0,0.0,0.0,0.0,0.0,0.0,0.0,0.0,0.0,0.0,0.0,0.0,0.0,0.0,0.0,0.0,0.0,0.0,0.0,0.0,0.0,0.0,0.0,0.0,0.0,0.0,0.0,-4.6308,-4.9297,-5.1406,-5.1406,-5.1406,-5.1406,-5.1406,-5.1406,-5.0234,-4.7519,0.0,0.0,0.0,0.0,0.0,0.0,0.0,0.0,0.0,0.0,0.0,0.0,0.0,0.0,0.0,0.0,0.0,0.0,0.0,0.0,0.0,0.0,0.0,0.0,0.0,0.0,0.0,0.0,0.0,0.0,0.0,0.0,0.0,0.0,0.0,0.0,0.0,0.0,0.0,0.0,0.0,0.0,0.0,0.0,0.0,0.0,0.0,0.0,0.0,0.0,0.0,0.0,0.0,0.0,0.0,0.0,0.0,0.0,0.0,0.0,0.0,0.0,0.0,0.0,0.0,0.0,0.0,0.0,0.0,0.0,0.0,0.0,0.0,0.0,0.0,0.0,0.0,0.0,0.0,0.0,0.0,0.0,0.0,0.0,0.0,0.0,0.0,0.0,0.0,0.0,0.0,0.0,0.0,0.0,0.0,0.0,0.0,0.0,0.0,0.0,0.0,0.0,-4.6308,-4.9297,-5.1406,-5.1406,-5.1406,-5.1406,-5.1406,-5.1406,-5.0683,-4.9004,0.0,0.0,0.0,0.0,0.0,0.0,0.0,0.0,0.0,0.0,0.0,0.0,0.0,0.0,0.0,0.0,0.0,0.0,0.0,0.0,0.0,0.0,0.0,0.0,0.0,0.0,0.0,0.0,0.0,0.0,0.0,0.0,0.0,0.0,0.0,0.0,0.0,0.0,0.0,0.0,0.0,0.0,0.0,0.0,0.0,0.0,0.0,0.0,0.0,0.0,0.0,0.0,0.0,0.0,0.0,0.0,0.0,0.0,0.0,0.0,-5.0356,0.0,0.0,0.0,0.0,0.0,0.0,0.0,0.0,0.0,0.0,0.0,0.0,0.0,0.0,0.0,0.0,0.0,0.0,0.0,0.0,0.0,0.0,0.0,0.0,0.0,0.0,0.0,0.0,0.0,0.0,0.0,0.0,0.0,0.0,0.0,0.0,0.0,0.0,0.0,0.0,0.0,-4.6308,-4.9297,-5.1406,-5.1406,-5.1406,-5.1406,-5.1406,-5.1406,-5.0683,-4.9004,-4.8555,0.0,0.0,0.0,0.0,0.0,0.0,0.0,0.0,0.0,0.0,0.0,0.0,0.0,0.0,0.0,0.0,0.0,0.0,0.0,0.0,0.0,0.0,0.0,0.0,0.0,0.0,0.0,0.0,0.0,0.0,0.0,0.0,0.0,0.0,0.0,0.0,0.0,0.0,0.0,0.0,0.0,0.0,0.0,0.0,0.0,0.0,0.0,0.0,0.0,0.0,0.0,0.0,0.0,0.0,0.0,0.0,0.0,0.0,0.0,0.0,-5.0221,0.0,0.0,0.0,0.0,0.0,0.0,0.0,0.0,0.0,0.0,0.0,0.0,0.0,0.0,0.0,0.0,0.0,0.0,0.0,0.0,0.0,0.0,0.0,0.0,0.0,0.0,0.0,0.0,0.0,0.0,0.0,0.0,0.0,0.0,0.0,0.0,0.0,0.0,0.0,0.0,-4.6348,-4.9297,-5.1406,-5.1406,-5.1406,-5.1406,-5.1406,-5.1406,-5.1035,-5.0156,-4.9355,0.0,0.0,0.0,0.0,0.0,0.0,0.0,0.0,0.0,0.0,0.0,0.0,0.0,0.0,0.0,0.0,0.0,0.0,0.0,0.0,0.0,0.0,0.0,0.0,0.0,0.0,0.0,0.0,0.0,0.0,0.0,0.0,0.0,0.0,0.0,0.0,0.0,0.0,0.0,0.0,0.0,0.0,0.0,0.0,0.0,0.0,0.0,0.0,0.0,0.0,0.0,0.0,0.0,-5.3568,-5.3645,-5.3645,-5.3645,-5.403,-5.4587,-5.2501,-5.2183,-5.2991,-5.0144,0.0,0.0,0.0,0.0,0.0,0.0,0.0,0.0,0.0,0.0,0.0,0.0,0.0,0.0,0.0,0.0,0.0,0.0,0.0,0.0,0.0,0.0,0.0,0.0,-4.7548,-4.8209,0.0,0.0,0.0,0.0,0.0,0.0,0.0,0.0,0.0,0.0,0.0,0.0,-4.6836,-4.9473,-5.1406,-5.1406,-5.1406,-5.1406,-5.1406,-5.1406,-5.1406,-5.1406,-5.0098,-4.9199,0.0,0.0,0.0,0.0,0.0,0.0,0.0,0.0,0.0,0.0,0.0,0.0,0.0,0.0,0.0,0.0,0.0,0.0,0.0,0.0,0.0,0.0,0.0,0.0,0.0,0.0,0.0,0.0,0.0,0.0,0.0,0.0,-5.2212,-5.3953,0.0,0.0,0.0,0.0,0.0,0.0,0.0,0.0,0.0,0.0,0.0,0.0,0.0,-5.3087,-5.3203,-5.3953,-5.4337,-5.4337,-5.503,-5.5376,-5.5376,-5.5376,-5.5434,-5.5511,-5.5184,0.0,-5.3164,-5.2722,0.0,0.0,0.0,0.0,0.0,0.0,0.0,0.0,0.0,0.0,0.0,0.0,0.0,0.0,0.0,0.0,0.0,0.0,0.0,0.0,0.0,0.0,-5.0173,-5.0058,-5.0212,-5.0289,0.0,-4.7812,-4.5751,-4.5525,-4.5542,0.0,0.0,0.0,0.0,0.0,0.0,0.0,-4.8476,-5.0215,-5.1406,-5.1406,-5.1406,-5.1406,-5.1406,-5.1406,-5.1406,-5.1406,-5.1191,-5.043,-4.8965,-4.8672,0.0,0.0,0.0,0.0,0.0,0.0,0.0,0.0,0.0,0.0,0.0,0.0,0.0,0.0,0.0,0.0,0.0,0.0,0.0,0.0,0.0,0.0,0.0,0.0,0.0,0.0,0.0,0.0,0.0,-4.949,-5.0952,-5.2222,-5.2087,-5.1865,0.0,0.0,0.0,0.0,0.0,0.0,0.0,0.0,0.0,-5.5145,-5.4376,-5.4145,-5.4607,-5.4972,-5.5164,-5.5184,-5.553,-5.5703,-5.5703,-5.5703,-5.5703,-5.5703,-5.5703,-5.528,-5.453,-5.3587,-5.2549,-5.1433,0.0,0.0,0.0,0.0,-4.9894,-4.9683,-5.0529,-5.051,0.0,-4.926,0.0,0.0,0.0,0.0,0.0,0.0,0.0,0.0,0.0,0.0,-5.0087,-5.0577,-5.0712,-5.0712,-5.0712,-4.9565,-4.8257,0.0,-4.6774,-4.6271,-4.5502,0.0,0.0,0.0,0.0,-4.9023,-4.8906,-5.0351,-5.1406,-5.1406,-5.1406,-5.1406,-5.1406,-5.1406,-5.1406,-5.1406,-5.1406,-5.1074,-5.0332,-4.9394,-4.8183,0.0,0.0,0.0,0.0,0.0,0.0,0.0,0.0,0.0,0.0,0.0,0.0,0.0,0.0,0.0,0.0,0.0,0.0,0.0,0.0,0.0,0.0,0.0,0.0,0.0,0.0,0.0,0.0,-4.9683,-5.0702,-5.1578,-5.2375,-5.2645,0.0,0.0,0.0,0.0,0.0,0.0,-5.6338,-5.5376,-5.528,-5.6319,-5.5357,-5.5088,-5.5684,-5.5703,-5.5703,-5.5703,-5.5703,-5.5703,-5.5703,-5.5703,-5.5703,-5.5703,-5.5703,-5.5703,-5.5588,-5.4357,-5.3722,-5.3414,-5.2164,-5.1395,-5.1048,-5.151,-5.1395,-5.1125,-5.1952,-5.1702,-5.0933,-5.0519,0.0,-4.899,-4.8567,0.0,0.0,0.0,0.0,-4.8625,-4.951,-4.9721,-4.9894,-5.0558,-5.0712,-5.0712,-5.0712,-5.0519,-5.0048,0.0,-4.8317,-4.7704,-4.6906,0.0,0.0,0.0,0.0,-4.9998,-4.959,-5.0625,-5.1406,-5.1406,-5.1406,-5.1406,-5.1406,-5.1406,-5.1406,-5.1406,-5.1406,-5.1406,-5.1406,-5.0195,-4.9316,-4.8864,0.0,0.0,0.0,0.0,0.0,0.0,0.0,0.0,0.0,0.0,0.0,0.0,0.0,0.0,0.0,0.0,0.0,0.0,0.0,0.0,0.0,0.0,0.0,0.0,0.0,0.0,0.0,0.0,0.0,-5.4203,-5.5011,0.0,0.0,0.0,0.0,-5.5568,-5.5645,-5.6415,-5.8088,-5.6549,-5.6415,-5.8127,-5.6511,-5.5665,-5.5703,-5.5703,-5.5703,-5.5703,-5.5703,-5.5703,-5.5703,-5.5703,-5.5703,-5.5703,-5.5703,-5.5703,-5.5684,-5.5607,-5.5126,-5.4434,-5.4337,-5.3299,-5.2038,-5.3703,-5.326,-5.1962,-5.2837,-5.2558,-5.1577,-4.9971,-4.8875,-4.8317,-4.9106,-4.8759,0.0,0.0,-4.9336,-4.9529,-5.0423,-5.0635,-5.0654,-5.0693,-5.0712,-5.0712,-5.0712,-5.0048,-4.9683,0.0,-5.0548,-5.0276,-4.954,0.0,-4.9561,-4.9775,-4.9916,-5.0326,-5.1171,-5.1348,-5.1406,-5.1406,-5.1406,-5.1406,-5.1406,-5.1406,-5.1406,-5.1406,-5.1406,-5.1406,-5.1406,-5.1328,-5.0464,-4.8745,-4.8623,0.0,0.0,0.0,0.0,0.0,0.0,0.0,0.0,0.0,0.0,0.0,0.0,0.0,0.0,0.0,0.0,0.0,0.0,0.0,0.0,0.0,0.0,0.0,0.0,0.0,0.0,0.0,0.0,-5.3626,-5.4876,0.0,-5.5703,-5.6703,-5.7376,-5.7376,-5.8377,-5.9242,-5.9877,-5.83,-5.7665,-5.828,-5.6607,-5.5703,-5.5703,-5.5703,-5.5703,-5.5703,-5.5703,-5.5703,-5.5703,-5.5703,-5.5703,-5.5703,-5.5703,-5.5703,-5.5703,-5.5703,-5.553,-5.5261,-5.5261,-5.4895,-5.4357,-5.4453,-5.4107,-5.3453,-5.2635,-5.2154,-5.1712,-5.0606,-5.0029,-4.9817,-5.0144,-5.001,-4.9837,-5.0144,-5.025,-5.0308,-5.0616,-5.0712,-5.0712,-5.0712,-5.0712,-5.0712,-5.0712,-5.0462,-5.0327,-5.0635,-5.025,-4.9788,-4.9523,-5.0004,-5.0313,-4.9932,-5.0394,-5.093,-5.1347,-5.1406,-5.1406,-5.1406,-5.1406,-5.1406,-5.1406,-5.1406,-5.1406,-5.1406,-5.1406,-5.1365,-5.127,-5.127,-5.0952,-5.026,-5.016,-4.8729,0.0,0.0,0.0,0.0,0.0,0.0,0.0,0.0,0.0,0.0,0.0,0.0,0.0,0.0,0.0,0.0,0.0,0.0,0.0,0.0,0.0,0.0,0.0,0.0,0.0,0.0,-5.3318,-5.3606,-5.5376,-5.6588,-5.6588,-5.8127,-5.9146,-5.9146,-6.0165,-6.08,-6.08,-5.9204,-5.83,-5.83,-5.6607,-5.5703,-5.5703,-5.5703,-5.5703,-5.5703,-5.5703,-5.5703,-5.5703,-5.5703,-5.5703,-5.5703,-5.5703,-5.5703,-5.5703,-5.5703,-5.5703,-5.5703,-5.5703,-5.5703,-5.5588,-5.4799,-5.4318,-5.3818,-5.2087,-5.151,-5.1414,-5.0856,-5.0712,-5.0712,-5.0712,-5.0712,-5.0712,-5.0712,-5.0712,-5.0712,-5.0712,-5.0712,-5.0712,-5.0712,-5.0712,-5.0712,-5.0712,-5.0712,-5.0712,-5.0712,-5.0231,-4.9837,-4.9837,-5.0398,-5.061,-4.9902,-5.0547,-5.1073,-5.0995,-5.1189,-5.1344,-5.1406,-5.1406,-5.1406,-5.1406,-5.0879,-5.0781,-5.1303,-5.0796,-5.0683,-5.1148,-5.0642,-5.0306,-5.0213,-5.0099,-4.8645,-4.5841,0.0,0.0,0.0,0.0,0.0,0.0,0.0,0.0,0.0,0.0,0.0,0.0,0.0,0.0,0.0,0.0,0.0,0.0,0.0,0.0,0.0,0.0,0.0,-5.3241,-5.326,-5.3606,-5.4511,-5.6799,-5.8319,-5.8377,-5.9858,-6.08,-6.08,-6.08,-6.08,-6.08,-5.9204,-5.8319,-5.8338,-5.6646,-5.5742,-5.578,-5.578,-5.578,-5.578,-5.578,-5.578,-5.578,-5.5742,-5.5742,-5.5742,-5.5703,-5.5703,-5.5703,-5.5703,-5.5703,-5.5703,-5.5703,-5.5684,-5.5549,-5.4761,-5.3895,-5.2895,-5.126,-5.0712,-5.0712,-5.0712,-5.0712,-5.0712,-5.0712,-5.0712,-5.0712,-5.0712,-5.0712,-5.0712,-5.0712,-5.0712,-5.0712,-5.0712,-5.0712,-5.0712,-5.0712,-5.0712,-5.0712,-5.0712,-5.0712,-5.0712,-5.0712,-5.0712,-5.0493,-4.9923,-5.0429,0.0,-5.0288,-5.0803,-5.1242,-5.1347,-5.1367,-5.1367,-5.1367,-4.9863,-4.9585,-5.1106,-4.9674,-4.9462,-5.1031,-4.9607,-4.8711,-4.8569,-4.8354,-4.7424,-4.5735,0.0,0.0,0.0,0.0,0.0,0.0,0.0,0.0,0.0,0.0,0.0,0.0,0.0,0.0,0.0,0.0,0.0,0.0,0.0,0.0,0.0,0.0,-5.4145,-5.4145,-5.4645,-5.5568,-5.7088,-5.7877,-5.8781,-5.9992,-6.0531,-6.08,-6.08,-6.08,-6.08,-6.08,-5.9204,-5.8569,-5.9146,-5.753,-5.6953,-5.7588,-5.7588,-5.7588,-5.7588,-5.7588,-5.7588,-5.7569,-5.6934,-5.6637,-5.6618,-5.5972,-5.5703,-5.5703,-5.5703,-5.5703,-5.5703,-5.5703,-5.5338,-5.4722,-5.3876,-5.2645,-5.1318,-5.0866,-5.0712,-5.0712,-5.0712,-5.0712,-5.0712,-5.0712,-5.0712,-5.0712,-5.0712,-5.0712,-5.0712,-5.0712,-5.0712,-5.0712,-5.0712,-5.0712,-5.0712,-5.0712,-5.0712,-5.0712,-5.0712,-5.0712,-5.0712,-5.0712,-5.0712,-5.068,-5.0615,-5.0763,0.0,-5.0852,-5.1066,-5.0993,-5.0442,-5.0464,-5.0486,-5.0388,-4.9955,-5.0106,-5.107,-5.0692,-5.0598,-5.0933,-5.0519,-5.0228,-5.0102,-4.824,-4.7078,0.0,0.0,0.0,0.0,0.0,0.0,0.0,0.0,0.0,0.0,0.0,0.0,0.0,0.0,0.0,0.0,0.0,0.0,0.0,0.0,0.0,0.0,-5.4126,-5.4991,-5.4991,-5.5415,-5.6357,-5.8088,-5.83,-5.8954,-6.0627,-6.08,-6.08,-6.08,-6.08,-6.08,-6.08,-5.9531,-5.9031,-5.9492,-5.8223,-5.778,-5.83,-5.83,-5.83,-5.83,-5.83,-5.83,-5.828,-5.778,-5.753,0.0,-5.6607,-5.6252,-5.6233,-5.5838,-5.5703,0.0,0.0,0.0,0.0,0.0,-5.2356,-5.1144,-5.0827,-5.0712,-5.0712,-5.0712,-5.0712,-5.0712,-5.0712,-5.0712,-5.0712,-5.0712,-5.0712,-5.0712,-5.0712,-5.0712,-5.0712,-5.0712,-5.0712,-5.0712,-5.0712,-5.0712,-5.0712,-5.0712,-5.0712,0.0,-5.0712,-5.0712,-5.0614,-5.0387,-5.0619,-5.0751,-5.0577,-5.0855,-5.0929,-5.0501,-5.053,-5.0557,-5.0472,-4.9783,0.0,0.0,0.0,-4.9899,-4.9809,-4.9802,0.0,0.0,0.0,-4.7108,-4.746,0.0,0.0,0.0,-4.2379,-4.2019,0.0,0.0,0.0,0.0,0.0,0.0,0.0,0.0,0.0,0.0,0.0,0.0,0.0,0.0,0.0,0.0,-5.5184,-5.5703,-5.5703,-5.5703,-5.6357,-5.8088,-5.83,-5.8954,-6.0627,-6.08,-6.08,-6.08,-6.08,-6.08,-6.08,0.0,0.0,0.0,0.0,-5.8492,-5.8588,-5.8588,-5.8588,-5.8588,-5.8588,-5.8588,-5.8588,-5.8492,-5.8434,-5.8396,-5.7511,-5.7099,-5.6945,-5.6175,-5.578,-5.5684,-5.5588,-5.5549,-5.5376,-5.378,-5.2654,-5.1788,-5.1087,0.0,0.0,-5.0712,-5.0712,-5.0712,-5.0712,-5.0712,-5.0712,-5.0712,-5.0712,-5.0712,-5.0712,-5.0712,-5.0712,-5.0712,-5.0712,-5.0712,-5.0712,-5.0712,-5.0712,-5.0712,-5.0712,-5.0712,-5.0712,-5.0712,-5.0489,-4.9819,-5.0273,-5.0512,-4.9973,-5.0487,-5.0913,-5.0936,0.0,0.0,-5.0933,-4.9517,-4.9276,-5.0789,-4.9436,-4.857,-4.857,-4.857,-4.857,-4.857,-4.7622,-4.7449,-4.8105,-4.7201,-4.6355,-4.5526,-4.2665,-4.2117,0.0,0.0,0.0,0.0,0.0,0.0,0.0,0.0,0.0,0.0,0.0,0.0,0.0,0.0,0.0,-5.4337,-5.5184,-5.5703,-5.5703,-5.5703,-5.6357,-5.8088,-5.83,-5.8954,-6.0627,-6.08,-6.08,-6.08,-6.08,-6.08,-6.08,-5.9973,-5.9819,-6.0531,-5.9723,-5.9608,-6.03,-6.0319,-6.0319,-6.0319,0.0,0.0,-6.0281,-5.9588,-5.9281,-5.9223,-5.8396,-5.7646,-5.6983,-5.683,-5.6329,-5.5645,-5.4991,-5.4722,-5.4607,-5.3587,-5.2654,-5.1885,-5.1712,-5.1241,-5.0712,-5.0712,-5.0712,-5.0712,-5.0712,-5.0712,0.0,-5.0712,-5.0712,-5.0712,-5.0712,-5.0712,-5.0712,-5.0712,-5.0712,-5.0712,-5.0712,-5.0712,-5.0712,-5.0712,-5.0712,-5.0712,-5.0712,-5.0712,-5.0645,-5.0519,-5.0606,-5.0664,-5.0543,-5.0735,-5.0644,-4.9956,-4.9984,-5.0006,-4.9892,-4.9588,-4.978,-5.0681,-5.0422,-5.0249,-5.0249,-5.0249,-5.0249,-5.0249,-4.868,-4.7969,-4.8105,-4.6586,-4.5768,-4.5594,-4.495,-4.485,0.0,0.0,0.0,0.0,0.0,0.0,0.0,0.0,0.0,0.0,0.0,-5.1568,0.0,0.0,-5.4126,-5.4953,-5.5434,-5.5703,-5.5703,-5.6069,-5.6838,-5.8146,-5.83,-5.8954,-6.0627,-6.08,-6.08,-6.08,-6.08,-6.08,-6.08,-6.0396,-6.0339,-6.0781,-6.0377,-6.0358,-6.08,-6.08,-6.08,-6.08,-6.08,-6.08,-6.0781,-6.0339,-6.0146,-6.0108,-5.9261,-5.8434,-5.7569,-5.6703,-5.6088,-5.5665,-5.5261,-5.5107,-5.4991,-5.4164,-5.3587,-5.3087,-5.2192,-5.1645,-5.1221,-5.0827,-5.0712,-5.0712,-5.0712,-5.0712,-5.0712,-5.0712,-5.0712,-5.0712,-5.0712,-5.0712,-5.0712,-5.0712,-5.0712,-5.0712,-5.0712,-5.0712,-5.0712,-5.0712,-5.0712,-5.0712,-5.0712,-5.0712,-5.0712,-5.0712,-5.0712,-5.0712,-5.0712,-5.0757,-5.0634,-5.0201,-5.0213,-5.0217,-5.0171,-5.0162,-5.0303,-5.0673,-5.0712,-5.0712,-5.0712,-5.0712,-5.05,-5.0048,-4.8779,-4.7894,-4.7509,-4.622,-4.5594,-4.5594,-4.5594,-4.5594,0.0,0.0,0.0,0.0,0.0,0.0,0.0,0.0,-5.0625,-5.1501,-5.2183,-5.2846,-5.3568,-5.426,-5.4953,-5.5588,-5.5703,-5.5703,-5.5703,-5.6445,-5.733,-5.8204,-5.8434,-5.9127,-6.0646,-6.08,-6.08,-6.08,-6.08,-6.08,-6.08,-6.08,-6.08,-6.08,-6.08,-6.08,-6.08,-6.08,-6.08,-6.08,-6.08,-6.08,-6.08,-6.08,-6.08,-6.0742,-5.9877,-5.905,-5.8184,-5.6588,-5.5838,-5.5703,-5.5703,-5.5703,-5.5607,-5.4972,-5.4626,-5.4299,-5.2895,-5.2173,-5.1788,-5.1144,-5.0827,-5.0712,-5.0712,-5.0712,-5.0712,-5.0712,-5.0712,-5.0712,-5.0712,-5.0712,-5.0712,-5.0712,-5.0712,-5.0712,-5.0712,-5.0712,-5.0712,-5.0712,-5.0712,-5.0712,-5.0712,-5.0712,-5.0712,-5.0712,-5.0712,-5.0712,-5.0712,-5.0712,-5.0712,-5.0712,-5.0712,-5.0712,-5.0712,-5.0712,-5.0712,-5.0712,-5.0712,-5.0712,-5.0712,-5.0712,-5.0289,-4.9413,-4.8548,-4.7702,-4.6904,-4.6028,-4.5594,-4.5594,-4.5594,-4.5594,-4.5941,-4.6817,-4.8586,-5.0048,-5.1029,-5.2192,0.0,0.0,-5.4164,-5.4972,-5.5203,-5.5299,-5.5395,-5.5491,-5.5588,-5.5684,-5.5703,-5.5703,-5.5703,-5.6445,-5.733,-5.8204,-5.8934,-5.9742,-6.0704,-6.08,-6.08,-6.08,-6.08,-6.08,-6.08,-6.08,-6.08,-6.08,-6.08,-6.08,-6.08,-6.08,-6.08,-6.08,-6.08,-6.08,-6.08,-6.08,-6.08,-6.0742,-5.9877,-5.905,-5.8223,-5.7242,-5.6406,-5.5703,-5.5703,-5.5703,-5.5684,-5.5588,-5.5107,-5.4472,-5.428,-5.3203,-5.1885,-5.1788,-5.1279,-5.0712,-5.0712,-5.0712,-5.0712,-5.0712,-5.0712,-5.0712,-5.0712,-5.0712,-5.0712,-5.0712,-5.0712,-5.0712,-5.0712,-5.0712,-5.0712,-5.0712,-5.0712,-5.0712,-5.0712,-5.0712,-5.0712,-5.0712,-5.0712,-5.0712,-5.0712,-5.0712,-5.0712,-5.0712,-5.0712,-5.0712,-5.0712,-5.0712,-5.0712,-5.0712,-5.0712,-5.0712,-5.0712,-5.0712,-5.0289,-4.9413,-4.8548,-4.7702,-4.6904,-4.6028,-4.5594,-4.5594,-4.5594,-4.5594,-4.848,-4.9077,-4.9894,-5.1106,-5.2414,-5.3568,-5.4126,-5.4376,-5.4722,-5.553,-5.5703,-5.5703,-5.5703,-5.5703,-5.5703,0.0,-5.5703,-5.5703,-5.5703,-5.6445,-5.733,-5.8204,-5.9011,-5.9838,-6.0723,-6.08,-6.08,-6.08,-6.08,-6.08,-6.08,-6.08,-6.08,-6.08,-6.08,-6.08,-6.08,-6.08,-6.08,-6.08,-6.08,-6.08,-6.08,-6.08,-6.08,-6.0742,-5.9877,-5.905,-5.8223,-5.7368,-5.6503,-5.5703,-5.5703,-5.5703,-5.5703,-5.5703,-5.5491,-5.5126,-5.4664,-5.3683,-5.2558,-5.2058,-5.1356,-5.0712,-5.0712,-5.0712,-5.0712,-5.0712,-5.0712,-5.0712,-5.0712,-5.0712,-5.0712,-5.0712,-5.0712,-5.0712,-5.0712,-5.0712,-5.0712,-5.0712,-5.0712,-5.0712,-5.0712,-5.0712,-5.0712,-5.0712,-5.0712,-5.0712,-5.0712,-5.0712,-5.0712,-5.0712,-5.0712,-5.0712,-5.0712,-5.0712,-5.0712,-5.0712,-5.0712,-5.0712,-5.0712,-5.0212,-4.9529,-4.8663,-4.7836,-4.699,-4.6144,-4.5787,-4.5594,-4.5594,-4.5594,-4.5594,-4.924,-5.0173,0.0,-5.1692,-5.3376,-5.4664,-5.403,-5.4376,-5.4991,-5.5568,-5.5703,-5.5703,-5.5703,-5.5703,-5.5703,-5.5703,-5.5703,-5.5703,-5.5703,-5.6445,-5.733,-5.8204,-5.9011,-5.9838,-6.0723,-6.08,-6.08,-6.08,-6.08,-6.08,-6.08,-6.08,-6.08,-6.08,-6.08,-6.08,-6.08,-6.08,-6.08,-6.08,-6.08,-6.08,-6.08,-6.08,-6.08,-6.0742,-5.9877,-5.905,-5.8223,-5.7368,-5.6503,-5.5703,-5.5703,-5.5703,-5.5703,-5.5703,-5.5703,-5.5607,-5.503,-5.4126,-5.3106,-5.2462,-5.1548,-5.0712,-5.0712,-5.0712,-5.0712,-5.0712,-5.0712,-5.0712,-5.0712,-5.0712,-5.0712,-5.0712,-5.0712,-5.0712,-5.0712,-5.0712,-5.0712,-5.0712,-5.0712,-5.0712,-5.0712,-5.0712,-5.0712,-5.0712,-5.0712,-5.0712,-5.0712,-5.0712,-5.0712,-5.0712,-5.0712,-5.0712,-5.0712,-5.0712,-5.0712,-5.0712,-5.0712,-5.0712,-5.0712,-4.9856,-4.899,-4.8125,-4.7317,-4.6471,-4.5594,-4.5594,-4.5594,-4.5594,-4.5594,-4.5594,-4.6778,-4.8817,-5.0894,-5.1692,-5.3799,-5.5665,-5.5626,-5.5645,-5.5665,-5.5684,-5.5703,-5.5703,-5.5703,-5.5703,-5.5703,-5.5703,-5.5703,-5.5703,-5.5703,-5.6445,-5.733,-5.8204,-5.9011,-5.9838,0.0,-6.08,-6.08,-6.08,-6.08,-6.08,-6.08,-6.08,-6.08,-6.08,-6.08,-6.08,-6.08,-6.08,-6.08,-6.08,-6.08,-6.08,-6.08,-6.08,-6.08,-6.0742,-5.9877,-5.905,-5.8223,-5.7368,-5.6503,-5.5703,-5.5703,-5.5703,-5.5703,-5.5703,-5.5703,-5.5703,-5.5665,-5.4587,-5.3203,-5.3164,-5.2029,-5.0712,-5.0712,-5.0712,-5.0712,-5.0712,-5.0712,-5.0712,-5.0712,-5.0712,-5.0712,-5.0712,-5.0712,-5.0712,-5.0712,-5.0712,-5.0712,-5.0712,-5.0712,-5.0712,-5.0712,-5.0712,-5.0712,-5.0712,-5.0712,-5.0712,-5.0712,-5.0712,-5.0712,-5.0712,-5.0712,-5.0712,-5.0712,-5.0712,-5.0712,-5.0712,-5.0712,-5.0712,-5.0712,-4.9856,-4.899,-4.8125,-4.7317,-4.6471,-4.5594,-4.5594,-4.5594,-4.5594,-4.5594,-4.5594,-4.7471,-4.9163,-5.1029,-5.2414,-5.3837,-5.503,-5.5568,-5.5703,-5.5703,-5.5703,-5.528,-5.4895,-5.4895,-5.4895,-5.4895,-5.4895,-5.5338,-5.5703,-5.5703,-5.5953,-5.6684,-5.8127,-5.855,0.0,0.0,0.0,0.0,-6.08,-6.08,-6.08,-6.08,-6.08,-6.08,-6.08,-6.08,-6.08,-6.08,-6.08,-6.08,-6.08,-6.08,-6.08,-6.08,-6.08,-6.08,-6.0742,-5.9877,-5.905,-5.8223,-5.7368,-5.6503,-5.5703,-5.5703,-5.5703,-5.5703,-5.5703,-5.5703,-5.5703,-5.5703,-5.4607,-5.3203,-5.3203,-5.2068,-5.0712,-5.0712,-5.0712,-5.0712,-5.0712,-5.0712,-5.0712,-5.0712,-5.0712,-5.0712,-5.0712,-5.0712,-5.0712,-5.0712,-5.0712,-5.0712,-5.0712,-5.0712,-5.0712,-5.0712,-5.0712,-5.0712,-5.0712,-5.0712,-5.0712,-5.0712,-5.0712,-5.0712,-5.0712,-5.0712,-5.0712,-5.0712,-5.0712,-5.0712,-5.0712,-5.0712,-5.0442,-4.9856,-4.899,-4.8144,-4.7317,-4.6471,-4.5893,-4.5594,-4.5594,-4.5594,-4.5594,-4.5594,-4.5594,-4.8259,-4.9606,-5.1097,-5.2779,-5.3857,-5.4703,-5.5511,-5.5703,-5.5703,-5.5703,-5.5049,-5.4491,-5.4491,-5.4491,-5.4395,-5.4087,-5.4972,-5.5588,-5.5299,-5.5511,-5.6357,-5.8088,-5.83,-5.8954,0.0,0.0,0.0,-6.08,-6.08,-6.08,-6.08,-6.08,-6.08,-6.08,-6.08,-6.08,-6.08,-6.08,-6.08,-6.08,-6.08,-6.08,-6.08,-6.08,-6.08,-6.0742,-5.9569,-5.8781,-5.8204,-5.7011,-5.6214,-5.5703,-5.5703,-5.5703,-5.5703,-5.5703,-5.5703,-5.5703,-5.5703,-5.4607,-5.3182,-5.3029,-5.1845,-5.0462,-5.0306,-5.0272,-5.0272,-5.0272,-5.0369,-5.0483,-5.0483,-5.0594,-5.0712,-5.0712,-5.0712,-5.0712,-5.0712,-5.0712,-5.0712,-5.0712,-5.0712,-5.0712,-5.0712,-5.0712,-5.0712,-5.0712,-5.0712,-5.0712,-5.0712,-5.0712,-5.0712,-5.0712,-5.0712,-5.0712,-5.0712,-5.0712,-5.0712,-5.0712,-5.0423,-4.9971,-4.9413,-4.8298,-4.7432,-4.6904,-4.6028,-4.5594,-4.5594,-4.5594,-4.5594,-4.5594,-4.5594,-4.5594,-4.8971,-5.0029,-5.1097,-5.2779,-5.3818,-5.4664,-5.5511,-5.5703,-5.5684,-5.5645,-5.4991,-5.4414,0.0,0.0,-5.4164,-5.3337,-5.4607,-5.5434,-5.4664,-5.5222,-5.6357,0.0,0.0,0.0,0.0,0.0,0.0,-6.08,0.0,-6.08,-6.08,-6.08,-6.08,-6.08,-6.08,-6.08,-6.08,-6.08,-6.08,-6.08,-6.08,-6.08,-6.08,-6.08,-6.0781,-6.0646,-5.9011,-5.828,-5.8107,-5.6395,-5.5703,-5.5703,-5.5703,-5.5703,-5.5703,-5.5703,-5.5703,-5.5684,-5.5635,-5.4547,-5.3102,-5.2676,-5.142,-4.9987,-4.9622,-4.9489,-4.9489,-4.9489,-4.9773,-5.0068,-5.0068,-5.0358,-5.0673,-5.0673,-5.0702,-5.0712,-5.0712,-5.0712,-5.0712,-5.0712,-5.0712,-5.0712,-5.0712,-5.0712,-5.0712,-5.0712,-5.0712,-5.0712,-5.0712,-5.0712,-5.0712,-5.0712,-5.0712,-5.0712,-5.0712,-5.0712,-5.0673,-5.0635,-4.9856,-4.9356,-4.9279,-4.774,-4.6885,-4.6827,-4.6009,-4.5594,-4.5594,-4.5594,-4.5594,-4.5594,-4.5594,-4.5594,-4.9279,-5.0029,-5.1097,-5.2779,-5.3376,-5.3914,-5.5376,-5.5703,-5.553,-5.4934,-5.4126,-5.3337,0.0,0.0,0.0,-5.3241,-5.4607,0.0,-5.5415,-5.5568,0.0,-5.8088,-5.83,-5.8954,-6.0627,-6.08,0.0,0.0,-6.08,-6.08,-6.08,-6.08,-6.08,-6.08,-6.08,-6.08,-6.08,-6.08,-6.08,-6.08,-6.08,-6.08,-6.08,-6.08,-6.0454,-5.9762,-5.8742,-5.7934,-5.7253,-5.6145,-5.5703,-5.5703,-5.5703,-5.5703,-5.5703,-5.5703,-5.5703,-5.5566,-5.4678,-5.3656,-5.2631,-5.1877,-5.0728,-4.9617,-4.9518,-4.9489,-4.9489,-4.9489,-4.9561,-4.9645,-4.9645,-4.9949,-5.0249,-5.0249,-5.0483,-5.0712,-5.0712,-5.0712,-5.0712,-5.0712,-5.0712,-5.0712,-5.0712,-5.0712,-5.0712,-5.0712,-5.0712,-5.0712,-5.0712,-5.0712,-5.0712,-5.0712,-5.0712,-5.0712,-5.0712,-5.0712,-5.0423,-4.976,-4.951,-4.8836,-4.7586,-4.7144,-4.6586,-4.5932,-4.571,-4.5594,-4.5594,-4.5594,-4.5594,-4.5594,-4.5594,-4.5594,-4.9875,-5.0327,-5.1097,-5.2779,-5.3203,-5.3549,-5.4876,-5.5164,-5.4934,-5.4107,-5.3241,-5.2481,-5.1981,-5.2596,0.0,0.0,0.0,0.0,-5.5222,-5.5472,-5.6357,0.0,-5.83,0.0,-6.0627,-6.08,-6.08,0.0,-6.08,-6.08,-6.08,-6.08,-6.08,-6.08,-6.08,-6.08,-6.08,-6.08,-6.08,-6.08,-6.08,-6.08,-6.0781,-6.0396,-5.9954,-5.9435,0.0,-5.7453,-5.6926,-5.6049,-5.5703,-5.5703,-5.5703,-5.5703,-5.5703,-5.5703,-5.5358,-5.4752,-5.3702,-5.2547,-5.1471,-5.0983,-5.0105,-4.9202,-4.9029,-4.8963,-4.8963,-4.8963,-4.9092,-4.9234,-4.9234,-4.9532,-4.9846,-4.9846,-5.0147,-5.0399,-5.0206,-5.0325,-5.0432,-5.0432,-5.0432,-5.0493,-5.0673,-5.0712,-5.0712,-5.0712,-5.0712,-5.0712,-5.0712,-5.0712,-5.0712,-5.0712,-5.0712,-5.0712,-5.0712,-5.0712,-5.0327,-4.9452,-4.9048,-4.8259,-4.6942,-4.6528,-4.6105,-4.5614,-4.5594,-4.5594,-4.5594,-4.5594,-4.5594,-4.5594,-4.5594,-4.5594,-5.05,-5.0712,-5.1097,-5.2779,-5.3203,-5.3433,-5.4299,-5.4491,-5.4222,-5.3241,-5.2423,-5.1865,-5.175,-5.2452,-5.2818,-5.2173,0.0,-5.5318,-5.4741,-5.5261,-5.6357,-5.8088,-5.83,-5.8954,-6.0627,-6.08,-6.08,-6.08,-6.08,-6.08,-6.08,-6.08,-6.08,-6.08,-6.08,-6.08,-6.08,-6.08,-6.08,-6.08,-6.08,-6.0742,-6.0589,-5.9838,-5.9377,-5.9088,-5.7627,0.0,-5.6772,-5.6011,-5.5703,-5.5703,-5.5703,-5.5703,-5.5684,-5.564,-5.4894,-5.3747,-5.2779,-5.1458,-5.0179,-5.0067,-4.9476,-4.8761,-4.842,-4.8306,-4.8306,-4.8306,-4.855,-4.883,-4.883,-4.9108,-4.9416,-4.9416,-4.9733,-4.9924,-4.9594,-4.9773,-5.0031,-5.0031,-5.0031,-5.0147,-5.0554,-5.0614,-5.0653,-5.0683,-5.0712,-5.0712,-5.0712,-5.0712,-5.0712,-5.0712,-5.0712,-5.0712,-5.0712,-5.0712,-5.0289,-4.9298,-4.8529,-4.7702,-4.6778,-4.599,-4.5594,-4.5594,-4.5594,-4.5594,-4.5594,-4.5594,-4.5594,-4.5594,-4.5594,-4.5594,-5.0654,-5.0712,-5.1097,-5.2779,-5.3203,-5.3433,-5.4299,-5.4491,0.0,-5.2442,-5.2,-5.1692,-5.1029,-5.1587,-5.2308,-5.2876,-5.3953,-5.4895,-5.5415,-5.5607,-5.6357,0.0,-5.83,-5.8954,-6.0627,-6.08,0.0,0.0,0.0,-6.08,-6.08,-6.08,-6.08,-6.08,-6.08,-6.08,-6.08,-6.08,-6.08,-6.08,-6.08,-6.0416,-5.9723,-5.9569,-5.8742,-5.7426,-5.7137,0.0,-5.5915,-5.5761,-5.5703,-5.5703,-5.5703,-5.5703,-5.5662,-5.5319,-5.4638,-5.3682,-5.2153,-5.0987,-5.0086,-4.936,-4.8786,-4.8402,-4.8325,-4.8306,-4.8306,-4.8306,-4.8345,-4.8402,-4.8402,-4.871,-4.8994,-4.8994,-4.9311,-4.9575,-4.9504,-4.9547,-4.9589,-4.9589,-4.9589,-4.9733,-5.0128,-5.0195,-5.0325,-5.0653,-5.0712,-5.0712,-5.0712,-5.0712,-5.0712,-5.0712,-5.0712,-5.0712,-5.0712,-5.0712,-5.001,-4.8432,-4.8182,-4.7413,-4.5902,-4.5691,-4.5594,-4.5594,-4.5594,-4.5594,-4.5594,-4.5594,-4.5594,-4.5594,-4.5594,-4.5594,-5.0712,-5.0712,-5.0991,-5.2222,-5.2856,-5.3203,-5.3164,0.0,0.0,-5.1625,-5.1279,-5.1164,-5.077,-5.1356,0.0,-5.2462,-5.3645,-5.4626,-5.5011,-5.5434,-5.6184,-5.7473,-5.803,-5.8781,0.0,-6.0531,-6.08,-6.08,0.0,-6.08,-6.08,-6.08,-6.08,-6.08,-6.08,-6.08,-6.08,-6.08,-6.08,-6.0781,-6.0339,-5.9896,-5.9473,-5.8588,-5.7772,-5.6964,-5.6522,0.0,-5.5703,-5.5703,-5.5703,-5.5703,-5.5703,-5.5577,-5.5317,-5.4709,-5.367,-5.2419,-5.1191,-5.0097,-4.914,-4.8715,-4.8458,-4.8306,-4.8306,-4.8306,-4.8306,-4.8306,-4.8306,-4.8306,-4.8306,-4.8439,-4.8586,-4.8586,-4.8745,-4.893,-4.9139,-4.9029,-4.893,-4.9139,-4.9187,-4.9311,-4.9719,-4.9962,-5.0092,-5.008,-5.0249,-5.0325,-5.0092,-5.0068,-5.0237,-5.0663,-5.0712,-5.0712,-5.0712,-5.0289,-4.9471,-4.8182,-4.7721,-4.6913,-4.5652,-4.5594,-4.5594,-4.5594,-4.5594,-4.5594,-4.5594,-4.5594,-4.5504,-4.5342,-4.5342,-4.5243,-5.0654,-5.0712,-5.0894,-5.1692,-5.2558,-5.2972,-5.2096,-5.2558,0.0,-5.1058,-5.0712,-5.0712,-5.0712,-5.1221,-5.1692,0.0,-5.3049,-5.4068,-5.4453,-5.503,-5.5818,0.0,-5.7761,0.0,-5.9415,-6.0281,0.0,0.0,0.0,0.0,-6.08,-6.08,-6.08,-6.08,-6.08,-6.08,-6.08,-6.08,-6.0704,-6.0512,-5.9838,-5.9319,-5.8915,-5.7599,-5.6907,-5.6676,-5.5992,0.0,0.0,-5.5703,-5.5651,-5.5577,-5.5577,-5.5216,-5.4604,-5.3883,-5.2582,-5.1038,-5.0318,-4.9289,-4.8306,-4.8306,-4.8306,-4.8306,-4.8306,-4.8306,-4.8306,-4.8306,-4.8306,-4.8306,-4.8306,-4.8306,-4.8306,-4.8306,-4.8306,-4.8402,-4.8692,-4.8532,-4.8383,-4.871,-4.8779,-4.8897,-4.9311,-4.9631,-4.9773,-4.9532,-4.9773,-4.9872,-4.9532,-4.9489,-4.9746,-5.0388,-5.0534,-5.0604,-5.0683,-4.9894,-4.9029,-4.8163,-4.7327,-4.6509,-4.5633,-4.5594,-4.5594,-4.5594,-4.5594,-4.5594,-4.5594,-4.5594,-4.5429,-4.5096,-4.5096,-4.4919,-5.0481,-5.0712,-5.0894,-5.1692,-5.2558,-5.2972,-5.2096,0.0,-5.2722,-5.1058,-5.0712,-5.0712,-5.0712,-5.077,-5.1048,-5.1769,0.0,-5.2692,-5.428,-5.4549,-5.5203,-5.681,0.0,0.0,-5.9415,0.0,0.0,0.0,0.0,0.0,-6.08,-6.08,-6.08,-6.08,-6.08,-6.08,-6.08,-6.08,-6.0396,-5.9627,-5.955,-5.8704,-5.7214,-5.708,-5.6579,-5.5818,-5.5722,0.0,0.0,-5.5703,-5.5489,-5.516,-5.516,-5.4429,-5.3327,-5.2881,-5.1703,-5.0258,-4.9805,-4.9061,-4.8306,-4.8306,-4.8306,-4.8306,-4.8306,-4.8306,-4.8306,-4.8306,-4.8306,-4.8306,-4.8306,-4.8306,-4.8306,-4.8306,-4.8306,-4.8306,-4.8345,-4.8344,-4.8306,-4.8345,-4.8345,-4.8477,-4.888,-4.8996,-4.9123,-4.9445,-4.9532,-4.9532,-4.9504,-4.9489,-4.9518,-4.9589,-4.9936,-5.0294,-5.0673,-4.9894,-4.9029,-4.8163,-4.7327,-4.6509,-4.5633,-4.5594,-4.5594,-4.5594,-4.5594,-4.5594,-4.5594,-4.5594,-4.5429,-4.5096,-4.5096,-4.4919,-5.0462,-5.0712,-5.0789,-5.1106,-5.1798,-5.2192,-5.1375,0.0,-5.2087,-5.0943,-5.0712,-5.0712,-5.0712,-5.0712,-5.0808,-5.1125,0.0,0.0,-5.2837,-5.3837,-5.4741,-5.5415,-5.6684,0.0,0.0,0.0,0.0,0.0,0.0,0.0,-6.08,-6.08,-6.08,-6.08,-6.08,-6.08,-6.08,-6.0281,-5.9838,-5.9492,-5.8473,-5.7657,-5.6983,-5.6464,-5.603,-5.5703,-5.5703,0.0,0.0,-5.5435,-5.5237,-5.5018,-5.4264,-5.35,-5.2698,-5.1572,-5.0618,-4.975,-4.9062,-4.86,-4.8306,-4.8306,-4.8306,-4.8306,-4.8306,-4.8306,-4.8306,-4.8306,-4.8306,-4.8306,-4.8306,-4.8306,-4.8306,-4.8306,-4.8306,-4.8306,-4.8306,-4.8306,-4.8306,-4.8306,-4.8306,-4.8345,-4.8513,-4.8727,-4.8863,-4.8779,-4.898,-4.9043,-4.8813,-4.878,-4.8881,-4.9108,-4.9504,-4.9605,-4.9283,-4.8464,-4.7678,-4.7063,-4.6072,-4.5459,-4.5321,-4.5107,-4.5,-4.5,-4.5,-4.5,-4.5,-4.5,-4.4818,-4.4455,-4.4455,-4.4261,-5.0067,-5.05,-5.0712,-5.0712,-5.1298,-5.1692,0.0,0.0,-5.1673,-5.0866,-5.0712,-5.0712,-5.0712,-5.0712,-5.0712,0.0,0.0,-5.1625,-5.1865,-5.2972,-5.3837,0.0,0.0,-5.6857,0.0,-5.8723,0.0,0.0,0.0,0.0,-6.08,-6.08,-6.08,-6.08,-6.08,-6.0685,-6.0416,-5.9819,-5.9242,-5.8742,-5.7561,-5.6868,-5.6599,-5.5972,-5.5703,-5.5703,-5.5703,0.0,0.0,-5.5212,-5.4813,-5.4261,-5.3381,-5.2496,-5.1584,-5.0452,-4.9677,-4.9133,-4.8508,-4.8306,-4.8306,-4.8306,-4.8306,-4.8306,-4.8306,-4.8306,-4.8306,-4.8306,-4.8306,-4.8306,-4.8306,-4.8306,-4.8306,-4.8306,-4.8306,-4.8306,-4.8306,-4.8306,-4.8306,-4.8306,-4.8306,-4.8306,-4.8306,-4.8513,-4.864,-4.8345,-4.855,-4.8622,-4.8344,-4.8306,-4.8328,-4.8359,-4.8625,-4.8649,-4.8329,-4.7499,-4.6762,-4.6197,-4.5187,-4.4714,-4.4943,-4.4739,-4.4593,-4.4593,-4.4593,-4.4593,-4.4593,-4.4593,-4.4387,-4.4001,-4.4001,-4.3836,-4.9183,-5.0029,-5.0712,-5.0712,-5.1298,-5.1692,0.0,0.0,-5.1673,-5.0866,-5.0712,-5.0712,-5.0712,-5.0712,-5.0712,-5.0712,0.0,0.0,-5.1788,-5.1923,0.0,0.0,0.0,-5.5722,-5.5722,0.0,0.0,0.0,0.0,0.0,-6.08,-6.08,-6.08,-6.08,-6.08,-6.0396,-5.9511,-5.9492,-5.8665,-5.7041,-5.7003,-5.656,-5.5703,-5.5703,-5.5703,0.0,0.0,0.0,0.0,-5.5088,-5.4129,-5.2621,-5.2621,-5.1399,-4.9629,-4.961,-4.906,-4.8324,-4.8306,-4.8306,-4.8306,-4.8306,-4.8306,-4.8306,-4.8306,-4.8306,-4.8306,-4.8306,-4.8306,-4.8306,-4.8306,-4.8306,-4.8306,-4.8306,-4.8306,-4.8306,-4.8306,-4.8306,-4.8306,-4.8306,-4.8306,-4.8306,-4.8306,-4.8306,-4.8306,-4.8306,-4.8306,-4.8306,-4.8306,-4.8306,-4.8012,-4.7186,-4.7131,-4.7437,-4.823,-4.7499,-4.6655,-4.587,-4.5046,-4.4593,-4.4612,-4.4593,-4.4593,-4.4593,-4.4593,-4.4593,-4.4593,-4.4593,-4.4387,-4.4001,-4.4001,-4.3836,-4.8298,-4.8702,-4.9067,-4.9663,-4.999,-5.0279,-5.0616,0.0,-5.101,-5.075,-5.0712,-5.0712,-5.0712,-5.0712,-5.0712,-5.0712,-5.0712,0.0,0.0,0.0,0.0,-5.3164,-5.5203,-5.6599,0.0,0.0,0.0,0.0,0.0,0.0,-5.9088,-5.9088,-5.9338,-5.9896,-5.9915,-5.9511,-5.8684,-5.8088,-5.7541,-5.6983,-5.6406,-5.5972,-5.5703,-5.5703,-5.5554,0.0,0.0,0.0,0.0,-5.3747,-5.3089,-5.2473,-5.1083,-5.0171,-4.9537,-4.893,-4.8545,-4.8306,-4.8306,-4.8306,-4.8306,-4.8306,-4.8306,-4.8306,-4.8306,-4.8306,-4.8306,-4.8306,-4.8306,-4.8306,-4.8306,-4.8306,-4.8306,-4.8306,-4.8306,-4.8306,-4.8306,-4.8306,-4.8306,-4.8306,-4.8306,-4.8306,-4.8306,-4.8306,-4.8306,-4.8306,-4.8306,-4.8306,-4.8306,-4.781,-4.7369,-4.7131,-4.6617,-4.6157,-4.5858,-4.5597,-4.5172,-4.4606,-4.4123,-4.3943,-4.4175,-4.3974,-4.3855,-4.3855,-4.3855,-4.3855,-4.3855,-4.3855,-4.3791,-4.3662,-4.3662,-4.3614,0.0,-4.7875,-4.824,-4.8779,-4.8913,0.0,-4.9606,-4.9971,-5.0212,-5.0212,-5.0481,-5.0712,-5.0712,-5.0712,-5.0712,-5.0712,-5.0712,0.0,0.0,0.0,0.0,-5.3606,0.0,0.0,0.0,0.0,0.0,0.0,0.0,0.0,-5.83,-5.83,-5.8377,-5.855,-5.8877,-5.8646,-5.7819,-5.7272,-5.683,-5.6503,-5.5953,-5.5703,-5.5684,-5.5535,-5.5331,0.0,0.0,0.0,0.0,-5.2933,-5.2158,-5.1343,-5.0096,-4.9408,-4.904,-4.8508,-4.8306,-4.8306,-4.8306,-4.8306,-4.8306,-4.8306,-4.8306,-4.8306,-4.8306,-4.8306,-4.8306,-4.8306,-4.8306,-4.8306,-4.8306,-4.8306,-4.8306,-4.8306,-4.8306,-4.8306,-4.8306,-4.8306,-4.8306,-4.8306,-4.8306,-4.8306,-4.8306,-4.8306,-4.8306,-4.8306,-4.8306,-4.8196,-4.7902,-4.7406,-4.6874,-4.625,-4.5755,-4.5131,-4.4323,-4.4544,-4.4464,-4.386,-4.3631,-4.3597,-4.3804,-4.3614,-4.3515,-4.3515,-4.3515,-4.3515,-4.3515,-4.3515,-4.3515,-4.3515,-4.3515,-4.3515,0.0,-4.7355,-4.7952,-4.8009,-4.8009,-4.8029,-4.8086,-4.8779,0.0,-4.9394,-5.0087,-5.0712,-5.0712,-5.0712,-5.0712,-5.0712,-5.0712,0.0,0.0,-5.2,0.0,0.0,-5.4549,0.0,0.0,0.0,0.0,0.0,0.0,0.0,-5.8127,-5.8127,-5.7742,-5.6926,-5.7684,-5.7723,-5.6926,-5.6907,-5.6503,-5.5703,-5.5662,-5.5651,-5.5651,-5.5237,-5.4996,0.0,0.0,0.0,0.0,-5.2399,-5.1287,-4.9592,-4.9537,-4.9003,-4.8306,-4.8306,-4.8306,-4.8306,-4.8306,-4.8306,-4.8306,-4.8306,-4.8306,-4.8306,-4.8306,-4.8306,-4.8306,-4.8306,-4.8306,-4.8306,-4.8306,-4.8306,-4.8306,-4.8306,-4.8306,-4.8306,-4.8306,-4.8306,-4.8306,-4.8306,-4.8306,-4.8306,-4.8306,-4.8306,-4.8288,-4.8233,-4.8214,-4.7921,-4.7113,-4.6966,-4.636,-4.4856,-4.4636,-4.4305,-4.3552,-4.4176,-4.4305,-4.3551,-4.3515,-4.3515,-4.3515,-4.3515,-4.3515,-4.3515,-4.3515,-4.3515,-4.3515,-4.3515,-4.3515,-4.3515,-4.3515,-4.3515,-4.5845,0.0,-4.6355,-4.7028,-4.7173,-4.7327,0.0,-4.8779,-4.9394,-4.9394,-5.0087,-5.0712,-5.0712,-5.0712,-5.0712,-5.0712,0.0,-5.0971,-5.1788,0.0,0.0,-5.4453,-5.503,-5.5318,0.0,0.0,0.0,0.0,0.0,-5.6299,-5.6299,-5.6299,-5.6222,-5.6011,-5.6203,-5.6203,-5.6011,-5.6011,-5.5895,-5.5703,-5.5387,-5.5237,-5.5224,-5.4819,-5.411,0.0,0.0,0.0,-5.1185,-5.0558,-5.004,-4.9537,-4.8857,-4.8489,-4.8306,-4.8306,-4.8306,-4.8306,-4.8306,-4.8306,-4.8306,-4.8306,-4.8306,-4.8306,-4.8306,-4.8306,-4.8306,-4.8306,-4.8306,-4.8306,-4.8306,-4.8306,-4.8306,-4.8306,-4.8306,-4.8306,-4.8306,-4.8306,-4.8306,-4.8306,-4.8306,-4.8306,-4.8306,-4.8306,-4.8104,-4.7461,-4.7369,-4.7076,-4.6287,-4.5627,-4.5113,-4.4728,-4.4158,-4.3699,-4.3533,-4.3663,-4.3699,-4.3515,-4.3515,-4.3515,-4.3515,-4.3515,-4.3515,-4.3515,-4.3515,-4.3515,-4.3515,-4.3515,-4.3515,-4.3515,-4.3515,-4.3515,-4.5594,-4.5594,-4.571,-4.6182,-4.6297,-4.6413,-4.6855,0.0,-4.8798,-4.8798,-4.9798,-5.0712,-5.0712,-5.0991,-5.1125,0.0,-5.1337,0.0,0.0,0.0,-5.4049,-5.4453,-5.4876,0.0,0.0,0.0,0.0,0.0,0.0,-5.5703,-5.5703,-5.5703,-5.5703,-5.5703,-5.5512,-5.5512,-5.5703,-5.5512,-5.5423,-5.5423,-5.5021,-5.4629,-5.4211,-5.382,-5.3055,0.0,0.0,0.0,-5.0215,-4.9776,-4.9372,-4.8948,-4.8489,-4.8306,-4.8306,-4.8306,-4.8306,-4.8306,-4.8306,-4.8306,-4.8306,-4.8306,-4.8306,-4.8306,-4.8306,-4.8306,-4.8306,-4.8306,-4.8306,-4.8306,-4.8306,-4.8306,-4.8306,-4.8306,-4.8306,-4.8306,-4.8306,-4.8306,-4.8306,-4.8306,-4.8306,-4.8306,-4.8306,-4.7975,-4.759,-4.7168,-4.6782,-4.6269,-4.5461,-4.4984,-4.4562,-4.4195,-4.3754,-4.3515,-4.3515,-4.3515,-4.3515,-4.3515,-4.3515,-4.3515,-4.3515,-4.3515,-4.3515,-4.3515,-4.3515,-4.3515,-4.3515,-4.3515,-4.3515,-4.3515,-4.3515,-4.3515,-4.5594,-4.571,-4.5768,-4.5633,-4.5594,-4.5594,-4.5594,0.0,0.0,0.0,-4.9375,-5.0577,-5.0837,-5.1337,0.0,0.0,0.0,0.0,-5.3376,-5.351,-5.3818,-5.4434,0.0,0.0,0.0,0.0,0.0,0.0,0.0,-5.5703,-5.5703,-5.5703,-5.5662,-5.5599,-5.5282,-5.5167,-5.532,-5.511,-5.5007,-5.5007,-5.4462,-5.3804,-5.3088,-5.256,-5.188,-5.11,0.0,0.0,-4.9408,-4.9408,-4.8967,-4.8306,-4.8306,-4.8306,-4.8306,-4.8306,-4.8306,-4.8306,-4.8306,-4.8306,-4.8306,-4.8306,-4.8306,-4.8306,-4.8306,-4.8306,-4.8306,-4.8306,-4.8306,-4.8306,-4.8306,-4.8306,-4.8306,-4.8306,-4.8306,-4.8306,-4.8306,-4.8306,-4.8306,-4.8306,-4.8306,-4.8269,-4.8141,-4.7553,-4.7021,-4.6764,-4.6159,-4.5424,-4.4635,-4.4525,-4.4268,-4.357,-4.3515,-4.3515,-4.3515,-4.3515,-4.3515,-4.3515,-4.3515,-4.3515,-4.3515,-4.3515,-4.3515,-4.3515,-4.3515,-4.3515,-4.3515,-4.3515,-4.3515,-4.3515,-4.3515,-4.3515,-4.5594,-4.6144,-4.6528,-4.5787,-4.5594,-4.5594,-4.5594,-4.6374,0.0,0.0,0.0,0.0,0.0,-5.126,-5.1068,0.0,0.0,-5.3453,0.0,0.0,-5.5107,0.0,0.0,0.0,0.0,0.0,0.0,0.0,0.0,-5.5703,-5.5703,-5.5703,-5.5535,-5.5199,-5.5134,-5.4618,-5.3587,-5.4247,-5.4579,-5.4579,-5.344,-5.2822,-5.2672,-5.1563,-5.0647,-4.9874,0.0,-4.9297,-4.8508,-4.8508,-4.8416,-4.8306,-4.8306,-4.8306,-4.8306,-4.8306,-4.8306,-4.8306,-4.8306,-4.8306,-4.8306,-4.8306,-4.8306,-4.8306,-4.8306,-4.8306,-4.8306,-4.8306,-4.8306,-4.8306,-4.8306,-4.8306,-4.8306,-4.8306,-4.8306,-4.8306,-4.8306,-4.8306,-4.8306,-4.8306,-4.8306,-4.8067,-4.7388,-4.7186,-4.6636,-4.526,-4.4966,-4.4599,-4.3791,-4.3681,-4.3626,-4.3497,-4.3515,-4.3515,-4.3515,-4.3515,-4.3515,-4.3515,-4.3515,-4.3515,-4.3515,-4.3515,-4.3515,-4.3515,-4.3515,-4.3515,-4.3515,-4.3515,-4.3515,-4.3515,-4.3515,-4.3515,-4.5594,-4.5893,-4.6201,-4.6278,-4.6624,-4.6951,-4.6951,-4.7625,-4.8355,0.0,0.0,0.0,0.0,0.0,-5.2337,-5.3164,0.0,-5.2635,-5.3049,-5.3029,-5.301,0.0,0.0,0.0,0.0,0.0,0.0,0.0,0.0,0.0,-5.4357,-5.4357,-5.415,-5.376,-5.3541,-5.3044,-5.224,-5.2413,-5.2618,-5.2805,-5.2011,-5.1396,-5.0952,-5.0388,-4.9682,-4.8893,0.0,-4.8673,-4.8306,-4.8306,-4.8306,-4.8306,-4.8306,-4.8306,-4.8306,-4.8306,-4.8306,-4.8306,-4.8306,-4.8306,-4.8306,-4.8306,-4.8306,-4.8306,-4.8306,-4.8306,-4.8306,-4.8306,-4.8306,-4.8306,-4.8306,-4.8055,-4.7897,-4.821,-4.8055,-4.7897,-4.823,-4.8306,-4.8306,-4.8306,-4.7957,-4.7516,-4.7168,-4.6379,-4.5553,-4.4801,-4.4342,-4.392,-4.3551,-4.3515,-4.3515,-4.3515,-4.3515,-4.3515,-4.3515,-4.3515,-4.3515,-4.3515,-4.3515,-4.3515,-4.3515,-4.3515,-4.3515,-4.3515,-4.3515,-4.3515,-4.3515,-4.3515,-4.3515,-4.3515,-4.3515,-4.3515,-4.5594,-4.5748,-4.6067,-4.674,-4.7221,-4.7625,-4.8009,-4.8471,-4.8933,0.0,0.0,0.0,0.0,-5.1741,0.0,-5.3491,-5.2645,-5.1962,-5.2173,-5.1664,0.0,0.0,0.0,0.0,0.0,0.0,0.0,0.0,0.0,0.0,-5.3203,-5.3203,-5.2965,-5.2475,-5.2172,-5.1665,-5.0952,-5.067,-5.0781,-5.1249,-5.0761,-5.0196,-4.9592,-4.939,-4.893,-4.8306,-4.8306,-4.8306,-4.8306,-4.8306,-4.8306,-4.8306,-4.8306,-4.8306,-4.8306,-4.8306,-4.8306,-4.8306,-4.8306,-4.8306,-4.8306,-4.8306,-4.8306,-4.8306,-4.8306,-4.8306,-4.8267,-4.8132,-4.8075,-4.8075,-4.8075,-4.7635,-4.7281,-4.7738,-4.7512,-4.7342,-4.7957,-4.8075,-4.8132,-4.8267,-4.755,-4.6851,-4.6668,-4.5461,-4.4455,-4.4254,-4.3813,-4.3515,-4.3515,-4.3515,-4.3515,-4.3515,-4.3515,-4.3515,-4.3515,-4.3392,-4.3375,-4.3479,-4.3515,-4.3515,-4.3515,-4.3515,-4.3515,-4.3515,-4.3515,-4.3515,-4.3515,-4.3515,-4.3515,-4.3515,-4.3515,-4.3515,-4.5594,-4.6182,-4.6808,-4.6885,-4.6336,-4.6191,-4.7759,-4.7567,-4.7528,-4.9086,0.0,0.0,0.0,-5.0808,-5.0904,-5.0962,-5.1491,-5.2173,0.0,0.0,0.0,0.0,0.0,0.0,0.0,0.0,0.0,0.0,0.0,0.0,-5.3203,-5.3203,-5.2843,-5.2069,-5.2024,-5.1237,-4.9651,-4.9685,-5.0089,-5.0826,-5.0051,-4.9665,-4.9574,-4.8765,-4.8361,-4.8306,-4.8306,-4.8306,-4.8306,-4.8306,-4.8306,-4.8306,-4.8306,-4.8306,-4.8306,-4.8306,-4.8306,-4.8306,-4.8306,-4.8306,-4.8306,-4.8306,-4.8306,-4.8306,-4.8306,-4.8306,-4.8191,-4.7614,-4.7449,-4.7449,-4.7449,-4.6977,-4.646,-4.6524,-4.6501,-4.6664,-4.732,-4.7449,-4.7635,-4.8191,-4.7239,-4.6119,-4.5377,-4.4525,-4.371,-4.2968,-4.3214,-4.3515,-4.3515,-4.3515,-4.3515,-4.3515,-4.3515,-4.3515,-4.3515,-4.3032,-4.2976,-4.3462,-4.3515,-4.3515,-4.3515,-4.3515,-4.3515,-4.3515,-4.3515,-4.3515,-4.3515,-4.3515,-4.3515,-4.3515,-4.3515,-4.3515,-4.4778,-4.5432,-4.622,-4.6759,-4.6644,0.0,0.0,-4.8663,-4.8625,-4.926,-4.9817,0.0,0.0,0.0,-5.1279,-5.0789,0.0,0.0,0.0,0.0,0.0,0.0,0.0,0.0,0.0,0.0,0.0,0.0,0.0,0.0,0.0,-5.1645,-5.1274,-5.0476,-5.0447,-4.9894,-4.8746,-4.8783,-4.893,-4.9242,-4.893,-4.8783,-4.8783,-4.8453,-4.8306,-4.8306,-4.8306,-4.8306,-4.8306,-4.8306,-4.8306,-4.8306,-4.8306,-4.8306,-4.8306,-4.8306,-4.8306,-4.8306,-4.8306,-4.8306,-4.8306,-4.8306,-4.8306,-4.8306,-4.8306,-4.8035,-4.7677,-4.7449,-4.6819,-4.6305,-4.6664,-4.6312,-4.594,-4.6312,-4.6094,-4.6014,-4.6641,-4.6796,-4.6704,-4.6485,-4.5616,-4.47,-4.3935,-4.3129,-4.2501,-4.2195,-4.2306,-4.258,-4.2958,-4.2676,-4.2697,-4.3427,-4.3196,-4.2846,-4.2483,-4.2264,-4.2223,-4.2426,-4.2426,-4.2772,-4.3462,-4.3178,-4.316,-4.3479,-4.3515,-4.3515,-4.3515,-4.3515,-4.3515,-4.3515,-4.3515,-4.3515,-4.4701,-4.5355,-4.6201,-4.7067,0.0,0.0,-4.9029,-4.9183,-4.9144,-4.9702,-5.0067,-5.0289,-5.0289,0.0,0.0,0.0,0.0,0.0,0.0,0.0,0.0,0.0,0.0,0.0,0.0,0.0,0.0,0.0,0.0,0.0,0.0,-5.0399,-4.9999,-4.9326,-4.9311,-4.898,-4.8306,-4.8306,-4.8306,-4.8306,-4.8306,-4.8306,-4.8306,-4.8306,-4.8306,-4.8306,-4.8306,-4.8306,-4.8306,-4.8306,-4.8306,-4.8306,-4.8306,-4.8306,-4.8306,-4.8306,-4.8306,-4.8306,-4.8306,-4.8306,-4.8306,-4.8306,-4.8172,-4.8015,-4.8015,-4.7593,-4.7044,-4.6842,-4.6161,-4.5545,-4.5783,-4.5537,-4.532,-4.5732,-4.5537,-4.5381,-4.5989,-4.5925,-4.5663,-4.5351,-4.4334,-4.3328,-4.2828,-4.2044,-4.1512,-4.1512,-4.1686,-4.1958,-4.2362,-4.2059,-4.2103,-4.2884,-4.2619,-4.2262,-4.1832,-4.1621,-4.1599,-4.1789,-4.1464,-4.1771,-4.2922,-4.2617,-4.2598,-4.2959,-4.2959,-4.2959,-4.2959,-4.2959,-4.2959,-4.2959,-4.2959,-4.2959,-4.5575,-4.622,-4.7077,-4.7894,0.0,0.0,-4.9029,-4.874,-4.8606,-5.0346,-5.001,-4.9394,-4.9394,-4.9413,0.0,-4.9394,0.0,0.0,0.0,0.0,0.0,0.0,0.0,0.0,0.0,0.0,0.0,0.0,0.0,0.0,0.0,-4.9719,-4.9311,-4.8913,-4.8897,-4.871,-4.8306,-4.8306,-4.8306,-4.8306,-4.8306,-4.8306,-4.8306,-4.8306,-4.8306,-4.8306,-4.8306,-4.8306,-4.8306,-4.8306,-4.8306,-4.8306,-4.8306,-4.8306,-4.8306,-4.8306,-4.8306,-4.8306,-4.8306,-4.8306,-4.8306,-4.8306,-4.7897,-4.7406,-4.7406,-4.6932,-4.6264,-4.5673,-4.5511,-4.5346,-4.4748,-4.4615,-4.4615,-4.4615,-4.4615,-4.4759,-4.5355,-4.4905,-4.4558,-4.5152,-4.3606,-4.2181,-4.2187,-4.1463,-4.088,-4.088,-4.1402,-4.1771,-4.1771,-4.1793,-4.181,-4.1771,-4.1789,-4.1789,-4.1771,-4.1246,-4.1155,-4.1746,-4.072,-4.0618,-4.175,-4.1793,-4.1793,-4.181,-4.181,-4.181,-4.181,-4.181,-4.181,-4.181,-4.181,-4.181,-4.3662,-4.4893,-4.6182,-4.7048,0.0,0.0,0.0,-4.9202,0.0,0.0,-5.001,-4.9394,-4.9394,0.0,0.0,-4.949,0.0,0.0,0.0,0.0,0.0,0.0,0.0,0.0,0.0,0.0,0.0,0.0,0.0,0.0,0.0,-4.9719,-4.9311,-4.8913,-4.8897,-4.871,-4.8306,-4.8306,-4.8306,-4.8306,-4.8306,-4.8306,-4.8306,-4.8306,-4.8306,-4.8306,-4.8306,-4.8306,-4.8306,-4.8306,-4.8306,-4.8306,-4.8306,-4.8306,-4.8306,-4.8306,-4.8306,-4.8306,-4.8306,-4.8306,-4.8306,-4.8306,-4.7897,-4.7406,-4.7406,-4.6635,-4.5732,-4.5545,-4.5178,-4.4841,-4.4654,-4.4615,-4.4615,-4.4615,-4.4615,-4.4501,-4.4116,-4.3863,-4.3422,-4.2577,-4.1919,-4.1332,-4.0804,-4.0514,-4.0336,-4.0336,-4.049,-4.0594,-4.0594,-4.1308,-4.1508,-4.0689,-4.0943,-4.1013,-4.0642,-4.0441,-4.0417,-4.0594,-4.0303,-4.0618,-4.175,-4.1402,-4.138,-4.1789,-4.181,-4.181,-4.181,-4.181,-4.181,-4.181,-4.181,-4.181,-4.4586,-4.5586,-4.649,-4.8029,-4.8913,-4.949,-4.9837,0.0,0.0,0.0,-5.0289,-4.9913,-4.9913,-5.0346,0.0,0.0,0.0,0.0,0.0,0.0,0.0,0.0,0.0,0.0,0.0,0.0,0.0,0.0,0.0,0.0,0.0,-4.9326,-4.8897,-4.8675,-4.8657,-4.855,-4.8306,-4.8306,-4.8306,-4.8306,-4.8306,-4.8306,-4.8306,-4.8306,-4.8306,-4.8306,-4.8306,-4.8306,-4.8306,-4.8306,-4.8306,-4.8306,-4.8306,-4.8306,-4.8306,-4.8306,-4.8306,-4.8306,-4.8306,-4.8152,-4.7937,-4.7937,-4.7345,-4.6635,-4.6635,-4.5933,-4.5125,-4.5125,-4.4879,-4.4615,-4.4615,-4.4615,-4.4615,-4.4615,-4.435,-4.3995,-4.3494,-4.2936,-4.2243,-4.1373,-4.0967,-4.0612,-4.018,-4.0096,-4.0096,-4.0096,-4.0096,-4.0096,-4.0096,-4.0713,-4.0861,-4.0154,-4.0392,-4.0449,-4.0121,-4.0096,-4.0096,-4.0096,-4.0096,-4.041,-4.1099,-4.0774,-4.075,-4.1122,-4.1105,-4.1105,-4.1105,-4.1105,-4.1105,-4.1105,-4.1105,-4.1105,-4.6913,-4.7394,-4.7586,-4.9971,-5.0048,-4.9721,-5.0519,-5.0712,-5.0712,-5.0712,0.0,-5.0712,-5.0712,-5.0712,0.0,0.0,0.0,0.0,0.0,0.0,0.0,0.0,0.0,0.0,0.0,0.0,0.0,0.0,0.0,0.0,0.0,-4.871,-4.8306,-4.8306,-4.8306,-4.8306,-4.8306,-4.8306,-4.8306,-4.8306,-4.8306,-4.8306,-4.8306,-4.8306,-4.8306,-4.8306,-4.8306,-4.8306,-4.8306,-4.8306,-4.8306,-4.8306,-4.8306,-4.8306,-4.8306,-4.8306,-4.8306,-4.8287,-4.8248,-4.7877,-4.7385,-4.7342,-4.6495,-4.5511,-4.5511,-4.5062,-4.4615,-4.4615,-4.4615,-4.4615,-4.4615,-4.4564,-4.4496,-4.4496,-4.3927,-4.3358,-4.3223,-4.2168,-4.1187,-4.1119,-4.0544,-4.0096,-4.0096,-4.0096,-4.0096,-4.0096,-4.0096,-4.0096,-4.0096,-4.0096,-4.0096,-4.0096,-4.0096,-4.0096,-4.0096,-4.0096,-4.0096,-4.0096,-4.0096,-4.0096,-4.0096,-4.0096,-4.0096,-4.0096,-4.0096,-4.0096,-4.0096,-4.0096,-4.0096,-4.0096,-4.0096,-4.0096,-4.4759,-4.6451,0.0,-4.9375,-5.0048,-5.0481,-5.0654,-5.0712,-5.0712,-5.0712,-5.0712,-5.0712,-5.0712,0.0,0.0,0.0,0.0,0.0,0.0,0.0,0.0,0.0,0.0,0.0,0.0,0.0,0.0,0.0,0.0,0.0,-4.9027,-4.8586,-4.8306,-4.8306,-4.8306,-4.8306,-4.8306,-4.8306,-4.8306,0.0,-4.8306,-4.8306,-4.8306,-4.8306,-4.8306,-4.8306,-4.8306,-4.8306,-4.8306,-4.8306,-4.8306,-4.8306,-4.8306,-4.8306,-4.8306,-4.8306,-4.8306,-4.823,-4.7756,-4.7509,-4.7302,-4.6796,-4.6112,-4.5511,-4.5511,-4.5062,-4.4615,-4.4615,-4.4615,-4.4615,-4.4615,-4.413,-4.3673,-4.3673,-4.3538,-4.3071,-4.1931,-4.1424,-4.1035,-4.0468,-4.0214,-4.0096,-4.0096,-4.0096,-4.0096,-4.0096,-4.0096,-4.0096,-4.0096,-4.0096,-4.0096,-4.0096,-4.0096,-4.0096,-4.0096,-4.0096,-4.0096,-4.0096,-4.0096,-4.0096,-4.0096,-4.0096,-4.0096,-4.0096,-4.0096,-4.0096,-4.0096,-4.0096,-4.0096,-4.0096,-4.0096,-4.0096,-4.5336,-4.6509,0.0,-4.949,0.0,-5.0712,-5.0712,-5.0712,-5.0712,-5.0712,-5.0712,-5.0712,0.0,0.0,0.0,0.0,0.0,0.0,0.0,0.0,0.0,0.0,0.0,0.0,0.0,0.0,0.0,0.0,0.0,-4.8897,-4.8897,-4.8513,-4.8306,-4.8306,-4.8306,-4.8306,-4.8306,-4.8306,-4.8306,-4.8306,-4.8306,-4.8306,-4.8306,-4.8306,-4.8306,-4.8306,-4.8306,-4.8306,-4.8306,-4.8306,-4.8306,-4.8306,-4.8306,-4.8114,-4.7877,-4.7877,-4.7677,-4.7345,-4.7021,-4.6728,-4.6448,-4.6088,-4.5545,-4.5062,-4.5062,-4.4841,-4.4615,-4.4615,-4.4615,-4.4513,-4.413,-4.3724,-4.3206,-4.2496,-4.2371,-4.2151,-4.1373,-4.0916,-4.0544,-4.018,-4.0096,-4.0096,-4.0096,-4.0096,-4.0096,-4.0096,-4.0096,-4.0096,-4.0096,-4.0096,-4.0096,-4.0096,-4.0096,-4.0096,-4.0096,-4.0096,-4.0096,-4.0096,-4.0096,-4.0096,-4.0096,-4.0096,-4.0096,-4.0096,-4.0096,-4.0096,-4.0096,-4.0096,-4.0096,-4.0096,-4.0096,-4.0096,-4.6297,-4.6855,-4.698,-4.9962,-5.0712,0.0,-5.0712,-5.0712,-5.0712,-5.0712,-5.0712,0.0,0.0,0.0,0.0,0.0,0.0,0.0,0.0,0.0,0.0,0.0,0.0,0.0,0.0,0.0,0.0,0.0,0.0,-4.8796,-4.8796,-4.8477,-4.8306,-4.8306,-4.8306,-4.8306,-4.8306,-4.8306,-4.8306,-4.8306,-4.8306,-4.8306,-4.8306,-4.8306,-4.8306,-4.8306,-4.8306,-4.8306,-4.8306,-4.8306,-4.8306,-4.8306,-4.8306,-4.7937,-4.7406,-4.7406,-4.6977,-4.6383,-4.6288,-4.5915,-4.5485,-4.5399,-4.4998,-4.4615,-4.4615,-4.4615,-4.4581,-4.4418,-4.4384,-4.4198,-4.3436,-4.3105,-4.2699,-4.1491,-4.1102,-4.1018,-4.1018,-4.0536,-4.0096,-4.0096,-4.0096,-4.0096,-4.0096,-4.0096,-4.0096,-4.0096,-4.0096,-4.0096,-4.0096,-4.0096,-4.0096,-4.0096,-4.0096,-4.0096,-4.0096,-4.0096,-4.0096,-4.0096,-4.0096,-4.0096,-4.0096,-4.0096,-4.0096,-4.0096,-4.0096,-4.0096,-4.0096,-4.0096,-4.0096,-4.0096,-4.0096,-4.0096,-4.4624,0.0,-4.9183,0.0,-5.0712,-5.0712,0.0,0.0,-5.0712,0.0,0.0,0.0,0.0,0.0,0.0,0.0,0.0,0.0,0.0,0.0,0.0,0.0,0.0,0.0,0.0,0.0,0.0,0.0,-4.883,-4.8383,-4.8383,-4.8344,-4.8306,-4.8306,-4.8306,-4.8306,-4.8306,-4.8306,-4.8306,-4.8306,-4.8306,-4.8306,-4.8306,-4.8306,-4.8306,-4.8306,-4.8306,-4.8306,-4.8306,-4.8306,-4.8306,-4.8306,-4.8306,-4.7937,-4.7406,-4.7406,-4.6977,-4.6336,-4.5808,-4.5571,-4.5407,-4.4879,-4.4682,-4.4615,-4.4615,-4.4615,-4.4462,-4.3775,-4.3572,-4.3403,-4.2642,-4.1965,-4.1441,-4.1255,-4.0696,-4.0248,-4.0248,-4.018,-4.0096,-4.0096,-4.0096,-4.0096,-4.0096,-4.0096,-4.0096,-4.0096,-4.0096,-4.0096,-4.0096,-4.0096,-4.0096,-4.0096,-4.0096,-4.0096,-4.0096,-4.0096,-4.0096,-4.0096,-4.0096,-4.0096,-4.0096,-4.0096,-4.0096,-4.0096,-4.0096,-4.0096,-4.0096,-4.0096,-4.0096,-4.0096,-4.0096,-4.0096,-4.524,-4.7548,-4.9558,0.0,-5.0358,-5.0294,-5.008,0.0,-5.0092,-5.0325,0.0,0.0,0.0,0.0,0.0,0.0,0.0,0.0,0.0,0.0,0.0,0.0,0.0,0.0,0.0,0.0,0.0,0.0,-4.8763,-4.8306,-4.8306,-4.8306,-4.8306,-4.8306,-4.8306,-4.8306,-4.8306,-4.8306,-4.8306,-4.8306,-4.8306,-4.8306,-4.8306,-4.8306,-4.8306,-4.8306,-4.8306,-4.8306,-4.8306,-4.8306,-4.8306,-4.8267,-4.7917,-4.7388,-4.6796,-4.6472,-4.5933,-4.5346,-4.5089,-4.4998,-4.4944,-4.4709,-4.4615,-4.453,-4.4062,-4.3927,-4.3775,-4.2997,-4.2777,-4.2608,-4.188,-4.1441,-4.1102,-4.0679,-4.035,-4.0096,-4.0096,-4.0096,-4.0096,-4.0096,-4.0096,-4.0096,-4.0096,-4.0096,-4.0096,-4.0096,-4.0096,-4.0096,-4.0096,-4.0096,-4.0096,-4.0096,-4.0096,-4.0096,-4.0096,-4.0096,-4.0096,-4.0096,-4.0096,-4.0096,-4.0096,-4.0096,-4.0096,-4.0096,-4.0096,-4.0096,-4.0096,-4.0096,-4.0096,-4.0096,-4.0096,-4.0096,0.0,0.0,-4.8923,-4.9591,-4.9768,-4.972,0.0,0.0,-4.9594,0.0,0.0,0.0,0.0,0.0,0.0,0.0,0.0,0.0,0.0,0.0,0.0,0.0,0.0,0.0,0.0,0.0,0.0,0.0,-4.8692,-4.8306,-4.8306,-4.8306,-4.8306,-4.8306,-4.8306,-4.8306,-4.8306,-4.8306,-4.8306,-4.8306,-4.8306,-4.8306,-4.8306,-4.8306,-4.8306,-4.8306,-4.8306,-4.8306,-4.8306,-4.8306,-4.8306,-4.823,-4.7653,-4.6999,-4.6336,-4.5707,-4.5115,-4.4581,-4.4378,-4.4282,-4.4248,-4.409,-4.4022,-4.3904,-4.3301,-4.3132,-4.298,-4.2219,-4.2016,-4.1847,-4.1102,-4.0916,-4.0781,-4.0231,-4.0096,-4.0096,-4.0096,-4.0096,-4.0096,-4.0096,-4.0096,-4.0096,-4.0096,-4.0096,-4.0096,-4.0096,-4.0096,-4.0096,-4.0096,-4.0096,-4.0096,-4.0096,-4.0096,-4.0096,-4.0096,-4.0096,-4.0096,-4.0096,-4.0096,-4.0096,-4.0096,-4.0096,-4.0096,-4.0096,-4.0096,-4.0096,-4.0096,-4.0096,-4.0096,-4.0096,-4.0096,-4.0096,0.0,-4.6962,0.0,-4.8568,-4.8879,0.0,0.0,0.0,0.0,0.0,0.0,0.0,0.0,0.0,0.0,0.0,0.0,0.0,0.0,0.0,0.0,0.0,0.0,0.0,0.0,0.0,0.0,0.0,-4.855,-4.8306,-4.8306,-4.8306,-4.8306,-4.8306,-4.8306,-4.8306,-4.8306,-4.8306,-4.8306,-4.8306,-4.8306,-4.8306,-4.8306,-4.8306,-4.8306,-4.8306,-4.8306,-4.8306,-4.8306,-4.8306,-4.8306,-4.823,-4.7653,-4.6999,-4.6336,-4.5707,-4.5115,-4.4496,-4.3741,-4.3443,-4.3341,-4.2642,-4.2405,-4.2405,-4.2354,-4.2354,-4.2202,-4.1457,-4.1271,-4.1085,-4.0367,-4.0163,-4.0146,-4.0113,-4.0096,-4.0096,-4.0096,-4.0096,-4.0096,-4.0096,-4.0096,-4.0096,-4.0096,-4.0096,-4.0096,-4.0096,-4.0096,-4.0096,-4.0096,-4.0096,-4.0096,-4.0096,-4.0096,-4.0096,-4.0096,-4.0096,-4.0096,-4.0096,-4.0096,-4.0096,-4.0096,-4.0096,-4.0096,-4.0096,-4.0096,-4.0096,-4.0096,-4.0096,-4.0096,-4.0096,-4.0096,-4.0096,0.0,0.0,0.0,-4.7793,-4.8194,-4.8399,-4.8362,-4.8543,0.0,0.0,0.0,0.0,0.0,0.0,0.0,0.0,0.0,0.0,0.0,0.0,0.0,0.0,0.0,0.0,0.0,0.0,0.0,0.0,0.0,-4.8306,-4.8306,-4.8306,-4.8306,-4.8306,-4.8306,-4.8306,-4.8306,-4.8306,-4.8306,-4.8306,-4.8306,-4.8306,-4.8306,-4.8306,-4.8075,-4.7736,-4.7736,-4.7937,-4.8267,-4.7877,-4.7736,-4.7614,-4.6571,-4.6039,-4.5705,-4.4576,-4.4011,-4.3724,-4.2963,-4.2692,-4.2642,-4.2388,-4.2286,-4.2202,-4.1728,-4.1593,-4.1441,-4.0696,-4.0476,-4.0434,-4.018,-4.0096,-4.0096,-4.0096,-4.0096,-4.0096,-4.0096,-4.0096,-4.0096,-4.0096,-4.0096,-4.0096,-4.0096,-4.0096,-4.0096,-4.0096,-4.0096,-4.0096,-4.0096,-4.0096,-4.0096,-4.0096,-4.0096,-4.0096,-4.0096,-4.0096,-4.0096,-4.0096,-4.0096,-3.9876,-3.9342,-3.9342,-3.9102,-3.8624,-3.8624,-3.9119,-4.0096,-3.9568,-3.9342,-3.9315,-3.8843,-3.8624,-4.5927,0.0,0.0,0.0,0.0,-4.7423,-4.7478,0.0,0.0,0.0,0.0,0.0,0.0,0.0,0.0,0.0,0.0,0.0,0.0,0.0,0.0,0.0,0.0,0.0,0.0,0.0,0.0,0.0,0.0,0.0,-4.8306,-4.8306,-4.8306,-4.8306,-4.8306,-4.8306,-4.8306,-4.8306,-4.8306,-4.8306,-4.8306,-4.8306,-4.8306,-4.8306,-4.7957,-4.7406,-4.7406,-4.7491,-4.7617,-4.7237,-4.7066,-4.6937,-4.5635,-4.5113,-4.4949,-4.3554,-4.3047,-4.2929,-4.2185,-4.1931,-4.188,-4.1653,-4.1568,-4.1484,-4.0984,-4.0832,-4.073,-4.0248,-4.0096,-4.0096,-4.0096,-4.0096,-4.0096,-4.0096,-4.0096,-4.0096,-4.0096,-4.0096,-4.0096,-4.0096,-4.0096,-4.0096,-4.0096,-4.0096,-4.0096,-4.0096,-4.0096,-4.0096,-4.0096,-4.0096,-3.9995,-3.9731,-3.9705,-3.9584,-3.9332,-3.9332,-3.9332,-3.9332,-3.9332,-3.9076,-3.8553,-3.8525,-3.8302,-3.7822,-3.7793,-3.829,-3.9332,-3.8789,-3.8525,-3.8525,-3.8035,-3.7661,0.0,0.0,0.0,0.0,0.0,0.0,-4.6836,0.0,0.0,0.0,0.0,0.0,0.0,0.0,0.0,0.0,0.0,0.0,0.0,0.0,0.0,0.0,0.0,0.0,0.0,0.0,0.0,0.0,-4.8306,-4.8306,-4.8306,-4.8306,-4.8306,-4.8306,-4.8306,-4.8306,-4.8306,-4.8306,-4.8306,-4.8306,-4.8306,-4.8287,-4.8267,-4.8267,-4.7937,-4.7342,-4.7324,-4.6919,-4.6324,-4.6324,-4.6348,-4.6206,-4.4868,-4.4341,-4.4154,-4.2771,-4.2252,-4.2151,-4.1424,-4.117,-4.1052,-4.0333,-4.0096,-4.0096,-4.0096,-4.0096,-4.0096,-4.0096,-4.0096,-4.0096,-4.0096,-4.0096,-4.0096,-4.0096,-4.0096,-4.0096,-4.0096,-4.0096,-4.0096,-4.0096,-4.0096,-4.0096,-4.007,-4.007,-4.0096,-4.007,-4.007,-4.007,-4.007,-4.0045,-3.9731,-3.8935,-3.8881,-3.858,-3.7863,-3.7793,-3.7793,-3.7793,-3.7793,-3.7777,-3.7764,-3.7748,-3.7748,-3.7735,-3.7735,-3.7735,-3.7735,-3.7748,-3.7748,-3.7748,-3.7719,-3.7308,-4.5061,0.0,0.0,0.0,0.0,0.0,0.0,0.0,0.0,0.0,0.0,0.0,0.0,0.0,0.0,0.0,0.0,0.0,0.0,0.0,0.0,0.0,0.0,0.0,0.0,0.0,0.0,0.0,-4.8306,-4.8306,-4.8306,-4.8306,-4.8306,-4.8306,-4.8306,-4.8306,-4.8306,-4.8306,-4.8306,-4.8306,-4.8306,-4.8075,-4.7635,-4.7635,-4.7062,-4.5996,-4.5442,-4.4846,-4.4258,-4.4763,-4.4945,-4.4826,-4.3417,-4.2875,-4.2764,-4.1841,-4.1508,-4.1407,-4.0646,-4.0417,-4.0383,-4.018,-4.0096,-4.0096,-4.0096,-4.0096,-4.0096,-4.0096,-4.0096,-4.0096,-4.0096,-4.0096,-4.0096,-4.0096,-4.0096,-4.0096,-4.0096,-4.0096,-4.0096,-4.0096,-4.0096,-3.9927,-3.9342,-3.9714,-3.9901,-3.9315,-3.9236,-3.9236,-3.9236,-3.8761,-3.8346,-3.8121,-3.8121,-3.8035,-3.7822,-3.7793,-3.7793,-3.7793,-3.7793,-3.7544,-3.698,-3.6934,-3.6692,-3.6148,-3.6148,-3.6148,-3.6148,-3.6661,-3.6934,-3.6919,-3.6384,-3.6022,0.0,0.0,0.0,0.0,0.0,0.0,-4.5377,-4.6165,-4.6965,0.0,0.0,0.0,0.0,0.0,0.0,0.0,0.0,0.0,0.0,0.0,0.0,0.0,0.0,0.0,0.0,-4.8439,-4.8306,-4.8306,-4.8306,-4.8306,-4.8306,-4.8306,-4.8306,-4.8306,-4.8306,-4.8306,-4.8306,-4.8306,-4.8306,-4.8287,-4.8055,-4.7736,-4.7385,-4.7106,-4.6253,-4.5034,-4.4584,-4.3838,-4.2956,-4.3031,-4.3245,-4.34,-4.2285,-4.183,-4.1745,-4.1001,-4.073,-4.0679,-4.0248,-4.0096,-4.0096,-4.0096,-4.0096,-4.0096,-4.0096,-4.0096,-4.0096,-4.0096,-4.0096,-4.0096,-4.0096,-4.0096,-4.0096,-4.0096,-4.0096,-4.0096,-4.0096,-3.9833,-3.961,-3.961,-3.961,-3.9342,-3.858,-3.8816,-3.8995,-3.8497,-3.8442,-3.8442,-3.8442,-3.8064,-3.7661,-3.7338,-3.7308,-3.716,-3.686,-3.6829,-3.6829,-3.6829,-3.6829,-3.6631,-3.6165,-3.6134,-3.5943,-3.5504,-3.5504,-3.5504,-3.5504,-3.5911,-3.6134,-3.6149,-3.5701,-3.5504,0.0,0.0,0.0,0.0,0.0,0.0,-4.5367,-4.5926,-4.6524,-4.7665,0.0,0.0,0.0,0.0,0.0,0.0,0.0,0.0,0.0,0.0,0.0,0.0,0.0,0.0,-4.8306,-4.8306,-4.8306,-4.8306,-4.8306,-4.8306,-4.8306,-4.8306,-4.8306,-4.8306,-4.8306,-4.8306,-4.8306,-4.823,-4.8191,-4.8191,-4.7593,-4.7223,-4.7046,-4.6447,-4.5428,-4.4154,-4.4067,-4.3314,-4.2117,-4.1373,-4.1508,-4.21,-4.1373,-4.1085,-4.1001,-4.035,-4.0096,-4.0096,-4.0096,-4.0096,-4.0096,-4.0096,-4.0096,-4.0096,-4.0096,-4.0096,-4.0096,-4.0096,-4.0096,-4.0096,-4.0096,-4.0096,-4.007,-3.9995,-3.9969,-3.9952,-3.9876,-3.9289,-3.8745,-3.8646,-3.8718,-3.8553,-3.7806,-3.7719,-3.7764,-3.769,-3.7661,-3.7661,-3.7661,-3.7589,-3.7279,-3.6554,-3.6477,-3.6228,-3.5554,-3.5504,-3.5504,-3.5504,-3.5504,-3.5504,-3.5504,-3.5504,-3.5504,-3.5504,-3.5504,-3.5504,-3.5504,-3.5504,-3.5504,-3.5504,-3.5504,-3.5504,0.0,0.0,0.0,0.0,0.0,0.0,-4.3918,-4.4522,-4.5091,0.0,0.0,0.0,0.0,0.0,0.0,0.0,0.0,0.0,0.0,0.0,0.0,0.0,0.0,0.0,-4.8306,-4.8306,-4.8306,-4.8306,-4.8306,-4.8306,-4.8306,-4.8306,-4.8306,-4.8306,-4.8306,-4.8306,-4.8306,-4.7818,-4.7572,-4.7572,-4.691,-4.6041,-4.4981,-4.4858,-4.4034,-4.2694,-4.2073,-4.1672,-4.1356,-4.0637,-4.0747,-4.1339,-4.062,-4.0316,-4.0316,-4.0146,-4.0096,-4.0096,-4.0096,-4.0096,-4.0096,-4.0096,-4.0096,-4.0096,-4.0096,-4.0096,-4.0096,-4.0096,-4.0096,-4.0096,-4.0096,-4.0096,-3.9927,-3.9289,-3.9139,-3.8978,-3.8374,-3.8121,-3.7819,-3.7158,-3.7587,-3.7761,-3.6964,-3.7368,-3.7573,-3.6934,-3.6813,-3.6813,-3.6813,-3.6337,-3.5878,-3.5733,-3.5701,-3.5651,-3.5504,-3.5504,-3.5504,-3.5504,-3.5504,-3.5504,-3.5504,-3.5504,-3.5504,-3.5504,-3.5504,-3.5504,-3.5504,-3.5504,-3.5504,-3.5504,-3.5504,-3.5504,0.0,0.0,0.0,-4.3515,0.0,0.0,0.0,-4.4415,-4.4801,-4.5223,0.0,0.0,0.0,0.0,0.0,0.0,0.0,0.0,0.0,0.0,0.0,0.0,0.0,0.0,-4.8306,-4.8306,-4.8306,-4.8306,-4.8306,-4.8306,-4.8306,-4.8306,-4.8306,-4.8306,-4.8306,-4.8306,-4.8306,-4.7715,-4.7226,-4.6829,-4.5864,-4.4855,-4.3846,-4.3511,-4.2774,-4.1728,-4.1373,-4.0984,-4.0612,-4.0265,-4.0333,-4.0595,-4.0248,-4.0096,-4.0096,-4.0096,-4.0096,-4.0096,-4.0096,-4.0096,-4.0096,-4.0096,-4.0096,-4.0096,-4.0096,-4.0096,-4.0096,-4.0096,-4.0096,-4.002,-3.961,-3.9489,-3.9305,-3.8525,-3.8358,-3.8246,-3.7863,-3.7485,-3.7084,-3.6676,-3.6631,-3.6508,-3.6117,-3.6399,-3.6508,-3.6117,-3.6054,-3.6054,-3.6054,-3.5733,-3.5504,-3.5504,-3.5504,-3.5504,-3.5504,-3.5504,-3.5504,-3.5504,-3.5504,-3.5504,-3.5504,-3.5504,-3.5504,-3.5504,-3.5504,-3.5504,-3.5504,-3.5504,-3.5504,-3.5504,-3.5504,-3.5504,0.0,0.0,0.0,0.0,0.0,-4.3663,0.0,0.0,0.0,0.0,0.0,0.0,0.0,0.0,0.0,0.0,0.0,0.0,0.0,0.0,0.0,0.0,0.0,0.0,0.0,-4.8086,-4.8141,-4.8306,-4.8159,-4.8141,-4.8306,-4.8306,-4.8306,-4.8306,-4.8159,-4.8086,-4.8086,-4.7213,-4.6482,-4.5852,-4.4598,-4.3611,-4.2861,-4.2355,-4.1677,-4.0984,-4.0984,-4.0646,-4.0096,-4.0096,-4.0096,-4.0096,-4.0096,-4.0096,-4.0096,-4.0096,-4.0096,-4.0096,-4.0096,-4.0096,-4.0096,-4.0096,-4.0096,-4.0096,-4.0096,-4.0096,-4.007,-3.9901,-3.9876,-3.9705,-3.8881,-3.869,-3.8497,-3.7748,-3.7573,-3.7515,-3.7383,-3.6844,-3.6384,-3.6384,-3.5926,-3.5504,-3.5504,-3.5504,-3.5504,-3.5504,-3.5504,-3.5504,-3.5504,-3.5504,-3.5504,-3.5504,-3.5504,-3.5504,-3.5504,-3.5504,-3.5504,-3.5504,-3.5504,-3.5504,-3.5504,-3.5504,-3.5504,-3.5504,-3.5504,-3.5504,-3.5504,-3.5504,-3.5504,-3.5504,-3.5504,-3.5504,0.0,0.0,0.0,0.0,-4.3515,0.0,0.0,0.0,-4.3644,-4.3736,0.0,0.0,0.0,0.0,0.0,0.0,0.0,0.0,0.0,0.0,0.0,0.0,0.0,0.0,0.0,-4.7241,-4.7516,-4.8251,-4.7626,-4.7553,-4.8269,-4.8306,-4.8306,-4.8306,-4.7608,-4.7241,-4.7241,-4.5408,-4.4414,-4.4343,-4.3114,-4.2147,-4.1452,-4.1348,-4.0916,-4.0231,-4.0231,-4.018,-4.0096,-4.0096,-4.0096,-4.0096,-4.0096,-4.0096,-4.0096,-4.0096,-4.0096,-4.0096,-4.0096,-4.0096,-4.0096,-4.0096,-4.0096,-4.0096,-4.0096,-4.0096,-3.9952,-3.9236,-3.9032,-3.8854,-3.8121,-3.7921,-3.7719,-3.6934,-3.6737,-3.6569,-3.591,-3.5668,-3.5619,-3.5619,-3.5554,-3.5504,-3.5504,-3.5504,-3.5504,-3.5504,-3.5504,-3.5504,-3.5504,-3.5504,-3.5504,-3.5504,-3.5504,-3.5504,-3.5504,-3.5504,-3.5504,-3.5504,-3.5504,-3.5504,-3.5504,-3.5504,-3.5504,-3.5504,-3.5504,-3.5504,-3.5504,-3.5504,-3.5504,-3.5504,-3.5504,-3.5504,0.0,0.0,0.0,0.0,0.0,0.0,-4.3625,0.0,-4.3369,0.0,0.0,0.0,0.0,0.0,0.0,0.0,-4.2561,0.0,0.0,0.0,0.0,0.0,0.0,0.0,0.0,0.0,0.0,0.0,-4.7975,-4.7603,-4.7145,-4.7145,-4.6767,-4.5951,-4.5588,-4.5425,-4.5425,-4.4221,-4.3413,-4.2993,-4.2099,-4.1271,-4.0544,-4.0544,-4.0375,-4.0096,-4.0096,-4.0096,-4.0096,-4.0096,-4.0096,-4.0096,-4.0096,-4.0096,-4.0096,-4.0096,-4.0096,-4.0096,-4.0096,-4.0096,-4.002,-3.9558,-3.9394,-3.9315,-3.8914,-3.8778,-3.8695,-3.8374,-3.8246,-3.8076,-3.7293,-3.7084,-3.6919,-3.6149,-3.5943,-3.5863,-3.5569,-3.5504,-3.5504,-3.5504,-3.5504,-3.5504,-3.5504,-3.5504,-3.5504,-3.5504,-3.5504,-3.5504,-3.5504,-3.5504,-3.5504,-3.5504,-3.5504,-3.5504,-3.5504,-3.5504,-3.5504,-3.5504,-3.5504,-3.5504,-3.5504,-3.5504,-3.5504,-3.5504,-3.5504,-3.5213,-3.461,-3.461,-3.4361,-3.3837,-3.4953,-3.518,-4.4189,0.0,0.0,0.0,0.0,0.0,0.0,0.0,0.0,0.0,0.0,0.0,0.0,0.0,0.0,0.0,0.0,-4.1699,0.0,0.0,0.0,0.0,0.0,0.0,0.0,0.0,0.0,-4.7088,-4.7088,-4.669,-4.578,-4.5702,-4.5262,-4.4219,-4.3984,-4.386,-4.386,-4.3051,-4.2371,-4.1851,-4.1204,-4.0612,-4.0096,-4.0096,-4.0096,-4.0096,-4.0096,-4.0096,-4.0096,-4.0096,-4.0096,-4.0096,-4.0096,-4.0096,-4.0096,-4.0096,-4.0096,-4.0096,-4.0096,-3.9952,-3.9662,-3.9086,-3.8772,-3.8497,-3.795,-3.7793,-3.7748,-3.7544,-3.7485,-3.7279,-3.6508,-3.6306,-3.6165,-3.5651,-3.5504,-3.5504,-3.5504,-3.5504,-3.5504,-3.5504,-3.5504,-3.5504,-3.5504,-3.5504,-3.5504,-3.5504,-3.5504,-3.5504,-3.5504,-3.5504,-3.5504,-3.5504,-3.5504,-3.5504,-3.5504,-3.5504,-3.5504,-3.5504,-3.5246,-3.51,-3.51,-3.4839,-3.4706,-3.4706,-3.4706,-3.4341,-3.3636,-3.3636,-3.3276,-3.2629,-3.4056,-3.4293,0.0,0.0,0.0,-4.3699,0.0,0.0,0.0,0.0,-4.2323,0.0,0.0,0.0,0.0,0.0,0.0,0.0,0.0,0.0,0.0,0.0,0.0,0.0,0.0,0.0,0.0,0.0,0.0,-4.4019,-4.4034,-4.4119,-4.4245,-4.4276,-4.4259,-4.4201,-4.3434,-4.3044,-4.3044,-4.1683,-4.0972,-4.0955,-4.0377,-4.013,-4.0096,-4.0096,-4.0096,-4.0096,-4.0096,-4.0096,-4.0096,-4.0096,-4.0096,-4.0096,-4.0096,-4.0096,-4.0096,-4.0096,-4.0096,-4.0096,-4.0096,-3.9584,-3.8935,-3.8908,-3.8414,-3.7835,-3.7822,-3.7793,-3.7632,-3.6859,-3.6646,-3.6477,-3.5733,-3.5537,-3.5537,-3.5504,-3.5504,-3.5504,-3.5504,-3.5504,-3.5504,-3.5504,-3.5504,-3.5504,-3.5504,-3.5504,-3.5504,-3.5504,-3.5504,-3.5504,-3.5504,-3.5504,-3.5504,-3.5504,-3.5504,-3.5504,-3.5504,-3.5504,-3.5504,-3.5504,-3.4576,-3.4061,-3.4061,-3.3171,-3.2713,-3.2713,-3.2713,-3.2678,-3.2629,-3.2629,-3.2629,-3.2593,-3.2664,-3.2678,0.0,0.0,-4.5957,-4.4635,0.0,0.0,0.0,0.0,0.0,0.0,0.0,0.0,0.0,0.0,0.0,0.0,0.0,0.0,0.0,0.0,0.0,0.0,0.0,0.0,0.0,0.0,0.0,-4.3888,-4.4032,-4.3744,-4.2923,-4.2882,-4.2451,-4.1512,-4.1213,-4.1075,-4.1075,-4.061,-4.0368,-4.0368,-4.0179,-4.0096,-4.0096,-4.0096,-4.0096,-4.0096,-4.0096,-4.0096,-4.0096,-4.0096,-4.0096,-4.0096,-4.0096,-4.0096,-4.0096,-4.0096,-3.9756,-3.9236,-3.875,-3.8402,-3.8076,-3.7571,-3.7217,-3.6919,-3.643,-3.629,-3.6227,-3.5958,-3.5863,-3.5799,-3.5554,-3.5504,-3.5504,-3.5504,-3.5504,-3.5504,-3.5504,-3.5504,-3.5504,-3.5504,-3.5504,-3.5504,-3.5504,-3.5504,-3.5504,-3.5504,-3.5504,-3.5504,-3.5504,-3.5504,-3.5504,-3.5504,-3.5504,-3.5504,-3.5504,-3.4872,-3.4259,-3.3616,-3.3241,-3.3066,-3.3066,-3.2784,-3.2593,-3.2593,-3.2593,-3.2285,-3.1669,-3.1669,-3.1365,-3.0746,-3.0746,-3.1095,-4.6397,-4.6709,0.0,-4.5461,-4.5296,0.0,-4.3149,0.0,0.0,0.0,0.0,0.0,0.0,0.0,0.0,0.0,0.0,0.0,0.0,-3.8546,0.0,0.0,0.0,0.0,0.0,0.0,-4.2074,-4.2386,-4.2564,-4.2288,0.0,0.0,-4.1045,-4.0138,-4.0096,-4.0096,-4.0096,-4.0096,-4.0096,-4.0096,-4.0096,-4.0096,-4.0096,-4.0096,-4.0096,-4.0096,-4.0096,-4.0096,-4.0096,-4.0096,-4.0096,-4.007,-3.9782,-3.9662,-3.9662,-3.9662,-3.9183,-3.8442,-3.795,-3.7602,-3.7308,-3.6768,-3.6415,-3.6117,-3.5636,-3.5504,-3.5459,-3.5205,-3.531,-3.5444,-3.5205,-3.5325,-3.5504,-3.5504,-3.5504,-3.5504,-3.5504,-3.5504,-3.5504,-3.5504,-3.5504,-3.5504,-3.5504,-3.5504,-3.5504,-3.5504,-3.5504,-3.5504,-3.5504,-3.518,-3.4953,-3.4953,-3.4673,-3.4457,-3.4457,-3.3856,-3.3241,-3.2629,-3.2285,-3.2105,-3.2105,-3.1792,-3.1586,-3.1586,-3.1586,-3.1304,-3.0696,-3.0696,-3.0381,-2.9792,-2.9792,-3.0101]},{"header":{"parameterUnit":"m.s-1","parameterCategory":1,"la1":30.6,"la2":29.2853,"lo1":-89.7004,"lo2":-87.6739,"dy":0.0162,"dx":0.0183,"nx":112,"ny":82,"refTime":"2023-08-14T12:00:00:Z","depth":0,"parameterNumber":3,"parameterNumberName":"V-component_of_WINDS"},"data":[0.0,0.0,0.0,0.0,0.0,0.0,0.0,0.0,0.0,0.0,0.0,0.0,0.0,0.0,0.0,0.0,0.0,0.0,0.0,0.0,0.0,0.0,0.0,0.0,0.0,0.0,0.0,0.0,0.0,0.0,0.0,0.0,0.0,0.0,0.0,0.0,0.0,0.0,0.0,0.0,0.0,0.0,0.0,0.0,0.0,0.0,0.0,0.0,0.0,0.0,0.0,0.0,0.0,0.0,0.0,0.0,0.0,0.0,0.0,0.0,0.0,0.0,0.0,0.0,0.0,0.0,0.0,0.0,0.0,0.0,0.0,0.0,0.0,0.0,0.0,0.0,0.0,0.0,0.0,0.0,0.0,0.0,0.0,0.0,0.0,0.0,0.0,0.0,0.0,0.0,0.0,0.0,0.0,0.0,0.0,0.0,0.0,0.0,0.0,0.0,0.0,0.0,0.0,0.0,0.0,0.0,0.0,0.0,0.0,0.0,0.0,0.0,0.0,0.0,0.0,0.0,0.0,0.0,0.0,0.0,0.0,0.0,0.0,0.0,0.0,0.0,0.0,0.0,0.0,0.0,0.0,0.0,0.0,0.0,0.0,0.0,0.0,0.0,0.0,0.0,0.0,0.0,0.0,0.0,0.0,0.0,0.0,0.0,0.0,0.0,0.0,0.0,0.0,0.0,0.0,0.0,0.0,0.0,0.0,0.0,0.0,0.0,0.0,0.0,0.0,0.0,0.0,0.0,0.0,0.0,0.0,0.0,0.0,0.0,0.0,0.0,0.0,0.0,0.0,0.0,0.0,0.0,0.0,0.0,0.0,0.0,0.0,0.0,0.0,0.0,0.0,0.0,0.0,0.0,0.0,0.0,0.0,0.0,0.0,0.0,0.0,0.0,0.0,0.0,0.0,0.0,0.0,0.0,0.0,0.0,0.0,0.0,0.0,0.0,0.0,0.0,0.0,0.0,0.0,0.0,0.0,0.0,0.0,0.0,0.0,0.0,0.0,0.0,0.0,0.0,0.0,0.0,0.0,0.0,0.0,0.0,0.0,0.0,0.0,0.0,0.0,0.0,0.0,0.0,0.0,0.0,0.0,0.0,0.0,0.0,0.0,0.0,0.0,0.0,0.0,0.0,0.0,0.0,0.0,0.0,0.0,0.0,0.0,0.0,0.0,0.0,0.0,0.0,0.0,0.0,0.0,0.0,0.0,0.0,0.0,0.0,0.0,0.0,0.0,0.0,0.0,0.0,0.0,0.0,0.0,0.0,0.0,0.0,0.0,0.0,0.0,0.0,0.0,0.0,0.0,0.0,0.0,0.0,0.0,0.0,0.0,0.0,0.0,0.0,0.0,0.0,0.0,0.0,0.0,0.0,0.0,0.0,0.0,0.0,0.0,0.0,0.0,0.0,0.0,0.0,0.0,0.0,0.0,0.0,0.0,0.0,0.0,0.0,0.0,0.0,0.0,0.0,0.0,0.0,0.0,0.0,0.0,0.0,0.0,0.0,0.0,0.0,0.0,0.0,0.0,0.0,0.0,0.0,0.0,0.0,0.0,0.0,0.0,0.0,0.0,0.0,0.0,0.0,0.0,0.0,0.0,0.0,0.0,0.0,0.0,0.0,0.0,0.0,0.0,0.0,0.0,0.0,0.0,0.0,0.0,0.0,0.0,0.0,0.0,0.0,0.0,0.0,0.0,0.0,0.0,0.0,0.0,0.0,0.0,0.0,0.0,0.0,0.0,0.0,0.0,0.0,0.0,0.0,0.0,0.0,0.0,0.0,0.0,0.0,0.0,0.0,0.0,0.0,0.0,0.0,0.0,0.0,0.0,0.0,0.0,0.0,0.0,0.0,0.0,0.0,0.0,0.0,0.0,0.0,0.0,0.0,0.0,0.0,0.0,0.0,0.0,0.0,0.0,0.0,0.0,0.0,0.0,0.0,0.0,0.0,0.0,0.0,0.0,0.0,0.0,0.0,0.0,0.0,0.0,0.0,0.0,0.0,0.0,0.0,0.0,0.0,0.0,0.0,0.0,0.0,0.0,0.0,0.0,0.0,0.0,0.0,0.0,0.0,0.0,0.0,0.0,0.0,0.0,0.0,0.0,0.0,0.0,0.0,0.0,0.0,0.0,0.0,0.0,0.0,0.0,0.0,0.0,0.0,0.0,0.0,0.0,0.0,0.0,0.0,0.0,0.0,0.0,0.0,0.0,0.0,0.0,0.0,0.0,0.0,0.0,0.0,0.0,0.0,0.0,0.0,0.0,0.0,0.0,0.0,0.0,0.0,0.0,0.0,0.0,0.0,0.0,0.0,0.0,0.0,0.0,0.0,0.0,0.0,0.0,0.0,0.0,0.0,0.0,0.0,0.0,0.0,0.0,0.0,0.0,0.0,0.0,0.0,0.0,0.0,0.0,0.0,0.0,0.0,0.0,0.0,0.0,0.0,0.0,0.0,0.0,0.0,0.0,0.0,0.0,0.0,0.0,0.0,0.0,0.0,0.0,0.0,0.0,0.0,0.0,0.0,0.0,0.0,0.0,0.0,0.0,0.0,0.0,0.0,0.0,0.0,0.0,0.0,0.0,0.0,0.0,0.0,0.0,0.0,0.0,0.0,0.0,0.0,0.0,0.0,0.0,0.0,0.0,0.0,0.0,0.0,0.0,0.0,0.0,0.0,0.0,0.0,0.0,0.0,0.0,0.0,0.0,0.0,0.0,0.0,0.0,0.0,0.0,0.0,0.0,0.0,0.0,0.0,0.0,0.0,0.0,0.0,0.0,0.0,0.0,0.0,0.0,0.0,0.0,0.0,0.0,0.0,0.0,0.0,0.0,0.0,0.0,0.0,0.0,0.0,0.0,0.0,0.0,0.0,0.0,0.0,0.0,0.0,0.0,0.0,0.0,0.0,0.0,0.0,0.0,0.0,0.0,0.0,0.0,0.0,0.0,0.0,0.0,0.0,0.0,0.0,0.0,0.0,0.0,0.0,0.0,0.0,0.0,0.0,0.0,0.0,0.0,0.0,0.0,0.0,0.0,0.0,0.0,0.0,0.0,0.0,0.0,0.0,0.0,0.0,0.0,0.0,0.0,0.0,0.0,0.0,0.0,0.0,0.0,0.0,0.0,0.0,0.0,0.0,0.0,0.0,0.0,0.0,0.0,0.0,0.0,0.0,0.0,0.0,0.0,0.0,0.0,0.0,0.0,0.0,0.0,0.0,0.0,0.0,0.0,0.0,0.0,0.0,0.0,0.0,0.0,0.0,0.0,0.0,0.0,0.0,0.0,0.0,0.0,0.0,0.0,0.0,0.0,0.0,0.0,0.0,0.0,0.0,0.0,0.0,0.0,0.0,0.0,0.0,0.0,0.0,0.0,0.0,0.0,0.0,0.0,0.0,0.0,0.0,0.0,0.0,0.0,0.0,0.0,0.0,0.0,0.0,0.0,0.0,0.0,0.0,0.0,0.0,0.0,0.0,0.0,0.0,0.0,0.0,0.0,0.0,0.0,0.0,0.0,0.0,0.0,0.0,0.0,0.0,0.0,0.0,0.0,0.0,0.0,0.0,0.0,0.0,0.0,0.0,0.0,0.0,0.0,0.0,0.0,0.0,0.0,0.0,0.0,0.0,0.0,0.0,0.0,0.0,0.0,0.0,0.0,0.0,0.0,0.0,0.0,0.0,0.0,0.0,0.0,0.0,0.0,0.0,0.0,0.0,0.0,0.0,0.0,0.0,0.0,0.0,0.0,0.0,0.0,0.0,0.0,0.0,0.0,0.0,0.0,0.0,0.0,0.0,0.0,0.0,0.0,0.0,0.0,0.0,0.0,0.0,0.0,0.0,0.0,0.0,0.0,0.0,0.0,0.0,0.0,0.0,0.0,0.0,0.0,0.0,0.0,0.0,0.0,0.0,0.0,0.0,0.0,0.0,0.0,0.0,0.0,0.0,0.0,0.0,0.0,0.0,0.0,0.0,0.0,0.0,0.0,0.0,0.0,0.0,0.0,0.0,0.0,0.0,0.0,0.0,0.0,0.0,0.0,0.0,0.0,0.0,0.0,0.0,0.0,0.0,0.0,0.0,0.0,0.0,0.0,0.0,0.0,0.0,0.0,0.0,0.0,0.0,0.0,0.0,0.0,0.0,0.0,0.0,0.0,0.0,0.0,0.0,0.0,0.0,0.0,0.0,0.0,0.0,0.0,0.0,0.0,0.0,0.0,0.0,0.0,0.0,0.0,0.0,0.0,0.0,0.0,0.0,0.0,0.0,0.0,0.0,0.0,0.0,0.0,0.0,0.0,0.0,0.0,0.0,0.0,0.0,0.0,0.0,0.0,0.0,0.0,0.0,0.0,0.0,0.0,0.0,0.0,0.0,0.0,0.0,0.0,0.0,0.0,0.0,0.0,0.0,0.0,0.0,0.0,0.0,0.0,0.0,0.0,0.0,0.0,0.0,0.0,0.0,0.0,0.0,0.0,0.0,0.0,0.0,0.0,0.0,0.0,0.0,0.0,0.0,0.0,0.0,0.0,0.0,0.0,0.0,0.0,0.0,0.0,0.0,0.0,0.0,0.0,0.0,0.0,0.0,0.0,0.0,0.0,0.0,0.0,0.0,0.0,0.0,0.0,0.0,0.0,0.0,0.0,0.0,0.0,0.0,0.0,0.0,0.0,0.0,0.0,0.0,0.0,0.0,0.0,0.0,0.0,0.0,0.0,0.0,0.0,0.0,0.0,0.0,0.0,0.0,0.0,0.0,0.0,0.0,0.0,0.0,0.0,0.0,0.0,0.0,0.0,0.0,0.0,0.0,0.0,0.0,0.0,0.0,0.0,0.0,0.0,0.0,0.0,0.0,0.0,0.0,0.0,0.0,0.0,0.0,0.0,0.0,0.0,0.0,0.0,0.0,0.0,0.0,0.0,0.0,0.0,0.0,0.0,0.0,0.0,0.0,0.0,0.0,0.0,0.0,0.0,0.0,0.0,0.0,0.0,0.0,0.0,0.0,0.0,0.0,0.0,0.0,0.0,0.0,0.0,0.0,0.0,0.0,0.0,0.0,0.0,0.0,0.0,0.0,0.0,0.0,0.0,0.0,0.0,0.0,0.0,0.0,0.0,0.0,0.0,0.0,0.0,0.0,0.0,0.0,0.0,0.0,0.0,0.0,0.0,0.0,0.0,0.0,0.0,0.0,0.0,0.0,0.0,0.0,0.0,0.0,0.0,0.0,0.0,0.0,0.0,0.0,0.0,0.0,0.0,0.0,0.0,0.0,0.0,0.0,0.0,0.0,0.0,0.0,0.0,0.0,0.0,0.0,0.0,0.0,0.0,0.0,0.0,0.0,0.0,0.0,0.0,0.0,0.0,0.0,0.0,0.0,0.0,0.0,0.0,0.0,0.0,0.0,0.0,0.0,0.0,0.0,0.0,0.0,0.0,0.0,0.0,0.0,0.0,0.0,0.0,0.0,0.0,0.0,0.0,0.0,0.0,0.0,0.0,0.0,0.0,0.0,0.0,0.0,0.0,0.0,0.0,0.0,0.0,0.0,0.0,0.0,0.0,0.0,0.0,0.0,0.0,0.0,0.0,0.0,0.0,0.0,0.0,0.0,0.0,0.0,0.0,0.0,0.0,0.0,0.0,0.0,0.0,0.0,0.0,0.0,0.0,0.0,0.8879,0.0,0.0,0.0,0.0,0.0,0.0,0.0,0.0,0.0,0.0,0.0,0.0,0.0,0.0,0.0,0.0,0.0,0.0,0.0,0.0,0.0,0.0,0.0,0.0,0.0,0.0,0.0,0.0,0.0,0.0,0.0,0.0,0.0,0.0,0.0,0.0,0.0,0.0,0.0,0.0,0.0,0.0,0.0,0.0,0.0,0.0,0.0,0.0,0.0,0.0,0.0,0.0,0.0,0.0,0.0,0.0,0.0,0.0,0.0,0.0,0.0,0.0,0.0,0.0,0.0,0.0,0.0,0.0,0.0,0.0,0.0,0.0,0.0,0.0,0.0,0.0,0.0,0.0,0.0,0.0,0.0,0.0,0.0,0.0,0.0,0.0,0.0,0.0,0.0,0.0,0.0,0.0,0.0,0.0,0.0,0.0,0.0,0.0,0.0,0.0,0.0,0.0,0.0,0.0,0.0,0.0,0.0,0.0,0.0,0.0,0.0,0.0,0.8855,0.0,0.0,0.0,0.0,0.0,0.0,0.0,0.0,0.0,0.0,0.0,0.0,0.0,0.0,0.0,0.0,0.0,0.0,0.0,0.0,0.0,0.0,0.0,0.0,0.0,0.0,0.0,0.0,0.0,0.0,0.0,0.0,0.0,0.0,0.0,0.0,0.0,0.0,0.0,0.0,0.0,0.0,0.0,0.0,0.0,0.0,0.0,0.0,0.0,0.0,0.0,0.0,0.0,0.0,0.0,0.0,0.0,0.0,0.0,0.0,0.0,0.0,0.0,0.0,0.0,0.0,0.0,0.0,0.0,0.0,0.0,0.0,0.0,0.0,0.0,0.0,0.0,0.0,0.0,0.0,0.0,0.0,0.0,0.0,0.0,0.0,0.0,0.0,0.0,0.0,0.0,0.0,0.0,0.0,0.0,0.0,0.0,0.0,0.0,0.0,0.0,0.0,0.0,0.0,0.9445,0.9459,0.9459,0.9459,0.9527,0.9625,0.9198,0.9201,0.9344,0.8842,0.0,0.0,0.0,0.0,0.0,0.0,0.0,0.0,0.0,0.0,0.0,0.0,0.0,0.0,0.0,0.0,0.0,0.0,0.0,0.0,0.0,0.0,0.0,0.0,0.8384,0.823,0.0,0.0,0.0,0.0,0.0,0.0,0.0,0.0,0.0,0.0,0.0,0.0,0.0,0.0,0.0,0.0,0.0,0.0,0.0,0.0,0.0,0.0,0.0,0.0,0.0,0.0,0.0,0.0,0.0,0.0,0.0,0.0,0.0,0.0,0.0,0.0,0.0,0.0,0.0,0.0,0.0,0.0,0.0,0.0,0.0,0.0,0.0,0.0,0.0,0.0,0.0,0.0,0.0,0.0,0.0,0.0,0.9265,0.9513,0.0,0.0,0.0,0.0,0.0,0.0,0.0,0.0,0.0,0.0,0.0,0.0,0.0,0.9361,0.9381,0.9513,0.9581,0.9581,0.9703,0.9764,0.9764,0.9764,0.9774,0.9788,0.973,0.0,0.9374,0.9296,0.0,0.0,0.0,0.0,0.0,0.0,0.0,0.0,0.0,0.0,0.0,0.0,0.0,0.0,0.0,0.0,0.0,0.0,0.0,0.0,0.0,0.0,0.879,0.877,0.8797,0.8811,0.0,0.7252,0.6074,0.5993,0.5038,0.0,0.0,0.0,0.0,0.0,0.0,0.0,0.0,0.0,0.0,0.0,0.0,0.0,0.0,0.0,0.0,0.0,0.0,0.0,0.0,0.0,0.0,0.0,0.0,0.0,0.0,0.0,0.0,0.0,0.0,0.0,0.0,0.0,0.0,0.0,0.0,0.0,0.0,0.0,0.0,0.0,0.0,0.0,0.0,0.0,0.0,0.0,0.0,0.0,0.0,0.8726,0.8984,0.9208,0.9184,0.9204,0.0,0.0,0.0,0.0,0.0,0.0,0.0,0.0,0.0,0.9724,0.9588,0.9547,0.9629,0.9693,0.9727,0.973,0.9791,0.9822,0.9822,0.9822,0.9822,0.9822,0.9822,0.9747,0.9615,0.9449,0.9266,0.9069,0.0,0.0,0.0,0.0,0.8798,0.876,0.891,0.8906,0.0,0.8686,0.0,0.0,0.0,0.0,0.0,0.0,0.0,0.0,0.0,0.0,0.8832,0.8861,0.8885,0.8885,0.8885,0.8294,0.7697,0.0,0.6522,0.5374,0.4482,0.0,0.0,0.0,0.0,0.0,0.0,0.0,0.0,0.0,0.0,0.0,0.0,0.0,0.0,0.0,0.0,0.0,0.0,0.0,0.0,0.0,0.0,0.0,0.0,0.0,0.0,0.0,0.0,0.0,0.0,0.0,0.0,0.0,0.0,0.0,0.0,0.0,0.0,0.0,0.0,0.0,0.0,0.0,0.0,0.0,0.0,0.0,0.0,0.876,0.894,0.9037,0.9235,0.9283,0.0,0.0,0.0,0.0,0.0,0.0,0.9934,0.9764,0.9747,0.993,0.9761,0.9713,0.9819,0.9822,0.9822,0.9822,0.9822,0.9822,0.9822,0.9822,0.9822,0.9822,0.9822,0.9822,0.9802,0.9585,0.9473,0.9418,0.9198,0.9062,0.9001,0.9083,0.9062,0.9015,0.9161,0.9117,0.8981,0.8851,0.0,0.8638,0.8564,0.0,0.0,0.0,0.0,0.8574,0.873,0.8767,0.8798,0.8858,0.8885,0.8885,0.8885,0.8851,0.8825,0.0,0.7815,0.6917,0.6279,0.0,0.0,0.0,0.0,0.0436,0.0054,0.0,0.0,0.0,0.0,0.0,0.0,0.0,0.0,0.0,0.0,0.0,0.0,0.0,0.0161,0.0533,0.0,0.0,0.0,0.0,0.0,0.0,0.0,0.0,0.0,0.0,0.0,0.0,0.0,0.0,0.0,0.0,0.0,0.0,0.0,0.0,0.0,0.0,0.0,0.0,0.0,0.0,0.0,0.0,0.0,0.9557,0.97,0.0,0.0,0.0,0.0,0.9798,0.9812,0.9947,1.0243,0.9971,0.9947,1.0249,0.9964,0.9815,0.9822,0.9822,0.9822,0.9822,0.9822,0.9822,0.9822,0.9822,0.9822,0.9822,0.9822,0.9822,0.9819,0.9805,0.972,0.9598,0.9581,0.9398,0.9234,0.9469,0.9391,0.9221,0.9317,0.9326,0.9152,0.8811,0.8618,0.852,0.8659,0.8598,0.0,0.0,0.8699,0.8733,0.8834,0.8871,0.8875,0.8881,0.8885,0.8885,0.8885,0.8825,0.876,0.0,0.8799,0.8301,0.6907,0.0,0.5483,0.2609,0.2125,0.1593,0.0167,0.0,0.0,0.0,0.0,0.0,0.0,0.0,0.0,0.0,0.0,0.0,0.0,0.0,0.0661,0.2075,0.2176,0.0,0.0,0.0,0.0,0.0,0.0,0.0,0.0,0.0,0.0,0.0,0.0,0.0,0.0,0.0,0.0,0.0,0.0,0.0,0.0,0.0,0.0,0.0,0.0,0.0,0.0,0.0,0.0,0.9456,0.9676,0.0,0.9822,0.9998,1.0117,1.0117,1.0293,1.0446,1.0558,1.028,1.0168,1.0276,0.9981,0.9822,0.9822,0.9822,0.9822,0.9822,0.9822,0.9822,0.9822,0.9822,0.9822,0.9822,0.9822,0.9822,0.9822,0.9822,0.9791,0.9744,0.9744,0.968,0.9585,0.9602,0.954,0.9425,0.934,0.9255,0.9176,0.8923,0.8821,0.8784,0.8842,0.8818,0.8788,0.8842,0.8804,0.8814,0.8868,0.8885,0.8885,0.8885,0.8885,0.8885,0.8885,0.8841,0.8817,0.8871,0.8804,0.8611,0.8065,0.725,0.5955,0.382,0.2751,0.1667,0.0168,0.0,0.0,0.0,0.0,0.0,0.0,0.0,0.0,0.0,0.0,0.0448,0.1399,0.1399,0.2113,0.3625,0.4609,0.4799,0.0,0.0,0.0,0.0,0.0,0.0,0.0,0.0,0.0,0.0,0.0,0.0,0.0,0.0,0.0,0.0,0.0,0.0,0.0,0.0,0.0,0.0,0.0,0.0,0.0,0.0,0.9401,0.9452,0.9764,0.9978,0.9978,1.0249,1.0429,1.0429,1.0609,1.0721,1.0721,1.0439,1.028,1.028,0.9981,0.9822,0.9822,0.9822,0.9822,0.9822,0.9822,0.9822,0.9822,0.9822,0.9822,0.9822,0.9822,0.9822,0.9822,0.9822,0.9822,0.9822,0.9822,0.9822,0.9802,0.9663,0.9578,0.949,0.9184,0.9083,0.9066,0.8967,0.8885,0.8885,0.8885,0.8885,0.8885,0.8885,0.8885,0.8885,0.8885,0.8885,0.8885,0.8885,0.8885,0.8885,0.8885,0.8885,0.8885,0.8885,0.8801,0.8788,0.8788,0.8039,0.6719,0.464,0.3978,0.2844,0.0334,0.0447,0.056,0.0056,0.0,0.0,0.0,0.0,0.0222,0.0728,0.072,0.1438,0.2904,0.2488,0.2912,0.4448,0.593,0.6081,0.4818,0.0,0.0,0.0,0.0,0.0,0.0,0.0,0.0,0.0,0.0,0.0,0.0,0.0,0.0,0.0,0.0,0.0,0.0,0.0,0.0,0.0,0.0,0.0,0.9388,0.9391,0.9452,0.9612,1.0015,1.0283,1.0293,1.0555,1.0721,1.0721,1.0721,1.0721,1.0721,1.0439,1.0283,1.0287,0.9988,0.9829,0.9836,0.9836,0.9836,0.9836,0.9836,0.9836,0.9836,0.9829,0.9829,0.9829,0.9822,0.9822,0.9822,0.9822,0.9822,0.9822,0.9822,0.9819,0.9795,0.9656,0.9503,0.9327,0.9039,0.8885,0.8885,0.8885,0.8885,0.8885,0.8885,0.8885,0.8885,0.8885,0.8885,0.8885,0.8885,0.8885,0.8885,0.8885,0.8885,0.8885,0.8885,0.8885,0.8885,0.8885,0.8885,0.8885,0.8885,0.8885,0.7941,0.5027,0.5801,0.0,0.0713,0.133,0.1677,0.0224,0.0,0.0,0.0056,0.0054,0.0703,0.2175,0.2277,0.2971,0.4521,0.3143,0.3086,0.4623,0.6044,0.6665,0.6478,0.0,0.0,0.0,0.0,0.0,0.0,0.0,0.0,0.0,0.0,0.0,0.0,0.0,0.0,0.0,0.0,0.0,0.0,0.0,0.0,0.0,0.0,0.9547,0.9547,0.9635,0.9798,1.0066,1.0205,1.0365,1.0578,1.0673,1.0721,1.0721,1.0721,1.0721,1.0721,1.0439,1.0327,1.0429,1.0144,1.0042,1.0154,1.0154,1.0154,1.0154,1.0154,1.0154,1.0151,1.0039,0.9923,0.992,0.9869,0.9822,0.9822,0.9822,0.9822,0.9822,0.9822,0.9758,0.9649,0.95,0.9283,0.9049,0.8912,0.8885,0.8885,0.8885,0.8885,0.8885,0.8885,0.8885,0.8885,0.8885,0.8885,0.8885,0.8885,0.8885,0.8885,0.8885,0.8885,0.8885,0.8885,0.8885,0.8885,0.8885,0.8885,0.8885,0.8885,0.8885,0.8254,0.6383,0.6458,0.0,0.3556,0.262,0.2059,0.1651,0.0661,0.0441,0.1484,0.1581,0.2242,0.3795,0.3878,0.4538,0.6028,0.57,0.6167,0.7655,0.7802,0.7404,0.0,0.0,0.0,0.0,0.0,0.0,0.0,0.0,0.0,0.0,0.0,0.0,0.0,0.0,0.0,0.0,0.0,0.0,0.0,0.0,0.0,0.0,0.9544,0.9696,0.9696,0.9771,0.9937,1.0243,1.028,1.0395,1.069,1.0721,1.0721,1.0721,1.0721,1.0721,1.0721,1.0497,1.0409,1.049,1.0266,1.0188,1.028,1.028,1.028,1.028,1.028,1.028,1.0276,1.0188,1.0144,0.0,0.9981,0.9856,0.9852,0.9846,0.9822,0.0,0.0,0.0,0.0,0.0,0.9232,0.9018,0.8905,0.8885,0.8885,0.8885,0.8885,0.8885,0.8885,0.8885,0.8885,0.8885,0.8885,0.8885,0.8885,0.8885,0.8885,0.8885,0.8885,0.8885,0.8885,0.8885,0.8885,0.8885,0.8885,0.0,0.8885,0.8885,0.8413,0.6913,0.7227,0.685,0.4759,0.4282,0.3841,0.3255,0.2372,0.2207,0.3087,0.3154,0.0,0.0,0.0,0.5796,0.6668,0.6722,0.0,0.0,0.0,0.7461,0.7358,0.0,0.0,0.0,0.5344,0.5392,0.0,0.0,0.0,0.0,0.0,0.0,0.0,0.0,0.0,0.0,0.0,0.0,0.0,0.0,0.0,0.0,0.973,0.9822,0.9822,0.9822,0.9937,1.0243,1.028,1.0395,1.069,1.0721,1.0721,1.0721,1.0721,1.0721,1.0721,0.0,0.0,0.0,0.0,1.0314,1.0331,1.0331,1.0331,1.0331,1.0331,1.0331,1.0331,1.0314,1.0304,1.0297,1.0141,1.0004,0.9977,0.9842,0.9836,0.9819,0.9802,0.9795,0.9764,0.9483,0.9344,0.919,0.9008,0.0,0.0,0.8885,0.8885,0.8885,0.8885,0.8885,0.8885,0.8885,0.8885,0.8885,0.8885,0.8885,0.8885,0.8885,0.8885,0.8885,0.8885,0.8885,0.8885,0.8885,0.8885,0.8885,0.8885,0.8885,0.8449,0.7168,0.8075,0.7944,0.5307,0.5976,0.6195,0.4905,0.0,0.0,0.4736,0.4768,0.5397,0.6856,0.6948,0.6934,0.6934,0.6934,0.6934,0.6934,0.6799,0.7303,0.8482,0.8323,0.8174,0.7925,0.557,0.5078,0.0,0.0,0.0,0.0,0.0,0.0,0.0,0.0,0.0,0.0,0.0,0.0,0.0,0.0,0.0,0.9581,0.973,0.9822,0.9822,0.9822,0.9937,1.0243,1.028,1.0395,1.069,1.0721,1.0721,1.0721,1.0721,1.0721,1.0721,1.0575,1.0548,1.0673,1.0531,1.051,1.0633,1.0636,1.0636,1.0636,0.0,0.0,1.0629,1.0507,1.0453,1.0443,1.0297,1.0164,0.9984,0.9957,0.9869,0.9812,0.9696,0.9649,0.9629,0.9449,0.9344,0.9207,0.9176,0.9035,0.8885,0.8885,0.8885,0.8885,0.8885,0.8885,0.0,0.8885,0.8885,0.8885,0.8885,0.8885,0.8885,0.8885,0.8885,0.8885,0.8885,0.8885,0.8885,0.8885,0.8885,0.8885,0.8885,0.8885,0.8816,0.8511,0.8696,0.8706,0.8118,0.7243,0.6611,0.63,0.5198,0.498,0.6181,0.6253,0.6885,0.8367,0.8494,0.8465,0.8465,0.8465,0.8465,0.8465,0.8255,0.8243,0.8482,0.8214,0.8019,0.7988,0.7472,0.7355,0.0,0.0,0.0,0.0,0.0,0.0,0.0,0.0,0.0,0.0,0.0,0.9093,0.0,0.0,0.9544,0.969,0.9774,0.9822,0.9822,0.9886,1.0022,1.0253,1.028,1.0395,1.069,1.0721,1.0721,1.0721,1.0721,1.0721,1.0721,1.0649,1.0639,1.0717,1.0646,1.0643,1.0721,1.0721,1.0721,1.0721,1.0721,1.0721,1.0717,1.0639,1.0605,1.0599,1.0449,1.0304,1.0151,0.9998,0.989,0.9815,0.9744,0.9717,0.9696,0.9551,0.9449,0.9361,0.9262,0.9106,0.9032,0.8905,0.8885,0.8885,0.8885,0.8885,0.8885,0.8885,0.8885,0.8885,0.8885,0.8885,0.8885,0.8885,0.8885,0.8885,0.8885,0.8885,0.8885,0.8885,0.8885,0.8885,0.8885,0.8885,0.8885,0.8885,0.8885,0.8885,0.8885,0.8266,0.7793,0.7783,0.7169,0.7002,0.7722,0.7777,0.8136,0.8878,0.8885,0.8885,0.8885,0.8885,0.8848,0.8825,0.8601,0.8445,0.8377,0.815,0.7988,0.7988,0.7988,0.7988,0.0,0.0,0.0,0.0,0.0,0.0,0.0,0.0,0.8927,0.9023,0.9201,0.9378,0.9445,0.9568,0.969,0.9802,0.9822,0.9822,0.9822,0.9889,1.0044,1.0263,1.0304,1.0426,1.0694,1.0721,1.0721,1.0721,1.0721,1.0721,1.0721,1.0721,1.0721,1.0721,1.0721,1.0721,1.0721,1.0721,1.0721,1.0721,1.0721,1.0721,1.0721,1.0721,1.0721,1.0711,1.0558,1.0412,1.0259,0.9978,0.9846,0.9822,0.9822,0.9822,0.9805,0.9693,0.9632,0.9574,0.9327,0.9258,0.919,0.9018,0.8905,0.8885,0.8885,0.8885,0.8885,0.8885,0.8885,0.8885,0.8885,0.8885,0.8885,0.8885,0.8885,0.8885,0.8885,0.8885,0.8885,0.8885,0.8885,0.8885,0.8885,0.8885,0.8885,0.8885,0.8885,0.8885,0.8885,0.8885,0.8885,0.8885,0.8885,0.8885,0.8885,0.8885,0.8885,0.8885,0.8885,0.8885,0.8885,0.8885,0.8811,0.8713,0.856,0.8411,0.8323,0.8116,0.7988,0.7988,0.7988,0.7988,0.8049,0.8255,0.8567,0.8825,0.8998,0.9262,0.0,0.0,0.9551,0.9693,0.9734,0.9751,0.9768,0.9785,0.9802,0.9819,0.9822,0.9822,0.9822,0.9889,1.0044,1.0263,1.0392,1.0534,1.0704,1.0721,1.0721,1.0721,1.0721,1.0721,1.0721,1.0721,1.0721,1.0721,1.0721,1.0721,1.0721,1.0721,1.0721,1.0721,1.0721,1.0721,1.0721,1.0721,1.0721,1.0711,1.0558,1.0412,1.0266,1.0093,0.9883,0.9822,0.9822,0.9822,0.9819,0.9802,0.9717,0.9605,0.9571,0.9381,0.9207,0.919,0.9042,0.8885,0.8885,0.8885,0.8885,0.8885,0.8885,0.8885,0.8885,0.8885,0.8885,0.8885,0.8885,0.8885,0.8885,0.8885,0.8885,0.8885,0.8885,0.8885,0.8885,0.8885,0.8885,0.8885,0.8885,0.8885,0.8885,0.8885,0.8885,0.8885,0.8885,0.8885,0.8885,0.8885,0.8885,0.8885,0.8885,0.8885,0.8885,0.8885,0.8811,0.8713,0.856,0.8411,0.8323,0.8116,0.7988,0.7988,0.7988,0.7988,0.8494,0.8598,0.8798,0.9011,0.9242,0.9445,0.9544,0.9588,0.9649,0.9791,0.9822,0.9822,0.9822,0.9822,0.9822,0.0,0.9822,0.9822,0.9822,0.9889,1.0044,1.0263,1.0405,1.0551,1.0707,1.0721,1.0721,1.0721,1.0721,1.0721,1.0721,1.0721,1.0721,1.0721,1.0721,1.0721,1.0721,1.0721,1.0721,1.0721,1.0721,1.0721,1.0721,1.0721,1.0721,1.0711,1.0558,1.0412,1.0266,1.0051,0.9899,0.9822,0.9822,0.9822,0.9822,0.9822,0.9785,0.972,0.9639,0.9466,0.9326,0.9238,0.9055,0.8885,0.8885,0.8885,0.8885,0.8885,0.8885,0.8885,0.8885,0.8885,0.8885,0.8885,0.8885,0.8885,0.8885,0.8885,0.8885,0.8885,0.8885,0.8885,0.8885,0.8885,0.8885,0.8885,0.8885,0.8885,0.8885,0.8885,0.8885,0.8885,0.8885,0.8885,0.8885,0.8885,0.8885,0.8885,0.8885,0.8885,0.8885,0.8797,0.8733,0.8581,0.8435,0.8286,0.8136,0.8022,0.7988,0.7988,0.7988,0.7988,0.8682,0.879,0.0,0.9173,0.9412,0.9639,0.9527,0.9588,0.9696,0.9798,0.9822,0.9822,0.9822,0.9822,0.9822,0.9822,0.9822,0.9822,0.9822,0.9889,1.0044,1.0263,1.0405,1.0551,1.0707,1.0721,1.0721,1.0721,1.0721,1.0721,1.0721,1.0721,1.0721,1.0721,1.0721,1.0721,1.0721,1.0721,1.0721,1.0721,1.0721,1.0721,1.0721,1.0721,1.0721,1.0711,1.0558,1.0412,1.0266,1.0051,0.9899,0.9822,0.9822,0.9822,0.9822,0.9822,0.9822,0.9805,0.9703,0.9544,0.9364,0.9309,0.9089,0.8885,0.8885,0.8885,0.8885,0.8885,0.8885,0.8885,0.8885,0.8885,0.8885,0.8885,0.8885,0.8885,0.8885,0.8885,0.8885,0.8885,0.8885,0.8885,0.8885,0.8885,0.8885,0.8885,0.8885,0.8885,0.8885,0.8885,0.8885,0.8885,0.8885,0.8885,0.8885,0.8885,0.8885,0.8885,0.8885,0.8885,0.8885,0.8791,0.8638,0.8486,0.8343,0.8194,0.7988,0.7988,0.7988,0.7988,0.7988,0.7988,0.8248,0.8608,0.8974,0.9173,0.9486,0.9815,0.9808,0.9812,0.9815,0.9819,0.9822,0.9822,0.9822,0.9822,0.9822,0.9822,0.9822,0.9822,0.9822,0.9889,1.0044,1.0263,1.0405,1.0551,0.0,1.0721,1.0721,1.0721,1.0721,1.0721,1.0721,1.0721,1.0721,1.0721,1.0721,1.0721,1.0721,1.0721,1.0721,1.0721,1.0721,1.0721,1.0721,1.0721,1.0721,1.0711,1.0558,1.0412,1.0266,1.0051,0.9899,0.9822,0.9822,0.9822,0.9822,0.9822,0.9822,0.9822,0.9815,0.9625,0.9381,0.9374,0.9174,0.8885,0.8885,0.8885,0.8885,0.8885,0.8885,0.8885,0.8885,0.8885,0.8885,0.8885,0.8885,0.8885,0.8885,0.8885,0.8885,0.8885,0.8885,0.8885,0.8885,0.8885,0.8885,0.8885,0.8885,0.8885,0.8885,0.8885,0.8885,0.8885,0.8885,0.8885,0.8885,0.8885,0.8885,0.8885,0.8885,0.8885,0.8885,0.8791,0.8638,0.8486,0.8343,0.8194,0.7988,0.7988,0.7988,0.7988,0.7988,0.7988,0.837,0.8669,0.8998,0.9242,0.9493,0.9703,0.9798,0.9822,0.9822,0.9822,0.9747,0.968,0.968,0.968,0.968,0.968,0.9758,0.9822,0.9822,0.9866,0.9995,1.0249,1.0324,0.0,0.0,0.0,0.0,1.0721,1.0721,1.0721,1.0721,1.0721,1.0721,1.0721,1.0721,1.0721,1.0721,1.0721,1.0721,1.0721,1.0721,1.0721,1.0721,1.0721,1.0721,1.0711,1.0558,1.0412,1.0266,1.0051,0.9899,0.9822,0.9822,0.9822,0.9822,0.9822,0.9822,0.9822,0.9822,0.9629,0.9381,0.9381,0.9181,0.8885,0.8885,0.8885,0.8885,0.8885,0.8885,0.8885,0.8885,0.8885,0.8885,0.8885,0.8885,0.8885,0.8885,0.8885,0.8885,0.8885,0.8885,0.8885,0.8885,0.8885,0.8885,0.8885,0.8885,0.8885,0.8885,0.8885,0.8885,0.8885,0.8885,0.8885,0.8885,0.8885,0.8885,0.8885,0.8885,0.8838,0.8791,0.8638,0.8489,0.8343,0.8194,0.8092,0.7988,0.7988,0.7988,0.7988,0.7988,0.7988,0.8509,0.8747,0.8952,0.9306,0.9496,0.9646,0.9788,0.9822,0.9822,0.9822,0.9707,0.9608,0.9608,0.9608,0.9591,0.9537,0.9693,0.9802,0.9751,0.9788,0.9937,1.0243,1.028,1.0395,0.0,0.0,0.0,1.0721,1.0721,1.0721,1.0721,1.0721,1.0721,1.0721,1.0721,1.0721,1.0721,1.0721,1.0721,1.0721,1.0721,1.0721,1.0721,1.0721,1.0721,1.0711,1.0504,1.0365,1.0263,1.0053,0.9849,0.9822,0.9822,0.9822,0.9822,0.9822,0.9822,0.9822,0.9822,0.9629,0.9497,1.0008,0.996,0.9809,1.0292,1.0457,1.0457,1.0457,1.0076,0.9699,0.9699,0.932,0.8885,0.8885,0.8885,0.8885,0.8885,0.8885,0.8885,0.8885,0.8885,0.8885,0.8885,0.8885,0.8885,0.8885,0.8885,0.8885,0.8885,0.8885,0.8885,0.8885,0.8885,0.8885,0.8885,0.8885,0.8885,0.8885,0.8834,0.8811,0.8713,0.8516,0.8364,0.8323,0.8116,0.7988,0.7988,0.7988,0.7988,0.7988,0.7988,0.7988,0.8635,0.8821,0.8952,0.9306,0.949,0.9639,0.9788,0.9822,0.9819,0.9812,0.9696,0.9595,0.0,0.0,0.9551,0.9405,0.9629,0.9774,0.9639,0.9737,0.9937,0.0,0.0,0.0,0.0,0.0,0.0,1.0721,0.0,1.0721,1.0721,1.0721,1.0721,1.0721,1.0721,1.0721,1.0721,1.0721,1.0721,1.0721,1.0721,1.0721,1.0721,1.0721,1.0717,1.0694,1.0405,1.0276,1.0246,0.9944,0.9822,0.9822,0.9822,0.9822,0.9822,0.9822,0.9822,0.9819,0.9872,0.9741,0.9722,1.1077,1.1341,1.1483,1.2891,1.3318,1.3318,1.3318,1.2295,1.1214,1.1214,1.0131,0.8992,0.8992,0.894,0.8885,0.8885,0.8885,0.8885,0.8885,0.8885,0.8885,0.8885,0.8885,0.8885,0.8885,0.8885,0.8885,0.8885,0.8885,0.8885,0.8885,0.8885,0.8885,0.8885,0.8885,0.8878,0.8871,0.8791,0.8703,0.8689,0.8418,0.832,0.831,0.8113,0.7988,0.7988,0.7988,0.7988,0.7988,0.7988,0.7988,0.8689,0.8821,0.8952,0.9306,0.9412,0.9507,0.9764,0.9822,0.9791,0.9686,0.9544,0.9405,0.0,0.0,0.0,0.9388,0.9629,0.0,0.9771,0.9798,0.0,1.0243,1.028,1.0395,1.069,1.0721,0.0,0.0,1.0721,1.0721,1.0721,1.0721,1.0721,1.0721,1.0721,1.0721,1.0721,1.0721,1.0721,1.0721,1.0721,1.0721,1.0721,1.0721,1.066,1.0538,1.0358,1.0215,1.0031,0.99,0.9822,0.9822,0.9822,0.9822,0.9822,0.9822,0.9822,0.9923,1.0938,1.116,1.1007,1.1264,1.2003,1.2832,1.321,1.3318,1.3318,1.3318,1.3048,1.2724,1.2724,1.1647,1.0566,1.0566,0.9699,0.8885,0.8885,0.8885,0.8885,0.8885,0.8885,0.8885,0.8885,0.8885,0.8885,0.8885,0.8885,0.8885,0.8885,0.8885,0.8885,0.8885,0.8885,0.8885,0.8885,0.8885,0.8834,0.8774,0.873,0.8611,0.8391,0.8313,0.8214,0.8099,0.8008,0.7988,0.7988,0.7988,0.7988,0.7988,0.7988,0.7988,0.8794,0.8817,0.8952,0.9306,0.9381,0.9442,0.9676,0.9727,0.9686,0.954,0.9388,0.9313,0.9224,0.9333,0.0,0.0,0.0,0.0,0.9737,0.9781,0.9937,0.0,1.028,0.0,1.069,1.0721,1.0721,0.0,1.0721,1.0721,1.0721,1.0721,1.0721,1.0721,1.0721,1.0721,1.0721,1.0721,1.0721,1.0721,1.0721,1.0721,1.0717,1.0649,1.0571,1.048,0.0,1.0131,0.9974,0.9883,0.9822,0.9822,0.9822,0.9822,0.9822,0.9822,1.0197,1.0767,1.1415,1.2373,1.3311,1.3245,1.366,1.4341,1.499,1.5204,1.5204,1.5204,1.4716,1.4234,1.4234,1.3156,1.2082,1.2082,1.0945,1.0025,1.0672,1.0296,0.986,0.986,0.986,0.9644,0.8992,0.8885,0.8885,0.8885,0.8885,0.8885,0.8885,0.8885,0.8885,0.8885,0.8885,0.8885,0.8885,0.8885,0.8817,0.872,0.8648,0.8509,0.833,0.8204,0.813,0.7992,0.7988,0.7988,0.7988,0.7988,0.7988,0.7988,0.7988,0.7988,0.8848,0.8885,0.8952,0.9306,0.9381,0.9422,0.9574,0.9608,0.9561,0.9388,0.9303,0.9204,0.9183,0.9249,0.9313,0.9258,0.0,0.9754,0.9652,0.9744,0.9937,1.0243,1.028,1.0395,1.069,1.0721,1.0721,1.0721,1.0721,1.0721,1.0721,1.0721,1.0721,1.0721,1.0721,1.0721,1.0721,1.0721,1.0721,1.0721,1.0721,1.0711,1.0683,1.0551,1.047,1.0419,1.0161,0.0,0.9947,0.9876,0.9822,0.9822,0.9822,0.9822,0.9819,1.0061,1.0857,1.1854,1.2064,1.3668,1.5701,1.5666,1.5659,1.5902,1.7206,1.7582,1.7582,1.7582,1.6658,1.5689,1.5689,1.4663,1.3588,1.3588,1.2457,1.1755,1.2999,1.2295,1.1378,1.1378,1.1378,1.0945,0.9427,0.921,0.9103,0.8937,0.8885,0.8885,0.8885,0.8885,0.8885,0.8885,0.8885,0.8885,0.8885,0.8885,0.8811,0.8693,0.8557,0.8411,0.8248,0.8109,0.7988,0.7988,0.7988,0.7988,0.7988,0.7988,0.7988,0.7988,0.7988,0.7988,0.8875,0.8885,0.8952,0.9306,0.9381,0.9422,0.9574,0.9608,0.0,0.9306,0.9228,0.9173,0.8998,0.9096,0.9282,0.9323,0.9513,0.968,0.9771,0.9805,0.9937,0.0,1.028,1.0395,1.069,1.0721,0.0,0.0,0.0,1.0721,1.0721,1.0721,1.0721,1.0721,1.0721,1.0721,1.0721,1.0721,1.0721,1.0721,1.0721,1.0653,1.0531,1.0504,1.0358,1.0061,1.0011,0.0,0.9859,0.9832,0.9822,0.9822,0.9822,0.9822,0.994,1.1318,1.1801,1.2147,1.4463,1.5467,1.5672,1.5504,1.6264,1.7259,1.7529,1.7582,1.7582,1.7582,1.7417,1.7199,1.7199,1.6121,1.5037,1.5037,1.3965,1.2994,1.3264,1.3102,1.294,1.294,1.294,1.2457,1.0941,1.0726,1.0296,0.9103,0.8885,0.8885,0.8885,0.8885,0.8885,0.8885,0.8885,0.8885,0.8885,0.8885,0.8818,0.854,0.8496,0.836,0.8042,0.8005,0.7988,0.7988,0.7988,0.7988,0.7988,0.7988,0.7988,0.7988,0.7988,0.7988,0.8885,0.8885,0.8991,0.9208,0.932,0.9381,0.9374,0.0,0.0,0.9103,0.9042,0.9022,0.8895,0.9055,0.0,0.9309,0.9459,0.9632,0.97,0.9774,0.9907,1.0134,1.0232,1.0365,0.0,1.0673,1.0721,1.0721,0.0,1.0721,1.0721,1.0721,1.0721,1.0721,1.0721,1.0721,1.0721,1.0721,1.0721,1.0717,1.0639,1.0561,1.0487,1.0331,1.0122,0.998,0.9903,0.0,0.9822,0.9822,0.9822,0.9822,0.9822,1.0301,1.1129,1.1753,1.2885,1.423,1.5468,1.6217,1.6681,1.6596,1.7041,1.7582,1.7582,1.7582,1.7582,1.7582,1.7582,1.7582,1.7582,1.7094,1.6552,1.6552,1.6015,1.531,1.4556,1.499,1.531,1.4556,1.4395,1.3965,1.2512,1.1592,1.1105,1.116,1.0566,1.0296,1.1105,1.1214,1.0621,0.9047,0.8885,0.8885,0.8885,0.8811,0.8723,0.8496,0.8414,0.8272,0.7998,0.7988,0.7988,0.7988,0.7988,0.7988,0.7988,0.7988,0.8382,0.9019,0.9019,0.941,0.8875,0.8885,0.8974,0.9173,0.9326,0.934,0.9245,0.9326,0.0,0.8946,0.8885,0.8885,0.8885,0.9032,0.9173,0.0,0.9354,0.9534,0.9602,0.9703,0.9842,0.0,1.0185,0.0,1.0477,1.0629,0.0,0.0,0.0,0.0,1.0721,1.0721,1.0721,1.0721,1.0721,1.0721,1.0721,1.0721,1.0704,1.067,1.0551,1.046,1.0388,1.0092,0.997,0.993,0.9873,0.0,0.0,0.9822,1.0001,1.0301,1.0301,1.1234,1.2669,1.275,1.4151,1.6031,1.6167,1.6791,1.7582,1.7582,1.7582,1.7582,1.7582,1.7582,1.7582,1.7582,1.7582,1.7582,1.7582,1.7582,1.7582,1.7582,1.7582,1.7259,1.6115,1.677,1.7252,1.6121,1.5849,1.5417,1.3965,1.2778,1.2295,1.3156,1.2295,1.1973,1.3156,1.3318,1.2403,1.008,0.9537,0.9265,0.8937,0.8798,0.8645,0.8492,0.8398,0.8201,0.7995,0.7988,0.7988,0.7988,0.7988,0.7988,0.7988,0.7988,0.8676,0.9998,0.9998,1.0681,0.8844,0.8885,0.8974,0.9173,0.9326,0.934,0.9245,0.0,0.9296,0.8946,0.8885,0.8885,0.8885,0.8895,0.9001,0.9187,0.0,0.935,0.9571,0.9618,0.9734,0.9953,0.0,0.0,1.0477,0.0,0.0,0.0,0.0,0.0,1.0721,1.0721,1.0721,1.0721,1.0721,1.0721,1.0721,1.0721,1.0649,1.0514,1.05,1.0351,1.0024,1.0,0.9913,0.9842,0.9825,0.0,0.0,0.9822,1.066,1.1976,1.1976,1.2816,1.4164,1.5539,1.5931,1.5906,1.7332,1.7735,1.7582,1.7582,1.7582,1.7582,1.7582,1.7582,1.7582,1.7582,1.7582,1.7582,1.7582,1.7582,1.7582,1.7582,1.7582,1.7582,1.7417,1.7477,1.7582,1.7417,1.7417,1.6929,1.547,1.5097,1.4609,1.348,1.3156,1.3156,1.3264,1.3318,1.321,1.294,1.1701,1.0347,0.8992,0.8798,0.8645,0.8492,0.8398,0.8201,0.7995,0.7988,0.7988,0.7988,0.7988,0.7988,0.7988,0.7988,0.8676,0.9998,0.9998,1.0681,0.8841,0.8885,0.8898,0.9011,0.9133,0.9262,0.9059,0.0,0.9184,0.8925,0.8885,0.8885,0.8885,0.8885,0.8902,0.9015,0.0,0.0,0.9317,0.9493,0.9652,0.9771,0.9995,0.0,0.0,0.0,0.0,0.0,0.0,0.0,1.0721,1.0721,1.0721,1.0721,1.0721,1.0721,1.0721,1.0629,1.0551,1.049,1.031,1.0102,0.9984,0.9893,0.988,0.9822,0.9822,0.0,0.0,1.0838,1.1615,1.226,1.309,1.4273,1.561,1.589,1.6447,1.713,1.7615,1.7689,1.7582,1.7582,1.7582,1.7582,1.7582,1.7582,1.7582,1.7582,1.7582,1.7582,1.7582,1.7582,1.7582,1.7582,1.7582,1.7582,1.7582,1.7582,1.7582,1.7582,1.7582,1.7417,1.6823,1.6009,1.5524,1.5849,1.515,1.4877,1.5743,1.5908,1.553,1.4663,1.3264,1.2081,1.1321,1.1133,1.0625,0.9575,1.0109,1.0078,0.9221,0.9948,1.0337,1.0337,1.0337,1.0337,1.0337,1.0337,1.1019,1.2328,1.2328,1.3006,0.8828,0.8848,0.8885,0.8885,0.9045,0.9173,0.0,0.0,0.9169,0.8912,0.8885,0.8885,0.8885,0.8885,0.8885,0.0,0.0,0.9103,0.9204,0.934,0.9493,0.0,0.0,1.0025,0.0,1.0354,0.0,0.0,0.0,0.0,1.0721,1.0721,1.0721,1.0721,1.0721,1.07,1.0653,1.0548,1.0446,1.0358,1.0085,0.9963,0.9916,0.9869,0.9822,0.9822,0.9822,0.0,0.0,1.1736,1.2718,1.3592,1.4491,1.5737,1.6885,1.6515,1.7044,1.7822,1.7655,1.7582,1.7582,1.7582,1.7582,1.7582,1.7582,1.7582,1.7582,1.7582,1.7582,1.7582,1.7582,1.7582,1.7582,1.7582,1.7582,1.7582,1.7582,1.7582,1.7582,1.7582,1.7582,1.7582,1.7582,1.6764,1.6393,1.7417,1.6717,1.6446,1.7477,1.7582,1.7173,1.6063,1.504,1.4007,1.2893,1.2672,1.2094,1.0878,1.1476,1.1512,1.0583,1.1414,1.1896,1.1896,1.1896,1.1896,1.1896,1.1896,1.2571,1.3926,1.3926,1.4561,0.8672,0.8821,0.8885,0.8885,0.9045,0.9173,0.0,0.0,0.9169,0.8912,0.8885,0.8885,0.8885,0.8885,0.8885,0.8885,0.0,0.0,0.919,0.9214,0.0,0.0,0.0,0.9825,0.9825,0.0,0.0,0.0,0.0,0.0,1.0721,1.0721,1.0721,1.0721,1.0721,1.0649,1.0493,1.049,1.0344,0.9994,0.9987,0.9909,0.9822,0.9822,0.9822,0.0,0.0,0.0,0.0,1.2213,1.3873,1.6465,1.6465,1.7073,1.8002,1.7995,1.7796,1.7589,1.7582,1.7582,1.7582,1.7582,1.7582,1.7582,1.7582,1.7582,1.7582,1.7582,1.7582,1.7582,1.7582,1.7582,1.7582,1.7582,1.7582,1.7582,1.7582,1.7582,1.7582,1.7582,1.7582,1.7582,1.7582,1.7582,1.7582,1.7582,1.7582,1.7582,1.7582,1.7582,1.7475,1.7233,1.7154,1.5987,1.3036,1.2672,1.2501,1.2184,1.2017,1.1896,1.1901,1.1896,1.1896,1.1896,1.1896,1.1896,1.1896,1.1896,1.2571,1.3926,1.3926,1.4561,0.8516,0.8587,0.8652,0.8757,0.8815,0.8866,0.8868,0.0,0.8994,0.8892,0.8885,0.8885,0.8885,0.8885,0.8885,0.8885,0.8885,0.0,0.0,0.0,0.0,0.9374,0.9734,0.9916,0.0,0.0,0.0,0.0,0.0,0.0,1.0419,1.0419,1.0463,1.0561,1.0565,1.0493,1.0348,1.0243,1.0081,0.9984,0.9883,0.9869,0.9822,0.9822,1.0422,0.0,0.0,0.0,0.0,1.4779,1.5663,1.6545,1.7278,1.7705,1.7969,1.7809,1.7669,1.7582,1.7582,1.7582,1.7582,1.7582,1.7582,1.7582,1.7582,1.7582,1.7582,1.7582,1.7582,1.7582,1.7582,1.7582,1.7582,1.7582,1.7582,1.7582,1.7582,1.7582,1.7582,1.7582,1.7582,1.7582,1.7582,1.7582,1.7582,1.7582,1.7582,1.7582,1.7582,1.746,1.73,1.7213,1.6967,1.6402,1.5288,1.5146,1.4623,1.3425,1.4124,1.4172,1.3295,1.4076,1.4567,1.4567,1.4567,1.4567,1.4567,1.4567,1.4758,1.5194,1.5194,1.5391,0.0,0.8442,0.8506,0.8601,0.8625,0.0,0.8747,0.8811,0.8797,0.8797,0.8844,0.8885,0.8885,0.8885,0.8885,0.8885,0.8885,0.0,0.0,0.0,0.0,0.9452,0.0,0.0,0.0,0.0,0.0,0.0,0.0,0.0,1.028,1.028,1.0293,1.0324,1.0382,1.0341,1.0195,1.0034,0.9957,0.9899,0.9866,0.9822,0.9819,1.0418,1.1257,0.0,0.0,0.0,0.0,1.6183,1.6696,1.7117,1.774,1.7922,1.7849,1.7655,1.7582,1.7582,1.7582,1.7582,1.7582,1.7582,1.7582,1.7582,1.7582,1.7582,1.7582,1.7582,1.7582,1.7582,1.7582,1.7582,1.7582,1.7582,1.7582,1.7582,1.7582,1.7582,1.7582,1.7582,1.7582,1.7582,1.7582,1.7582,1.7582,1.7582,1.7582,1.7542,1.7435,1.7313,1.7119,1.6891,1.6653,1.6426,1.6132,1.6213,1.58,1.4675,1.5343,1.5439,1.4657,1.5391,1.5784,1.5784,1.5784,1.5784,1.5784,1.5784,1.5784,1.5784,1.5784,1.5784,0.0,0.835,0.8455,0.8465,0.8465,0.8469,0.8479,0.8601,0.0,0.871,0.8832,0.8885,0.8885,0.8885,0.8885,0.8885,0.8885,0.0,0.0,0.9228,0.0,0.0,0.9618,0.0,0.0,0.0,0.0,0.0,0.0,0.0,1.0249,1.0249,1.0181,0.9974,1.0171,1.0178,0.9974,0.997,0.9899,0.9822,0.994,1.0001,1.0001,1.1615,1.2444,0.0,0.0,0.0,0.0,1.6647,1.716,1.7989,1.7969,1.7836,1.7582,1.7582,1.7582,1.7582,1.7582,1.7582,1.7582,1.7582,1.7582,1.7582,1.7582,1.7582,1.7582,1.7582,1.7582,1.7582,1.7582,1.7582,1.7582,1.7582,1.7582,1.7582,1.7582,1.7582,1.7582,1.7582,1.7582,1.7582,1.7582,1.7582,1.7575,1.7555,1.7549,1.7442,1.7206,1.7152,1.6931,1.6382,1.6301,1.6126,1.5852,1.6079,1.6126,1.5798,1.5784,1.5784,1.5784,1.5784,1.5784,1.5784,1.5784,1.5784,1.5784,1.5784,1.5784,1.5784,1.5784,1.5784,0.8032,0.0,0.8174,0.8292,0.8371,0.8398,0.0,0.8601,0.871,0.871,0.8832,0.8885,0.8885,0.8885,0.8885,0.8885,0.0,0.8988,0.919,0.0,0.0,0.9602,0.9703,0.9754,0.0,0.0,0.0,0.0,0.0,0.9927,0.9927,0.9927,0.9914,0.9876,0.991,0.991,0.9876,0.9876,0.9856,0.9822,1.108,1.1615,1.1675,1.3287,1.4562,0.0,0.0,0.0,1.8,1.778,1.7782,1.7969,1.7782,1.7649,1.7582,1.7582,1.7582,1.7582,1.7582,1.7582,1.7582,1.7582,1.7582,1.7582,1.7582,1.7582,1.7582,1.7582,1.7582,1.7582,1.7582,1.7582,1.7582,1.7582,1.7582,1.7582,1.7582,1.7582,1.7582,1.7582,1.7582,1.7582,1.7582,1.7582,1.7508,1.7333,1.73,1.7192,1.6847,1.6663,1.6476,1.6335,1.6072,1.5905,1.5791,1.5892,1.5905,1.5784,1.5784,1.5784,1.5784,1.5784,1.5784,1.5784,1.5784,1.5784,1.5784,1.5784,1.5784,1.5784,1.5784,1.5784,0.7988,0.7988,0.8008,0.8143,0.8163,0.8184,0.8262,0.0,0.8604,0.8604,0.8781,0.8885,0.8885,0.8991,0.9015,0.0,0.9052,0.0,0.0,0.0,0.953,0.9602,0.9676,0.0,0.0,0.0,0.0,0.0,0.0,0.9822,0.9822,0.9822,0.9822,0.9822,1.0539,1.0539,0.9822,1.0539,1.0899,1.0899,1.2513,1.3241,1.314,1.4736,1.5779,0.0,0.0,0.0,1.8277,1.8055,1.7909,1.7816,1.7649,1.7582,1.7582,1.7582,1.7582,1.7582,1.7582,1.7582,1.7582,1.7582,1.7582,1.7582,1.7582,1.7582,1.7582,1.7582,1.7582,1.7582,1.7582,1.7582,1.7582,1.7582,1.7582,1.7582,1.7582,1.7582,1.7582,1.7582,1.7582,1.7582,1.7582,1.7521,1.738,1.7226,1.7085,1.684,1.6547,1.6373,1.6219,1.6086,1.5925,1.5784,1.5784,1.5784,1.5784,1.5784,1.5784,1.5784,1.5784,1.5784,1.5784,1.5784,1.5784,1.5784,1.5784,1.5784,1.5784,1.5784,1.5784,1.5784,0.7988,0.8008,0.8019,0.7995,0.7988,0.7988,0.7988,0.0,0.0,0.0,0.8706,0.8861,0.8964,0.9052,0.0,0.0,0.0,0.0,0.9412,0.9435,0.949,0.9598,0.0,0.0,0.0,0.0,0.0,0.0,0.0,0.9822,0.9822,0.9822,0.994,1.0179,1.1499,1.1663,1.0503,1.184,1.2573,1.2573,1.4148,1.4795,1.4598,1.6132,1.6669,1.648,0.0,0.0,1.7922,1.7922,1.7822,1.7582,1.7582,1.7582,1.7582,1.7582,1.7582,1.7582,1.7582,1.7582,1.7582,1.7582,1.7582,1.7582,1.7582,1.7582,1.7582,1.7582,1.7582,1.7582,1.7582,1.7582,1.7582,1.7582,1.7582,1.7582,1.7582,1.7582,1.7582,1.7582,1.7582,1.7569,1.7522,1.7367,1.7172,1.7079,1.68,1.6533,1.6246,1.6206,1.6112,1.5804,1.5784,1.5784,1.5784,1.5784,1.5784,1.5784,1.5784,1.5784,1.5784,1.5784,1.5784,1.5784,1.5784,1.5784,1.5784,1.5784,1.5784,1.5784,1.5784,1.5784,0.7988,0.8136,0.8204,0.8022,0.7988,0.7988,0.7988,0.8177,0.0,0.0,0.0,0.0,0.0,0.9039,0.9005,0.0,0.0,0.9425,0.0,0.0,0.9717,0.0,0.0,0.0,0.0,0.0,0.0,0.0,0.0,0.9822,0.9822,0.9822,1.0418,1.1796,1.2097,1.261,1.3547,1.3966,1.4242,1.4242,1.5576,1.6212,1.6166,1.7566,1.7997,1.7723,0.0,1.7943,1.7655,1.7655,1.7622,1.7582,1.7582,1.7582,1.7582,1.7582,1.7582,1.7582,1.7582,1.7582,1.7582,1.7582,1.7582,1.7582,1.7582,1.7582,1.7582,1.7582,1.7582,1.7582,1.7582,1.7582,1.7582,1.7582,1.7582,1.7582,1.7582,1.7582,1.7582,1.7582,1.7582,1.7554,1.7306,1.7233,1.7032,1.6529,1.6366,1.6233,1.5939,1.5899,1.5879,1.5832,1.5784,1.5784,1.5784,1.5784,1.5784,1.5784,1.5784,1.5784,1.5784,1.5784,1.5784,1.5784,1.5784,1.5784,1.5784,1.5784,1.5784,1.5784,1.5784,1.5784,0.7988,0.8092,0.8147,0.816,0.8221,0.8279,0.8279,0.8397,0.8526,0.0,0.0,0.0,0.0,0.0,0.9228,0.9374,0.0,0.934,0.9354,0.9351,0.9347,0.0,0.0,0.0,0.0,0.0,0.0,0.0,0.0,0.0,0.9585,0.9585,1.0281,1.1795,1.2669,1.378,1.5227,1.6212,1.6276,1.5454,1.6899,1.7509,1.7358,1.7967,1.8083,1.7796,0.0,1.7716,1.7582,1.7582,1.7582,1.7582,1.7582,1.7582,1.7582,1.7582,1.7582,1.7582,1.7582,1.7582,1.7582,1.7582,1.7582,1.7582,1.7582,1.7582,1.7582,1.7582,1.7582,1.7582,1.7582,1.8146,1.8506,1.7786,1.8146,1.8506,1.7733,1.7582,1.7582,1.7582,1.7455,1.7353,1.7226,1.6938,1.6636,1.6362,1.6139,1.5985,1.5798,1.5784,1.5784,1.5784,1.5784,1.5784,1.5784,1.5784,1.5784,1.5784,1.5784,1.5784,1.5784,1.5784,1.5784,1.5784,1.5784,1.5784,1.5784,1.5784,1.5784,1.5784,1.5784,1.5784,0.7988,0.8015,0.8123,0.8241,0.8326,0.8397,0.8465,0.8547,0.8628,0.0,0.0,0.0,0.0,0.9123,0.0,0.9432,0.9283,0.9221,0.9258,0.911,0.0,0.0,0.0,0.0,0.0,0.0,0.0,0.0,0.0,0.0,0.9381,0.9381,1.0235,1.1994,1.325,1.4754,1.6555,1.7757,1.7796,1.6652,1.7851,1.827,1.7989,1.7916,1.7809,1.7582,1.7582,1.7582,1.7582,1.7582,1.7582,1.7582,1.7582,1.7582,1.7582,1.7582,1.7582,1.7582,1.7582,1.7582,1.7582,1.7582,1.7582,1.7582,1.7582,1.7582,1.7687,1.7996,1.8094,1.8094,1.8094,1.9065,1.9826,1.8805,1.9317,1.9731,1.8349,1.8094,1.7996,1.7687,1.7601,1.7575,1.7507,1.7054,1.6676,1.6656,1.6163,1.5784,1.5784,1.5784,1.5784,1.5784,1.5784,1.5784,1.5784,1.6062,1.6109,1.5825,1.5784,1.5784,1.5784,1.5784,1.5784,1.5784,1.5784,1.5784,1.5784,1.5784,1.5784,1.5784,1.5784,1.5784,0.7988,0.8143,0.8306,0.832,0.817,0.8093,0.8421,0.8387,0.8381,0.8655,0.0,0.0,0.0,0.8902,0.8919,0.8929,0.9079,0.9258,0.0,0.0,0.0,0.0,0.0,0.0,0.0,0.0,0.0,0.0,0.0,0.0,0.9381,0.9381,1.0751,1.3648,1.3818,1.5177,1.7826,1.7961,1.8107,1.8311,1.8155,1.8015,1.7982,1.7749,1.7602,1.7582,1.7582,1.7582,1.7582,1.7582,1.7582,1.7582,1.7582,1.7582,1.7582,1.7582,1.7582,1.7582,1.7582,1.7582,1.7582,1.7582,1.7582,1.7582,1.7582,1.7582,1.7838,1.9117,1.9472,1.9472,1.9472,2.0487,2.1541,2.1448,2.1499,2.1143,1.9782,1.9472,1.9065,1.7838,1.8311,1.875,1.8449,1.8159,1.7882,1.7633,1.6588,1.5784,1.5784,1.5784,1.5784,1.5784,1.5784,1.5784,1.5784,1.6897,1.7037,1.5872,1.5784,1.5784,1.5784,1.5784,1.5784,1.5784,1.5784,1.5784,1.5784,1.5784,1.5784,1.5784,1.5784,1.5784,0.7896,0.8011,0.815,0.8245,0.8225,0.0,0.0,0.8581,0.8574,0.8686,0.8784,0.0,0.0,0.0,0.9042,0.8898,0.0,0.0,0.0,0.0,0.0,0.0,0.0,0.0,0.0,0.0,0.0,0.0,0.0,0.0,0.0,0.9106,1.0432,1.3407,1.3517,1.4898,1.7742,1.7756,1.7809,1.7923,1.7809,1.7756,1.7756,1.7635,1.7582,1.7582,1.7582,1.7582,1.7582,1.7582,1.7582,1.7582,1.7582,1.7582,1.7582,1.7582,1.7582,1.7582,1.7582,1.7582,1.7582,1.7582,1.7582,1.7582,1.7582,1.8199,1.8961,1.9472,2.0845,2.1963,2.1143,2.1904,2.2717,2.1904,2.2357,2.2567,2.1194,2.0896,2.0672,1.9852,1.9894,1.9843,1.9447,1.9146,1.8923,1.8842,1.8395,1.7855,1.7084,1.7623,1.7522,1.5967,1.6527,1.7311,1.8033,1.8542,1.8634,1.8118,1.8118,1.739,1.5872,1.6574,1.6622,1.5825,1.5784,1.5784,1.5784,1.5784,1.5784,1.5784,1.5784,1.5784,0.7882,0.7997,0.8147,0.8299,0.0,0.0,0.8645,0.8672,0.8665,0.8764,0.8828,0.8811,0.8811,0.0,0.0,0.0,0.0,0.0,0.0,0.0,0.0,0.0,0.0,0.0,0.0,0.0,0.0,0.0,0.0,0.0,0.0,1.0025,1.1428,1.3911,1.3965,1.515,1.7582,1.7582,1.7582,1.7582,1.7582,1.7582,1.7582,1.7582,1.7582,1.7582,1.7582,1.7582,1.7582,1.7582,1.7582,1.7582,1.7582,1.7582,1.7582,1.7582,1.7582,1.7582,1.7582,1.7582,1.7582,1.7582,1.7891,1.8251,1.8251,1.9169,2.0333,2.0794,2.2265,2.3583,2.3076,2.3642,2.4097,2.3176,2.3642,2.3939,2.2617,2.2214,2.1903,2.1147,2.0969,2.0899,2.0543,2.028,2.0079,2.0079,1.9716,1.9177,1.8365,1.9001,1.8856,1.7163,1.7762,1.8596,1.9451,1.9852,1.9898,1.9542,2.0223,1.9534,1.707,1.7816,1.7863,1.6976,1.6976,1.6976,1.6976,1.6976,1.6976,1.6976,1.6976,1.6976,0.7985,0.815,0.8354,0.8445,0.0,0.0,0.8645,0.8594,0.857,0.8821,0.8818,0.871,0.871,0.8713,0.0,0.871,0.0,0.0,0.0,0.0,0.0,0.0,0.0,0.0,0.0,0.0,0.0,0.0,0.0,0.0,0.0,1.2512,1.3965,1.5364,1.5417,1.6121,1.7582,1.7582,1.7582,1.7582,1.7582,1.7582,1.7582,1.7582,1.7582,1.7582,1.7582,1.7582,1.7582,1.7582,1.7582,1.7582,1.7582,1.7582,1.7582,1.7582,1.7582,1.7582,1.7582,1.7582,1.7582,1.7582,1.8506,1.9576,1.9576,2.059,2.2005,2.3335,2.3692,2.4048,2.5382,2.5693,2.5693,2.5693,2.5693,2.5323,2.3989,2.3376,2.2642,2.1295,2.1445,2.1841,2.1786,2.1527,2.1337,2.1337,2.0305,1.9534,1.9534,1.9488,1.9497,1.9534,1.9542,1.9542,1.9534,2.0621,2.08,1.9633,2.1765,2.1996,1.9579,1.9488,1.9488,1.9497,1.9497,1.9497,1.9497,1.9497,1.9497,1.9497,1.9497,1.9497,0.7699,0.7916,0.8143,0.8296,0.0,0.0,0.0,0.8676,0.0,0.0,0.8818,0.871,0.871,0.0,0.0,0.8726,0.0,0.0,0.0,0.0,0.0,0.0,0.0,0.0,0.0,0.0,0.0,0.0,0.0,0.0,0.0,1.2512,1.3965,1.5364,1.5417,1.6121,1.7582,1.7582,1.7582,1.7582,1.7582,1.7582,1.7582,1.7582,1.7582,1.7582,1.7582,1.7582,1.7582,1.7582,1.7582,1.7582,1.7582,1.7582,1.7582,1.7582,1.7582,1.7582,1.7582,1.7582,1.7582,1.7582,1.8506,1.9576,1.9576,2.1253,2.3176,2.3583,2.4402,2.5177,2.5586,2.5693,2.5693,2.5693,2.5693,2.5499,2.4833,2.4565,2.4193,2.3177,2.3117,2.3088,2.2793,2.2631,2.2589,2.2589,2.2271,2.2041,2.2041,2.0539,2.0133,2.1863,2.1257,2.1123,2.1952,2.2359,2.2403,2.2041,2.2687,2.1996,1.9579,2.0305,2.035,1.9542,1.9497,1.9497,1.9497,1.9497,1.9497,1.9497,1.9497,1.9497,0.7862,0.8038,0.8197,0.8469,0.8625,0.8726,0.8788,0.0,0.0,0.0,0.8811,0.8801,0.8801,0.8821,0.0,0.0,0.0,0.0,0.0,0.0,0.0,0.0,0.0,0.0,0.0,0.0,0.0,0.0,0.0,0.0,0.0,1.3911,1.5417,1.6227,1.628,1.6717,1.7582,1.7582,1.7582,1.7582,1.7582,1.7582,1.7582,1.7582,1.7582,1.7582,1.7582,1.7582,1.7582,1.7582,1.7582,1.7582,1.7582,1.7582,1.7582,1.7582,1.7582,1.7582,1.7582,1.7943,1.8401,1.8401,1.9672,2.1253,2.1253,2.2776,2.4501,2.4501,2.5069,2.5693,2.5693,2.5693,2.5693,2.5693,2.5605,2.54,2.5174,2.4851,2.445,2.3887,2.3652,2.3447,2.314,2.3091,2.3091,2.3091,2.3091,2.3091,2.3091,2.1819,2.1498,2.295,2.2448,2.2306,2.3047,2.3091,2.3091,2.3091,2.3091,2.2457,2.0998,2.1623,2.1667,2.0953,2.0944,2.0944,2.0944,2.0944,2.0944,2.0944,2.0944,2.0944,0.8272,0.8357,0.8391,0.8811,0.8825,0.8767,0.8851,0.8885,0.8885,0.8885,0.0,0.8885,0.8885,0.8885,0.0,0.0,0.0,0.0,0.0,0.0,0.0,0.0,0.0,0.0,0.0,0.0,0.0,0.0,0.0,0.0,0.0,1.6121,1.7582,1.7582,1.7582,1.7582,1.7582,1.7582,1.7582,1.7582,1.7582,1.7582,1.7582,1.7582,1.7582,1.7582,1.7582,1.7582,1.7582,1.7582,1.7582,1.7582,1.7582,1.7582,1.7582,1.7582,1.7582,1.7635,1.774,1.8558,1.9627,1.9731,2.1558,2.3692,2.3692,2.4658,2.5693,2.5693,2.5693,2.5693,2.5693,2.5664,2.5625,2.5625,2.5361,2.5096,2.5018,2.4346,2.3779,2.374,2.3408,2.3091,2.3091,2.3091,2.3091,2.3091,2.3091,2.3091,2.3091,2.3091,2.3091,2.3091,2.3091,2.3091,2.3091,2.3091,2.3091,2.3091,2.3091,2.3091,2.3091,2.3091,2.3091,2.3091,2.3091,2.3091,2.3091,2.3091,2.3091,2.3091,2.3091,2.3091,0.7892,0.8191,0.0,0.8706,0.8825,0.8844,0.8875,0.8885,0.8885,0.8885,0.8885,0.8885,0.8885,0.0,0.0,0.0,0.0,0.0,0.0,0.0,0.0,0.0,0.0,0.0,0.0,0.0,0.0,0.0,0.0,0.0,1.4931,1.6611,1.7582,1.7582,1.7582,1.7582,1.7582,1.7582,1.7582,0.0,1.7582,1.7582,1.7582,1.7582,1.7582,1.7582,1.7582,1.7582,1.7582,1.7582,1.7582,1.7582,1.7582,1.7582,1.7582,1.7582,1.7582,1.7733,1.8812,1.9376,1.9775,2.0896,2.2366,2.3692,2.3692,2.4658,2.5693,2.5693,2.5693,2.5693,2.5693,2.5478,2.5215,2.5215,2.5137,2.493,2.4209,2.3916,2.3691,2.3305,2.3159,2.3091,2.3091,2.3091,2.3091,2.3091,2.3091,2.3091,2.3091,2.3091,2.3091,2.3091,2.3091,2.3091,2.3091,2.3091,2.3091,2.3091,2.3091,2.3091,2.3091,2.3091,2.3091,2.3091,2.3091,2.3091,2.3091,2.3091,2.3091,2.3091,2.3091,2.3091,0.7994,0.8201,0.0,0.8726,0.0,0.8885,0.8885,0.8885,0.8885,0.8885,0.8885,0.8885,0.0,0.0,0.0,0.0,0.0,0.0,0.0,0.0,0.0,0.0,0.0,0.0,0.0,0.0,0.0,0.0,0.0,1.5417,1.5417,1.6823,1.7582,1.7582,1.7582,1.7582,1.7582,1.7582,1.7582,1.7582,1.7582,1.7582,1.7582,1.7582,1.7582,1.7582,1.7582,1.7582,1.7582,1.7582,1.7582,1.7582,1.7582,1.7989,1.8558,1.8558,1.8961,1.9672,2.0385,2.1049,2.1659,2.2416,2.3583,2.4658,2.4658,2.5177,2.5693,2.5693,2.5693,2.5635,2.5478,2.5244,2.5008,2.4597,2.4463,2.4336,2.3887,2.3623,2.3408,2.314,2.3091,2.3091,2.3091,2.3091,2.3091,2.3091,2.3091,2.3091,2.3091,2.3091,2.3091,2.3091,2.3091,2.3091,2.3091,2.3091,2.3091,2.3091,2.3091,2.3091,2.3091,2.3091,2.3091,2.3091,2.3091,2.3091,2.3091,2.3091,2.3091,2.3091,2.3091,2.3091,0.8163,0.8262,0.8231,0.8753,0.8885,0.0,0.8885,0.8885,0.8885,0.8885,0.8885,0.0,0.0,0.0,0.0,0.0,0.0,0.0,0.0,0.0,0.0,0.0,0.0,0.0,0.0,0.0,0.0,0.0,0.0,1.5796,1.5796,1.6929,1.7582,1.7582,1.7582,1.7582,1.7582,1.7582,1.7582,1.7582,1.7582,1.7582,1.7582,1.7582,1.7582,1.7582,1.7582,1.7582,1.7582,1.7582,1.7582,1.7582,1.7582,1.8401,1.9576,1.9576,2.0487,2.1752,2.1954,2.2767,2.3741,2.3949,2.4815,2.5693,2.5693,2.5693,2.5674,2.5644,2.5625,2.5518,2.5078,2.4949,2.4715,2.3955,2.373,2.3682,2.3682,2.3344,2.3091,2.3091,2.3091,2.3091,2.3091,2.3091,2.3091,2.3091,2.3091,2.3091,2.3091,2.3091,2.3091,2.3091,2.3091,2.3091,2.3091,2.3091,2.3091,2.3091,2.3091,2.3091,2.3091,2.3091,2.3091,2.3091,2.3091,2.3091,2.3091,2.3091,2.3091,2.3091,2.3091,2.3091,0.7868,0.0,0.8672,0.0,0.8885,0.8885,0.0,0.0,0.8885,0.0,0.0,0.0,0.0,0.0,0.0,0.0,0.0,0.0,0.0,0.0,0.0,0.0,0.0,0.0,0.0,0.0,0.0,0.0,1.5689,1.7312,1.7312,1.7477,1.7582,1.7582,1.7582,1.7582,1.7582,1.7582,1.7582,1.7582,1.7582,1.7582,1.7582,1.7582,1.7582,1.7582,1.7582,1.7582,1.7582,1.7582,1.7582,1.7582,1.7582,1.8401,1.9576,1.9576,2.0487,2.1853,2.3026,2.3534,2.389,2.5069,2.5538,2.5693,2.5693,2.5693,2.5606,2.5273,2.5156,2.5059,2.4619,2.4228,2.3926,2.3818,2.3496,2.3179,2.3179,2.314,2.3091,2.3091,2.3091,2.3091,2.3091,2.3091,2.3091,2.3091,2.3091,2.3091,2.3091,2.3091,2.3091,2.3091,2.3091,2.3091,2.3091,2.3091,2.3091,2.3091,2.3091,2.3091,2.3091,2.3091,2.3091,2.3091,2.3091,2.3091,2.3091,2.3091,2.3091,2.3091,2.3091,2.3091,0.7977,0.8384,0.8906,0.0,1.0131,1.0347,1.116,0.0,1.1105,1.0296,0.0,0.0,0.0,0.0,0.0,0.0,0.0,0.0,0.0,0.0,0.0,0.0,0.0,0.0,0.0,0.0,0.0,0.0,1.5962,1.7582,1.7582,1.7582,1.7582,1.7582,1.7582,1.7582,1.7582,1.7582,1.7582,1.7582,1.7582,1.7582,1.7582,1.7582,1.7582,1.7582,1.7582,1.7582,1.7582,1.7582,1.7582,1.7687,1.8454,1.9568,2.0896,2.1608,2.2776,2.4048,2.4609,2.4815,2.4913,2.5489,2.5693,2.5645,2.5439,2.5361,2.5273,2.4824,2.4697,2.46,2.418,2.3926,2.373,2.3486,2.3237,2.3091,2.3091,2.3091,2.3091,2.3091,2.3091,2.3091,2.3091,2.3091,2.3091,2.3091,2.3091,2.3091,2.3091,2.3091,2.3091,2.3091,2.3091,2.3091,2.3091,2.3091,2.3091,2.3091,2.3091,2.3091,2.3091,2.3091,2.3091,2.3091,2.3091,2.3091,2.3091,2.3091,2.3091,2.3091,2.3091,2.3091,0.0,0.0,0.9012,1.0654,1.1033,1.1422,0.0,0.0,1.2999,0.0,0.0,0.0,0.0,0.0,0.0,0.0,0.0,0.0,0.0,0.0,0.0,0.0,0.0,0.0,0.0,0.0,0.0,0.0,1.6174,1.7582,1.7582,1.7582,1.7582,1.7582,1.7582,1.7582,1.7582,1.7582,1.7582,1.7582,1.7582,1.7582,1.7582,1.7582,1.7582,1.7582,1.7582,1.7582,1.7582,1.7582,1.7582,1.7733,1.9072,2.0436,2.1853,2.3226,2.4559,2.5674,2.5557,2.5566,2.5547,2.5391,2.5352,2.5284,2.5,2.4902,2.4814,2.4375,2.4258,2.416,2.373,2.3623,2.3545,2.3169,2.3091,2.3091,2.3091,2.3091,2.3091,2.3091,2.3091,2.3091,2.3091,2.3091,2.3091,2.3091,2.3091,2.3091,2.3091,2.3091,2.3091,2.3091,2.3091,2.3091,2.3091,2.3091,2.3091,2.3091,2.3091,2.3091,2.3091,2.3091,2.3091,2.3091,2.3091,2.3091,2.3091,2.3091,2.3091,2.3091,2.3091,2.3091,0.0,0.8333,0.0,1.049,1.0892,0.0,0.0,0.0,0.0,0.0,0.0,0.0,0.0,0.0,0.0,0.0,0.0,0.0,0.0,0.0,0.0,0.0,0.0,0.0,0.0,0.0,0.0,0.0,1.6717,1.7582,1.7582,1.7582,1.7582,1.7582,1.7582,1.7582,1.7582,1.7582,1.7582,1.7582,1.7582,1.7582,1.7582,1.7582,1.7582,1.7582,1.7582,1.7582,1.7582,1.7582,1.7582,1.7733,1.9072,2.0436,2.1853,2.3226,2.4559,2.5625,2.5254,2.5145,2.5086,2.4619,2.4482,2.4482,2.4453,2.4453,2.4365,2.3935,2.3828,2.3721,2.3247,2.313,2.312,2.3101,2.3091,2.3091,2.3091,2.3091,2.3091,2.3091,2.3091,2.3091,2.3091,2.3091,2.3091,2.3091,2.3091,2.3091,2.3091,2.3091,2.3091,2.3091,2.3091,2.3091,2.3091,2.3091,2.3091,2.3091,2.3091,2.3091,2.3091,2.3091,2.3091,2.3091,2.3091,2.3091,2.3091,2.3091,2.3091,2.3091,2.3091,2.3091,0.0,0.0,0.0,1.0377,1.1515,1.2629,1.4153,1.5305,0.0,0.0,0.0,0.0,0.0,0.0,0.0,0.0,0.0,0.0,0.0,0.0,0.0,0.0,0.0,0.0,0.0,0.0,0.0,0.0,0.0,1.7582,1.7582,1.7582,1.7582,1.7582,1.7582,1.7582,1.7582,1.7582,1.7582,1.7582,1.7582,1.7582,1.7582,1.7582,1.8094,1.8864,1.8864,1.8401,1.7687,1.8558,1.8864,1.9117,2.1347,2.2517,2.31,2.4203,2.49,2.5244,2.4805,2.4648,2.4619,2.4473,2.4414,2.4365,2.4092,2.4014,2.3926,2.3496,2.3369,2.3286,2.314,2.3091,2.3091,2.3091,2.3091,2.3091,2.3091,2.3091,2.3091,2.3091,2.3091,2.3091,2.3091,2.3091,2.3091,2.3091,2.3091,2.3091,2.3091,2.3091,2.3091,2.3091,2.3091,2.3091,2.3091,2.3091,2.3091,2.3091,2.3091,2.343,2.4168,2.4168,2.4553,2.5263,2.5263,2.4563,2.3091,2.3833,2.4168,2.4211,2.4925,2.5263,0.8668,0.0,0.0,0.0,0.0,1.3319,1.5427,0.0,0.0,0.0,0.0,0.0,0.0,0.0,0.0,0.0,0.0,0.0,0.0,0.0,0.0,0.0,0.0,0.0,0.0,0.0,0.0,0.0,0.0,0.0,1.7582,1.7582,1.7582,1.7582,1.7582,1.7582,1.7582,1.7582,1.7582,1.7582,1.7582,1.7582,1.7582,1.7582,1.8349,1.9576,1.9576,1.9369,1.9057,1.993,2.0282,2.0531,2.2629,2.3484,2.3586,2.4517,2.4853,2.4785,2.4355,2.4209,2.418,2.3988,2.3939,2.389,2.3662,2.3574,2.3516,2.3179,2.3091,2.3091,2.3091,2.3091,2.3091,2.3091,2.3091,2.3091,2.3091,2.3091,2.3091,2.3091,2.3091,2.3091,2.3091,2.3091,2.3091,2.3091,2.3091,2.3091,2.3091,2.3091,2.3266,2.3637,2.3681,2.3844,2.4221,2.4221,2.4221,2.4221,2.4221,2.4595,2.5336,2.5378,2.5714,2.6483,2.6524,2.5766,2.4221,2.501,2.5378,2.5378,2.6141,2.6678,0.0,0.0,0.0,0.0,0.0,0.0,1.6413,0.0,0.0,0.0,0.0,0.0,0.0,0.0,0.0,0.0,0.0,0.0,0.0,0.0,0.0,0.0,0.0,0.0,0.0,0.0,0.0,0.0,1.7582,1.7582,1.7582,1.7582,1.7582,1.7582,1.7582,1.7582,1.7582,1.7582,1.7582,1.7582,1.7582,1.7635,1.7687,1.7687,1.8401,1.9731,1.9723,2.0523,2.1786,2.1786,2.1736,2.1854,2.2677,2.3021,2.3169,2.4076,2.4394,2.4336,2.3916,2.3769,2.3701,2.3227,2.3091,2.3091,2.3091,2.3091,2.3091,2.3091,2.3091,2.3091,2.3091,2.3091,2.3091,2.3091,2.3091,2.3091,2.3091,2.3091,2.3091,2.3091,2.3091,2.3091,2.3135,2.3135,2.3091,2.3135,2.3135,2.3135,2.3135,2.3178,2.3637,2.4745,2.483,2.5294,2.6389,2.6524,2.6524,2.6524,2.6524,2.6513,2.6565,2.6554,2.6554,2.6607,2.6607,2.6607,2.6607,2.6554,2.6554,2.6554,2.6595,2.7168,0.9887,0.0,0.0,0.0,0.0,0.0,0.0,0.0,0.0,0.0,0.0,0.0,0.0,0.0,0.0,0.0,0.0,0.0,0.0,0.0,0.0,0.0,0.0,0.0,0.0,0.0,0.0,0.0,1.7582,1.7582,1.7582,1.7582,1.7582,1.7582,1.7582,1.7582,1.7582,1.7582,1.7582,1.7582,1.7582,1.8094,1.9065,1.9065,2.0341,2.2558,2.2225,2.285,2.4093,2.3055,2.2654,2.2717,2.3635,2.4011,2.401,2.3974,2.3965,2.3906,2.3467,2.3276,2.3257,2.314,2.3091,2.3091,2.3091,2.3091,2.3091,2.3091,2.3091,2.3091,2.3091,2.3091,2.3091,2.3091,2.3091,2.3091,2.3091,2.3091,2.3091,2.3091,2.3091,2.3343,2.4168,2.3627,2.3387,2.4211,2.4339,2.4339,2.4339,2.5052,2.5683,2.6016,2.6016,2.6141,2.6483,2.6524,2.6524,2.6524,2.6524,2.6842,2.7614,2.7643,2.8028,2.8882,2.8882,2.8882,2.8882,2.8068,2.7643,2.7695,2.849,2.904,0.0,0.0,0.0,0.0,0.0,0.0,1.5128,1.5783,1.6401,0.0,0.0,0.0,0.0,0.0,0.0,0.0,0.0,0.0,0.0,0.0,0.0,0.0,0.0,0.0,0.0,1.7094,1.7582,1.7582,1.7582,1.7582,1.7582,1.7582,1.7582,1.7582,1.7582,1.7582,1.7582,1.7582,1.7582,1.7635,1.8146,1.8864,1.9627,2.0238,2.1568,2.3381,2.3147,2.3678,2.4738,2.373,2.3419,2.3626,2.3984,2.415,2.4102,2.3672,2.3516,2.3486,2.3179,2.3091,2.3091,2.3091,2.3091,2.3091,2.3091,2.3091,2.3091,2.3091,2.3091,2.3091,2.3091,2.3091,2.3091,2.3091,2.3091,2.3091,2.3091,2.3464,2.38,2.38,2.38,2.4168,2.5294,2.4967,2.4723,2.542,2.5504,2.5504,2.5504,2.6099,2.6678,2.7128,2.7168,2.7371,2.7839,2.7879,2.7879,2.7879,2.7879,2.8171,2.8767,2.8806,2.9106,2.9792,2.9792,2.9792,2.9792,2.9145,2.8806,2.8819,2.9495,2.9792,0.0,0.0,0.0,0.0,0.0,0.0,1.6233,1.5758,1.5454,1.7114,0.0,0.0,0.0,0.0,0.0,0.0,0.0,0.0,0.0,0.0,0.0,0.0,0.0,0.0,1.7582,1.7582,1.7582,1.7582,1.7582,1.7582,1.7582,1.7582,1.7582,1.7582,1.7582,1.7582,1.7582,1.7733,1.7838,1.7838,1.9169,1.9863,2.003,2.129,2.2341,2.3169,2.3123,2.3579,2.4316,2.3887,2.3965,2.4307,2.3887,2.3721,2.3672,2.3237,2.3091,2.3091,2.3091,2.3091,2.3091,2.3091,2.3091,2.3091,2.3091,2.3091,2.3091,2.3091,2.3091,2.3091,2.3091,2.3091,2.3135,2.3266,2.3309,2.3299,2.343,2.4253,2.5041,2.5157,2.5083,2.5336,2.6472,2.6595,2.6565,2.6637,2.6678,2.6678,2.6678,2.6812,2.7209,2.8176,2.8307,2.8688,2.9702,2.9792,2.9792,2.9792,2.9792,2.9792,2.9792,2.9792,2.9792,2.9792,2.9792,2.9792,2.9792,2.9792,2.9792,2.9792,2.9792,2.9792,0.0,0.0,0.0,0.0,0.0,0.0,1.5876,1.5985,1.6134,0.0,0.0,0.0,0.0,0.0,0.0,0.0,0.0,0.0,0.0,0.0,0.0,0.0,0.0,0.0,1.7582,1.7582,1.7582,1.7582,1.7582,1.7582,1.7582,1.7582,1.7582,1.7582,1.7582,1.7582,1.7582,1.8655,1.922,1.922,2.0641,2.1653,2.2365,2.261,2.3229,2.4094,2.3804,2.3757,2.3877,2.3403,2.3525,2.3867,2.3393,2.3218,2.3218,2.312,2.3091,2.3091,2.3091,2.3091,2.3091,2.3091,2.3091,2.3091,2.3091,2.3091,2.3091,2.3091,2.3091,2.3091,2.3091,2.3091,2.3343,2.4253,2.4457,2.4713,2.5641,2.6016,2.6419,2.7308,2.6748,2.6502,2.7602,2.7087,2.6801,2.7643,2.7804,2.7804,2.7804,2.8581,2.9248,2.9456,2.9495,2.9585,2.9792,2.9792,2.9792,2.9792,2.9792,2.9792,2.9792,2.9792,2.9792,2.9792,2.9792,2.9792,2.9792,2.9792,2.9792,2.9792,2.9792,2.9792,0.0,0.0,0.0,1.5784,0.0,0.0,0.0,1.6166,1.6362,1.646,0.0,0.0,0.0,0.0,0.0,0.0,0.0,0.0,0.0,0.0,0.0,0.0,0.0,0.0,1.7582,1.7582,1.7582,1.7582,1.7582,1.7582,1.7582,1.7582,1.7582,1.7582,1.7582,1.7582,1.7582,1.8916,1.9501,1.9337,2.1387,2.2486,2.2703,2.3379,2.3832,2.4092,2.3887,2.3662,2.3447,2.3188,2.3227,2.3437,2.3179,2.3091,2.3091,2.3091,2.3091,2.3091,2.3091,2.3091,2.3091,2.3091,2.3091,2.3091,2.3091,2.3091,2.3091,2.3091,2.3091,2.3222,2.38,2.3963,2.4264,2.5378,2.563,2.5797,2.6389,2.6924,2.7441,2.8016,2.8108,2.8331,2.8858,2.8502,2.8331,2.8858,2.8937,2.8937,2.8937,2.9456,2.9792,2.9792,2.9792,2.9792,2.9792,2.9792,2.9792,2.9792,2.9792,2.9792,2.9792,2.9792,2.9792,2.9792,2.9792,2.9792,2.9792,2.9792,2.9792,2.9792,2.9792,2.9792,0.0,0.0,0.0,0.0,0.0,1.5892,0.0,0.0,0.0,0.0,0.0,0.0,0.0,0.0,0.0,0.0,0.0,0.0,0.0,0.0,0.0,0.0,0.0,0.0,0.0,1.7502,1.7522,1.7582,1.7528,1.7522,1.7582,1.7582,1.7582,1.7582,1.7528,1.7502,1.7502,1.9015,1.9611,1.9345,2.1993,2.3067,2.273,2.3781,2.4062,2.3662,2.3662,2.3467,2.3091,2.3091,2.3091,2.3091,2.3091,2.3091,2.3091,2.3091,2.3091,2.3091,2.3091,2.3091,2.3091,2.3091,2.3091,2.3091,2.3091,2.3091,2.3135,2.3387,2.343,2.3681,2.483,2.5126,2.542,2.6554,2.6801,2.6883,2.7098,2.7827,2.8426,2.8426,2.9157,2.9792,2.9792,2.9792,2.9792,2.9792,2.9792,2.9792,2.9792,2.9792,2.9792,2.9792,2.9792,2.9792,2.9792,2.9792,2.9792,2.9792,2.9792,2.9792,2.9792,2.9792,2.9792,2.9792,2.9792,2.9792,2.9792,2.9792,2.9792,2.9792,2.9792,2.9792,0.0,0.0,0.0,0.0,1.5784,0.0,0.0,0.0,1.5885,1.5919,0.0,0.0,0.0,0.0,0.0,0.0,0.0,0.0,0.0,0.0,0.0,0.0,0.0,0.0,0.0,1.7253,1.7353,1.7562,1.7393,1.7367,1.7569,1.7582,1.7582,1.7582,1.7387,1.7253,1.7253,1.9391,2.0475,2.0442,2.3045,2.4028,2.3632,2.3812,2.3623,2.3169,2.3169,2.314,2.3091,2.3091,2.3091,2.3091,2.3091,2.3091,2.3091,2.3091,2.3091,2.3091,2.3091,2.3091,2.3091,2.3091,2.3091,2.3091,2.3091,2.3091,2.3299,2.4339,2.4628,2.4872,2.6016,2.6307,2.6595,2.7643,2.7936,2.8187,2.9209,2.9534,2.9624,2.9624,2.9702,2.9792,2.9792,2.9792,2.9792,2.9792,2.9792,2.9792,2.9792,2.9792,2.9792,2.9792,2.9792,2.9792,2.9792,2.9792,2.9792,2.9792,2.9792,2.9792,2.9792,2.9792,2.9792,2.9792,2.9792,2.9792,2.9792,2.9792,2.9792,2.9792,2.9792,2.9792,0.0,0.0,0.0,0.0,0.0,0.0,1.5824,0.0,1.5785,0.0,0.0,0.0,0.0,0.0,0.0,0.0,1.5491,0.0,0.0,0.0,0.0,0.0,0.0,0.0,0.0,0.0,0.0,0.0,1.7521,1.7739,1.8393,1.8393,1.8658,1.921,1.9116,1.9048,1.9048,2.0797,2.1527,2.1318,2.3156,2.3828,2.3408,2.3408,2.331,2.3091,2.3091,2.3091,2.3091,2.3091,2.3091,2.3091,2.3091,2.3091,2.3091,2.3091,2.3091,2.3091,2.3091,2.3091,2.3222,2.3887,2.4082,2.4211,2.4851,2.5062,2.5189,2.5641,2.5797,2.6047,2.7157,2.7441,2.7695,2.8819,2.9106,2.9236,2.9714,2.9792,2.9792,2.9792,2.9792,2.9792,2.9792,2.9792,2.9792,2.9792,2.9792,2.9792,2.9792,2.9792,2.9792,2.9792,2.9792,2.9792,2.9792,2.9792,2.9792,2.9792,2.9792,2.9792,2.9792,2.9792,2.9792,2.9792,2.9792,3.0075,3.062,3.062,3.0871,3.1415,3.0317,3.0113,1.5757,0.0,0.0,0.0,0.0,0.0,0.0,0.0,0.0,0.0,0.0,0.0,0.0,0.0,0.0,0.0,0.0,1.5177,0.0,0.0,0.0,0.0,0.0,0.0,0.0,0.0,0.0,1.7723,1.7723,1.8215,1.9315,1.9399,1.968,2.0385,2.0335,2.0278,2.0278,2.1465,2.194,2.167,2.2957,2.3447,2.3091,2.3091,2.3091,2.3091,2.3091,2.3091,2.3091,2.3091,2.3091,2.3091,2.3091,2.3091,2.3091,2.3091,2.3091,2.3091,2.3091,2.3299,2.3714,2.4542,2.4999,2.542,2.6265,2.6524,2.6554,2.6842,2.6924,2.7209,2.8267,2.8557,2.8767,2.9585,2.9792,2.9792,2.9792,2.9792,2.9792,2.9792,2.9792,2.9792,2.9792,2.9792,2.9792,2.9792,2.9792,2.9792,2.9792,2.9792,2.9792,2.9792,2.9792,2.9792,2.9792,2.9792,2.9792,2.9792,3.0037,3.0177,3.0177,3.0419,3.057,3.057,3.057,3.0921,3.1573,3.1573,3.1924,3.2558,3.1206,3.0945,0.0,0.0,0.0,1.5905,0.0,0.0,0.0,0.0,1.5404,0.0,0.0,0.0,0.0,0.0,0.0,0.0,0.0,0.0,0.0,0.0,0.0,0.0,0.0,0.0,0.0,0.0,0.0,1.7953,1.8071,1.8728,2.028,2.0353,2.0345,2.0377,2.0081,1.9901,1.9901,2.0839,2.1329,2.132,2.2555,2.311,2.3091,2.3091,2.3091,2.3091,2.3091,2.3091,2.3091,2.3091,2.3091,2.3091,2.3091,2.3091,2.3091,2.3091,2.3091,2.3091,2.3091,2.3844,2.4745,2.4787,2.5546,2.6431,2.6483,2.6524,2.6719,2.7775,2.8056,2.8307,2.9456,2.9753,2.9753,2.9792,2.9792,2.9792,2.9792,2.9792,2.9792,2.9792,2.9792,2.9792,2.9792,2.9792,2.9792,2.9792,2.9792,2.9792,2.9792,2.9792,2.9792,2.9792,2.9792,2.9792,2.9792,2.9792,2.9792,2.9792,3.0658,3.1143,3.1143,3.2033,3.25,3.25,3.25,3.2536,3.2558,3.2558,3.2558,3.2593,3.2522,3.2536,0.0,0.0,1.6784,1.6246,0.0,0.0,0.0,0.0,0.0,0.0,0.0,0.0,0.0,0.0,0.0,0.0,0.0,0.0,0.0,0.0,0.0,0.0,0.0,0.0,0.0,0.0,0.0,1.8067,1.9031,2.0108,2.1284,2.1322,2.1571,2.2189,2.2086,2.2013,2.2013,2.2337,2.2492,2.2492,2.2906,2.3091,2.3091,2.3091,2.3091,2.3091,2.3091,2.3091,2.3091,2.3091,2.3091,2.3091,2.3091,2.3091,2.3091,2.3091,2.3594,2.4339,2.5105,2.5599,2.6047,2.6737,2.7227,2.7695,2.8462,2.8673,2.8752,2.9118,2.9236,2.9314,2.9702,2.9792,2.9792,2.9792,2.9792,2.9792,2.9792,2.9792,2.9792,2.9792,2.9792,2.9792,2.9792,2.9792,2.9792,2.9792,2.9792,2.9792,2.9792,2.9792,2.9792,2.9792,2.9792,2.9792,2.9792,3.0381,3.0983,3.1623,3.196,3.2141,3.2141,3.2429,3.2593,3.2593,3.2593,3.2925,3.3518,3.3518,3.3856,3.4524,3.4524,3.4158,1.6887,1.7058,0.0,1.6547,1.6486,0.0,1.5705,0.0,0.0,0.0,0.0,0.0,0.0,0.0,0.0,0.0,0.0,0.0,0.0,1.4412,0.0,0.0,0.0,0.0,0.0,0.0,1.8294,1.9038,1.9961,2.1026,0.0,0.0,2.2518,2.3057,2.3091,2.3091,2.3091,2.3091,2.3091,2.3091,2.3091,2.3091,2.3091,2.3091,2.3091,2.3091,2.3091,2.3091,2.3091,2.3091,2.3091,2.3135,2.3551,2.3714,2.3714,2.3714,2.4425,2.5504,2.6265,2.676,2.7168,2.7896,2.8386,2.8858,2.9573,2.9792,2.9754,2.9541,2.9628,2.9741,2.9541,2.9641,2.9792,2.9792,2.9792,2.9792,2.9792,2.9792,2.9792,2.9792,2.9792,2.9792,2.9792,2.9792,2.9792,2.9792,2.9792,2.9792,2.9792,3.0113,3.0317,3.0317,3.0608,3.0822,3.0822,3.1365,3.196,3.2558,3.2925,3.3101,3.3101,3.3429,3.365,3.365,3.365,3.3939,3.4543,3.4543,3.4872,3.5504,3.5504,3.5166]}]]